<?xml version="1.0" encoding="utf-8"?>
<gpx xmlns:xsi="http://www.w3.org/2001/XMLSchema-instance" xmlns:xsd="http://www.w3.org/2001/XMLSchema" version="1.1" creator="Shapelink.com" xmlns="http://www.topografix.com/GPX/1/1" xmlns:gpxtpx="http://www.garmin.com/xmlschemas/TrackPointExtension/v1">
  <metadata>
    <name>Walking 13.98 km, 2012-08-09</name>
    <desc></desc>
    <author><name>Ulf Andrae</name></author> 
    <time>2012-08-09T10:38:01Z</time>
  </metadata>
  <trk>
    <name>Walking 13.98 km, 2012-08-09</name>
    <trkseg>
      <trkpt lat="61.5692698304" lon="8.72966875322">
        <ele>1212.36</ele>
        <time>2012-08-09T10:38:01Z</time>
      </trkpt>
      <trkpt lat="61.569273686" lon="8.72968249954">
        <ele>1213.8</ele>
        <time>2012-08-09T10:38:03Z</time>
      </trkpt>
      <trkpt lat="61.5692732669" lon="8.72968954034">
        <ele>1218.13</ele>
        <time>2012-08-09T10:38:05Z</time>
      </trkpt>
      <trkpt lat="61.5692695789" lon="8.72968912125">
        <ele>1221.97</ele>
        <time>2012-08-09T10:38:08Z</time>
      </trkpt>
      <trkpt lat="61.5692679863" lon="8.72968828306">
        <ele>1225.34</ele>
        <time>2012-08-09T10:38:11Z</time>
      </trkpt>
      <trkpt lat="61.5692710038" lon="8.72968920507">
        <ele>1229.18</ele>
        <time>2012-08-09T10:38:14Z</time>
      </trkpt>
      <trkpt lat="61.5692632925" lon="8.72969792224">
        <ele>1232.07</ele>
        <time>2012-08-09T10:38:18Z</time>
      </trkpt>
      <trkpt lat="61.5692549106" lon="8.7296669092">
        <ele>1235.43</ele>
        <time>2012-08-09T10:38:23Z</time>
      </trkpt>
      <trkpt lat="61.5692585148" lon="8.72966523282">
        <ele>1236.39</ele>
        <time>2012-08-09T10:38:25Z</time>
      </trkpt>
      <trkpt lat="61.5692629572" lon="8.72966975905">
        <ele>1239.28</ele>
        <time>2012-08-09T10:38:29Z</time>
      </trkpt>
      <trkpt lat="61.5692620352" lon="8.72966699302">
        <ele>1242.16</ele>
        <time>2012-08-09T10:38:35Z</time>
      </trkpt>
      <trkpt lat="61.5692595206" lon="8.72966431081">
        <ele>1246.01</ele>
        <time>2012-08-09T10:38:42Z</time>
      </trkpt>
      <trkpt lat="61.5692577604" lon="8.72965995222">
        <ele>1246.01</ele>
        <time>2012-08-09T10:38:43Z</time>
      </trkpt>
      <trkpt lat="61.5692597721" lon="8.72965727001">
        <ele>1247.45</ele>
        <time>2012-08-09T10:38:47Z</time>
      </trkpt>
      <trkpt lat="61.5692603588" lon="8.72968778014">
        <ele>1252.25</ele>
        <time>2012-08-09T10:38:59Z</time>
      </trkpt>
      <trkpt lat="61.569262119" lon="8.72967621312">
        <ele>1251.77</ele>
        <time>2012-08-09T10:39:00Z</time>
      </trkpt>
      <trkpt lat="61.5692549106" lon="8.72965517454">
        <ele>1254.18</ele>
        <time>2012-08-09T10:39:13Z</time>
      </trkpt>
      <trkpt lat="61.5692539886" lon="8.72970529832">
        <ele>1256.58</ele>
        <time>2012-08-09T10:39:27Z</time>
      </trkpt>
      <trkpt lat="61.5692458581" lon="8.72968685813">
        <ele>1257.06</ele>
        <time>2012-08-09T10:39:49Z</time>
      </trkpt>
      <trkpt lat="61.5692460258" lon="8.72968291864">
        <ele>1258.02</ele>
        <time>2012-08-09T10:40:11Z</time>
      </trkpt>
      <trkpt lat="61.5692364704" lon="8.72967705131">
        <ele>1257.54</ele>
        <time>2012-08-09T10:40:29Z</time>
      </trkpt>
      <trkpt lat="61.5692378115" lon="8.72968400829">
        <ele>1257.54</ele>
        <time>2012-08-09T10:40:58Z</time>
      </trkpt>
      <trkpt lat="61.5692477021" lon="8.72969046235">
        <ele>1257.54</ele>
        <time>2012-08-09T10:41:15Z</time>
      </trkpt>
      <trkpt lat="61.5692611132" lon="8.72965483926">
        <ele>1257.54</ele>
        <time>2012-08-09T10:41:44Z</time>
      </trkpt>
      <trkpt lat="61.5692502167" lon="8.72966095805">
        <ele>1257.54</ele>
        <time>2012-08-09T10:42:04Z</time>
      </trkpt>
      <trkpt lat="61.5692532342" lon="8.72968476266">
        <ele>1258.02</ele>
        <time>2012-08-09T10:42:22Z</time>
      </trkpt>
      <trkpt lat="61.5692788828" lon="8.72969876043">
        <ele>1258.02</ele>
        <time>2012-08-09T10:42:35Z</time>
      </trkpt>
      <trkpt lat="61.5692948084" lon="8.72969079763">
        <ele>1258.02</ele>
        <time>2012-08-09T10:42:51Z</time>
      </trkpt>
      <trkpt lat="61.5693401545" lon="8.72970756143">
        <ele>1258.5</ele>
        <time>2012-08-09T10:43:00Z</time>
      </trkpt>
      <trkpt lat="61.5694224648" lon="8.729736479">
        <ele>1259.46</ele>
        <time>2012-08-09T10:43:12Z</time>
      </trkpt>
      <trkpt lat="61.5695050266" lon="8.72986891307">
        <ele>1260.91</ele>
        <time>2012-08-09T10:43:27Z</time>
      </trkpt>
      <trkpt lat="61.5695709921" lon="8.72994485311">
        <ele>1261.39</ele>
        <time>2012-08-09T10:43:40Z</time>
      </trkpt>
      <trkpt lat="61.5696747601" lon="8.73001182452">
        <ele>1262.83</ele>
        <time>2012-08-09T10:43:54Z</time>
      </trkpt>
      <trkpt lat="61.5697505325" lon="8.73006521724">
        <ele>1264.27</ele>
        <time>2012-08-09T10:44:07Z</time>
      </trkpt>
      <trkpt lat="61.5697773546" lon="8.73001668602">
        <ele>1264.75</ele>
        <time>2012-08-09T10:44:24Z</time>
      </trkpt>
      <trkpt lat="61.5697907656" lon="8.73006102629">
        <ele>1264.75</ele>
        <time>2012-08-09T10:44:38Z</time>
      </trkpt>
      <trkpt lat="61.5697917715" lon="8.73003412038">
        <ele>1264.75</ele>
        <time>2012-08-09T10:45:00Z</time>
      </trkpt>
      <trkpt lat="61.5697963815" lon="8.73002414592">
        <ele>1264.75</ele>
        <time>2012-08-09T10:45:14Z</time>
      </trkpt>
      <trkpt lat="61.5697922744" lon="8.7300078012">
        <ele>1264.27</ele>
        <time>2012-08-09T10:45:36Z</time>
      </trkpt>
      <trkpt lat="61.5697916877" lon="8.7300099805">
        <ele>1264.27</ele>
        <time>2012-08-09T10:46:07Z</time>
      </trkpt>
      <trkpt lat="61.5697974712" lon="8.72998978011">
        <ele>1264.27</ele>
        <time>2012-08-09T10:46:42Z</time>
      </trkpt>
      <trkpt lat="61.569809122" lon="8.73001584783">
        <ele>1264.75</ele>
        <time>2012-08-09T10:47:06Z</time>
      </trkpt>
      <trkpt lat="61.5698177554" lon="8.72999975458">
        <ele>1264.75</ele>
        <time>2012-08-09T10:47:20Z</time>
      </trkpt>
      <trkpt lat="61.569832759" lon="8.73001023196">
        <ele>1265.23</ele>
        <time>2012-08-09T10:47:37Z</time>
      </trkpt>
      <trkpt lat="61.5699097048" lon="8.72998659499">
        <ele>1266.19</ele>
        <time>2012-08-09T10:47:50Z</time>
      </trkpt>
      <trkpt lat="61.5699650254" lon="8.72989070602">
        <ele>1267.16</ele>
        <time>2012-08-09T10:48:03Z</time>
      </trkpt>
      <trkpt lat="61.5699977148" lon="8.7298122514">
        <ele>1268.6</ele>
        <time>2012-08-09T10:48:14Z</time>
      </trkpt>
      <trkpt lat="61.5700863954" lon="8.72979431413">
        <ele>1269.56</ele>
        <time>2012-08-09T10:48:28Z</time>
      </trkpt>
      <trkpt lat="61.5701595694" lon="8.72980219312">
        <ele>1271</ele>
        <time>2012-08-09T10:48:41Z</time>
      </trkpt>
      <trkpt lat="61.5702744853" lon="8.72983563691">
        <ele>1273.88</ele>
        <time>2012-08-09T10:48:57Z</time>
      </trkpt>
      <trkpt lat="61.5703725535" lon="8.7299109064">
        <ele>1275.33</ele>
        <time>2012-08-09T10:49:12Z</time>
      </trkpt>
      <trkpt lat="61.5704594739" lon="8.72985994443">
        <ele>1276.77</ele>
        <time>2012-08-09T10:49:25Z</time>
      </trkpt>
      <trkpt lat="61.5705485735" lon="8.72992884368">
        <ele>1278.21</ele>
        <time>2012-08-09T10:49:37Z</time>
      </trkpt>
      <trkpt lat="61.5706462227" lon="8.73003579676">
        <ele>1279.65</ele>
        <time>2012-08-09T10:49:51Z</time>
      </trkpt>
      <trkpt lat="61.5707540978" lon="8.73009061441">
        <ele>1282.54</ele>
        <time>2012-08-09T10:50:07Z</time>
      </trkpt>
      <trkpt lat="61.5708602965" lon="8.73008189723">
        <ele>1283.5</ele>
        <time>2012-08-09T10:50:24Z</time>
      </trkpt>
      <trkpt lat="61.570897596" lon="8.73008298688">
        <ele>1284.46</ele>
        <time>2012-08-09T10:50:29Z</time>
      </trkpt>
      <trkpt lat="61.5709932335" lon="8.73006781563">
        <ele>1285.9</ele>
        <time>2012-08-09T10:50:46Z</time>
      </trkpt>
      <trkpt lat="61.5710793994" lon="8.73012204655">
        <ele>1287.82</ele>
        <time>2012-08-09T10:51:01Z</time>
      </trkpt>
      <trkpt lat="61.5711534955" lon="8.7301932089">
        <ele>1288.78</ele>
        <time>2012-08-09T10:51:13Z</time>
      </trkpt>
      <trkpt lat="61.571221808" lon="8.73022757471">
        <ele>1290.71</ele>
        <time>2012-08-09T10:51:25Z</time>
      </trkpt>
      <trkpt lat="61.5712594427" lon="8.73036051169">
        <ele>1291.19</ele>
        <time>2012-08-09T10:51:37Z</time>
      </trkpt>
      <trkpt lat="61.5712793916" lon="8.73056335375">
        <ele>1292.63</ele>
        <time>2012-08-09T10:51:50Z</time>
      </trkpt>
      <trkpt lat="61.5712848399" lon="8.73066301458">
        <ele>1293.11</ele>
        <time>2012-08-09T10:51:57Z</time>
      </trkpt>
      <trkpt lat="61.5713188704" lon="8.73075529933">
        <ele>1294.07</ele>
        <time>2012-08-09T10:52:11Z</time>
      </trkpt>
      <trkpt lat="61.5713595226" lon="8.73080944642">
        <ele>1294.55</ele>
        <time>2012-08-09T10:52:24Z</time>
      </trkpt>
      <trkpt lat="61.5714098141" lon="8.73082310893">
        <ele>1295.03</ele>
        <time>2012-08-09T10:52:39Z</time>
      </trkpt>
      <trkpt lat="61.571415849" lon="8.73086141422">
        <ele>1295.03</ele>
        <time>2012-08-09T10:53:01Z</time>
      </trkpt>
      <trkpt lat="61.5714259073" lon="8.7308150623">
        <ele>1295.03</ele>
        <time>2012-08-09T10:53:34Z</time>
      </trkpt>
      <trkpt lat="61.5714031924" lon="8.73079637066">
        <ele>1295.03</ele>
        <time>2012-08-09T10:54:07Z</time>
      </trkpt>
      <trkpt lat="61.571480725" lon="8.73080324382">
        <ele>1295.03</ele>
        <time>2012-08-09T10:54:22Z</time>
      </trkpt>
      <trkpt lat="61.5714938007" lon="8.73088471591">
        <ele>1296.48</ele>
        <time>2012-08-09T10:54:29Z</time>
      </trkpt>
      <trkpt lat="61.5715348721" lon="8.73100952245">
        <ele>1295.99</ele>
        <time>2012-08-09T10:54:43Z</time>
      </trkpt>
      <trkpt lat="61.5716129076" lon="8.73111421242">
        <ele>1296.96</ele>
        <time>2012-08-09T10:54:55Z</time>
      </trkpt>
      <trkpt lat="61.5717009176" lon="8.73116207309">
        <ele>1298.4</ele>
        <time>2012-08-09T10:55:08Z</time>
      </trkpt>
      <trkpt lat="61.5717741754" lon="8.73120700009">
        <ele>1299.84</ele>
        <time>2012-08-09T10:55:20Z</time>
      </trkpt>
      <trkpt lat="61.5718255565" lon="8.73122443445">
        <ele>1301.76</ele>
        <time>2012-08-09T10:55:33Z</time>
      </trkpt>
      <trkpt lat="61.5718740877" lon="8.73120565899">
        <ele>1303.2</ele>
        <time>2012-08-09T10:55:45Z</time>
      </trkpt>
      <trkpt lat="61.5719500277" lon="8.73125025071">
        <ele>1304.65</ele>
        <time>2012-08-09T10:56:00Z</time>
      </trkpt>
      <trkpt lat="61.5720273927" lon="8.73126701452">
        <ele>1306.09</ele>
        <time>2012-08-09T10:56:13Z</time>
      </trkpt>
      <trkpt lat="61.5721076075" lon="8.73125486076">
        <ele>1308.01</ele>
        <time>2012-08-09T10:56:26Z</time>
      </trkpt>
      <trkpt lat="61.5721872356" lon="8.73117732815">
        <ele>1309.93</ele>
        <time>2012-08-09T10:56:39Z</time>
      </trkpt>
      <trkpt lat="61.5722086094" lon="8.7311748974">
        <ele>1310.9</ele>
        <time>2012-08-09T10:56:43Z</time>
      </trkpt>
      <trkpt lat="61.5722848848" lon="8.73115645722">
        <ele>1311.86</ele>
        <time>2012-08-09T10:56:56Z</time>
      </trkpt>
      <trkpt lat="61.5723161492" lon="8.73118990101">
        <ele>1311.86</ele>
        <time>2012-08-09T10:57:05Z</time>
      </trkpt>
      <trkpt lat="61.572349593" lon="8.7311629951">
        <ele>1311.86</ele>
        <time>2012-08-09T10:57:19Z</time>
      </trkpt>
      <trkpt lat="61.5723353438" lon="8.73116970062">
        <ele>1311.38</ele>
        <time>2012-08-09T10:57:51Z</time>
      </trkpt>
      <trkpt lat="61.5723678656" lon="8.73119618744">
        <ele>1311.38</ele>
        <time>2012-08-09T10:58:18Z</time>
      </trkpt>
      <trkpt lat="61.5723576397" lon="8.73120498843">
        <ele>1311.38</ele>
        <time>2012-08-09T10:58:38Z</time>
      </trkpt>
      <trkpt lat="61.5723584779" lon="8.73120012693">
        <ele>1310.9</ele>
        <time>2012-08-09T10:59:02Z</time>
      </trkpt>
      <trkpt lat="61.5723905805" lon="8.73123222962">
        <ele>1310.9</ele>
        <time>2012-08-09T10:59:20Z</time>
      </trkpt>
      <trkpt lat="61.5724335797" lon="8.73120565899">
        <ele>1311.38</ele>
        <time>2012-08-09T10:59:35Z</time>
      </trkpt>
      <trkpt lat="61.572484877" lon="8.73113944195">
        <ele>1313.3</ele>
        <time>2012-08-09T10:59:47Z</time>
      </trkpt>
      <trkpt lat="61.5725141298" lon="8.73111681081">
        <ele>1313.78</ele>
        <time>2012-08-09T10:59:57Z</time>
      </trkpt>
      <trkpt lat="61.5726496652" lon="8.73110893182">
        <ele>1312.34</ele>
        <time>2012-08-09T11:00:11Z</time>
      </trkpt>
      <trkpt lat="61.5727224201" lon="8.73109091073">
        <ele>1314.26</ele>
        <time>2012-08-09T11:00:25Z</time>
      </trkpt>
      <trkpt lat="61.5726802591" lon="8.73101689853">
        <ele>1313.78</ele>
        <time>2012-08-09T11:00:42Z</time>
      </trkpt>
      <trkpt lat="61.5726992022" lon="8.73109468259">
        <ele>1313.78</ele>
        <time>2012-08-09T11:00:56Z</time>
      </trkpt>
      <trkpt lat="61.5727297962" lon="8.73120909557">
        <ele>1313.3</ele>
        <time>2012-08-09T11:01:15Z</time>
      </trkpt>
      <trkpt lat="61.5727499127" lon="8.73135980219">
        <ele>1312.82</ele>
        <time>2012-08-09T11:01:31Z</time>
      </trkpt>
      <trkpt lat="61.5727528464" lon="8.73138159513">
        <ele>1314.26</ele>
        <time>2012-08-09T11:01:45Z</time>
      </trkpt>
      <trkpt lat="61.5727545228" lon="8.73130037449">
        <ele>1313.78</ele>
        <time>2012-08-09T11:02:13Z</time>
      </trkpt>
      <trkpt lat="61.5727546066" lon="8.73132795095">
        <ele>1314.26</ele>
        <time>2012-08-09T11:02:44Z</time>
      </trkpt>
      <trkpt lat="61.5727316402" lon="8.73138260096">
        <ele>1314.26</ele>
        <time>2012-08-09T11:03:07Z</time>
      </trkpt>
      <trkpt lat="61.5727277007" lon="8.73135535978">
        <ele>1314.26</ele>
        <time>2012-08-09T11:03:34Z</time>
      </trkpt>
      <trkpt lat="61.5727160498" lon="8.7314228341">
        <ele>1314.74</ele>
        <time>2012-08-09T11:04:03Z</time>
      </trkpt>
      <trkpt lat="61.5727132838" lon="8.73151344247">
        <ele>1314.26</ele>
        <time>2012-08-09T11:04:25Z</time>
      </trkpt>
      <trkpt lat="61.572694676" lon="8.73151771724">
        <ele>1314.26</ele>
        <time>2012-08-09T11:04:48Z</time>
      </trkpt>
      <trkpt lat="61.5726922452" lon="8.73153096065">
        <ele>1314.26</ele>
        <time>2012-08-09T11:05:10Z</time>
      </trkpt>
      <trkpt lat="61.5726942569" lon="8.73153422959">
        <ele>1313.78</ele>
        <time>2012-08-09T11:05:35Z</time>
      </trkpt>
      <trkpt lat="61.5726924967" lon="8.73151671141">
        <ele>1313.78</ele>
        <time>2012-08-09T11:05:54Z</time>
      </trkpt>
      <trkpt lat="61.5726513416" lon="8.73148921877">
        <ele>1314.26</ele>
        <time>2012-08-09T11:06:07Z</time>
      </trkpt>
      <trkpt lat="61.5725982003" lon="8.73155778274">
        <ele>1312.82</ele>
        <time>2012-08-09T11:06:19Z</time>
      </trkpt>
      <trkpt lat="61.572572384" lon="8.73162659816">
        <ele>1313.78</ele>
        <time>2012-08-09T11:06:32Z</time>
      </trkpt>
      <trkpt lat="61.5725515969" lon="8.73162089847">
        <ele>1314.26</ele>
        <time>2012-08-09T11:06:45Z</time>
      </trkpt>
      <trkpt lat="61.5725342464" lon="8.73169474304">
        <ele>1313.78</ele>
        <time>2012-08-09T11:07:01Z</time>
      </trkpt>
      <trkpt lat="61.5724958573" lon="8.73170094565">
        <ele>1314.26</ele>
        <time>2012-08-09T11:07:07Z</time>
      </trkpt>
      <trkpt lat="61.5724422969" lon="8.73179264367">
        <ele>1312.82</ele>
        <time>2012-08-09T11:07:14Z</time>
      </trkpt>
      <trkpt lat="61.5724224318" lon="8.73183212243">
        <ele>1313.3</ele>
        <time>2012-08-09T11:07:17Z</time>
      </trkpt>
      <trkpt lat="61.5723823663" lon="8.73195407912">
        <ele>1313.78</ele>
        <time>2012-08-09T11:07:25Z</time>
      </trkpt>
      <trkpt lat="61.5722540393" lon="8.73219983652">
        <ele>1311.38</ele>
        <time>2012-08-09T11:07:39Z</time>
      </trkpt>
      <trkpt lat="61.5722279716" lon="8.73238373548">
        <ele>1312.34</ele>
        <time>2012-08-09T11:07:51Z</time>
      </trkpt>
      <trkpt lat="61.5722302347" lon="8.73244794086">
        <ele>1312.34</ele>
        <time>2012-08-09T11:08:14Z</time>
      </trkpt>
      <trkpt lat="61.5722432267" lon="8.73244182207">
        <ele>1312.34</ele>
        <time>2012-08-09T11:08:39Z</time>
      </trkpt>
      <trkpt lat="61.5721959528" lon="8.73248138465">
        <ele>1311.86</ele>
        <time>2012-08-09T11:08:53Z</time>
      </trkpt>
      <trkpt lat="61.5721456613" lon="8.73263016343">
        <ele>1311.86</ele>
        <time>2012-08-09T11:09:07Z</time>
      </trkpt>
      <trkpt lat="61.5721356869" lon="8.73265933245">
        <ele>1310.9</ele>
        <time>2012-08-09T11:09:11Z</time>
      </trkpt>
      <trkpt lat="61.5721219406" lon="8.73265715316">
        <ele>1310.9</ele>
        <time>2012-08-09T11:09:13Z</time>
      </trkpt>
      <trkpt lat="61.5720896702" lon="8.73270501383">
        <ele>1309.93</ele>
        <time>2012-08-09T11:09:18Z</time>
      </trkpt>
      <trkpt lat="61.5720686316" lon="8.73271800578">
        <ele>1309.45</ele>
        <time>2012-08-09T11:09:21Z</time>
      </trkpt>
      <trkpt lat="61.5719748382" lon="8.732820265">
        <ele>1308.01</ele>
        <time>2012-08-09T11:09:36Z</time>
      </trkpt>
      <trkpt lat="61.5719365329" lon="8.73289796524">
        <ele>1307.05</ele>
        <time>2012-08-09T11:09:44Z</time>
      </trkpt>
      <trkpt lat="61.5718795359" lon="8.73305831105">
        <ele>1306.57</ele>
        <time>2012-08-09T11:09:57Z</time>
      </trkpt>
      <trkpt lat="61.5718196891" lon="8.73320197687">
        <ele>1304.17</ele>
        <time>2012-08-09T11:10:07Z</time>
      </trkpt>
      <trkpt lat="61.5717986505" lon="8.73321647756">
        <ele>1303.69</ele>
        <time>2012-08-09T11:10:10Z</time>
      </trkpt>
      <trkpt lat="61.571738217" lon="8.73330264352">
        <ele>1302.24</ele>
        <time>2012-08-09T11:10:23Z</time>
      </trkpt>
      <trkpt lat="61.5717018396" lon="8.73329518363">
        <ele>1301.76</ele>
        <time>2012-08-09T11:10:27Z</time>
      </trkpt>
      <trkpt lat="61.5716357902" lon="8.73338604346">
        <ele>1300.32</ele>
        <time>2012-08-09T11:10:36Z</time>
      </trkpt>
      <trkpt lat="61.5715524741" lon="8.73344337568">
        <ele>1297.44</ele>
        <time>2012-08-09T11:10:49Z</time>
      </trkpt>
      <trkpt lat="61.5714767016" lon="8.73354027048">
        <ele>1295.99</ele>
        <time>2012-08-09T11:10:58Z</time>
      </trkpt>
      <trkpt lat="61.5713674854" lon="8.73376130126">
        <ele>1294.55</ele>
        <time>2012-08-09T11:11:14Z</time>
      </trkpt>
      <trkpt lat="61.5712989215" lon="8.73394193128">
        <ele>1292.15</ele>
        <time>2012-08-09T11:11:27Z</time>
      </trkpt>
      <trkpt lat="61.5712589398" lon="8.7340477109">
        <ele>1291.67</ele>
        <time>2012-08-09T11:11:34Z</time>
      </trkpt>
      <trkpt lat="61.5712232329" lon="8.73414401896">
        <ele>1291.19</ele>
        <time>2012-08-09T11:11:41Z</time>
      </trkpt>
      <trkpt lat="61.5711529925" lon="8.7343049515">
        <ele>1288.3</ele>
        <time>2012-08-09T11:11:54Z</time>
      </trkpt>
      <trkpt lat="61.5711446945" lon="8.73431215994">
        <ele>1288.3</ele>
        <time>2012-08-09T11:11:55Z</time>
      </trkpt>
      <trkpt lat="61.5711049642" lon="8.73435893096">
        <ele>1286.86</ele>
        <time>2012-08-09T11:12:00Z</time>
      </trkpt>
      <trkpt lat="61.5710048005" lon="8.73459530063">
        <ele>1285.9</ele>
        <time>2012-08-09T11:12:13Z</time>
      </trkpt>
      <trkpt lat="61.570978146" lon="8.73468582518">
        <ele>1284.94</ele>
        <time>2012-08-09T11:12:18Z</time>
      </trkpt>
      <trkpt lat="61.5709318779" lon="8.73476260342">
        <ele>1284.94</ele>
        <time>2012-08-09T11:12:25Z</time>
      </trkpt>
      <trkpt lat="61.5708447061" lon="8.73502034694">
        <ele>1283.02</ele>
        <time>2012-08-09T11:12:40Z</time>
      </trkpt>
      <trkpt lat="61.5707794949" lon="8.73513911851">
        <ele>1282.54</ele>
        <time>2012-08-09T11:12:59Z</time>
      </trkpt>
      <trkpt lat="61.5707682632" lon="8.73512973078">
        <ele>1282.06</ele>
        <time>2012-08-09T11:13:01Z</time>
      </trkpt>
      <trkpt lat="61.570705818" lon="8.73516283929">
        <ele>1280.61</ele>
        <time>2012-08-09T11:13:14Z</time>
      </trkpt>
      <trkpt lat="61.5707079135" lon="8.73519083485">
        <ele>1280.13</ele>
        <time>2012-08-09T11:13:35Z</time>
      </trkpt>
      <trkpt lat="61.57071881" lon="8.73518404551">
        <ele>1280.13</ele>
        <time>2012-08-09T11:14:05Z</time>
      </trkpt>
      <trkpt lat="61.5707194805" lon="8.73513450846">
        <ele>1280.61</ele>
        <time>2012-08-09T11:14:26Z</time>
      </trkpt>
      <trkpt lat="61.5706956759" lon="8.73511648737">
        <ele>1280.61</ele>
        <time>2012-08-09T11:14:53Z</time>
      </trkpt>
      <trkpt lat="61.5706964303" lon="8.73507181183">
        <ele>1280.61</ele>
        <time>2012-08-09T11:15:23Z</time>
      </trkpt>
      <trkpt lat="61.5706919879" lon="8.73504415154">
        <ele>1280.61</ele>
        <time>2012-08-09T11:15:53Z</time>
      </trkpt>
      <trkpt lat="61.5707029682" lon="8.73506049626">
        <ele>1280.61</ele>
        <time>2012-08-09T11:16:08Z</time>
      </trkpt>
      <trkpt lat="61.5706953406" lon="8.7350496836">
        <ele>1280.61</ele>
        <time>2012-08-09T11:16:42Z</time>
      </trkpt>
      <trkpt lat="61.5706972685" lon="8.73505588621">
        <ele>1281.09</ele>
        <time>2012-08-09T11:17:20Z</time>
      </trkpt>
      <trkpt lat="61.5706907306" lon="8.7350289803">
        <ele>1280.61</ele>
        <time>2012-08-09T11:17:56Z</time>
      </trkpt>
      <trkpt lat="61.5707054827" lon="8.7351311557">
        <ele>1280.61</ele>
        <time>2012-08-09T11:18:27Z</time>
      </trkpt>
      <trkpt lat="61.570687294" lon="8.73510181904">
        <ele>1281.09</ele>
        <time>2012-08-09T11:18:36Z</time>
      </trkpt>
      <trkpt lat="61.570645133" lon="8.73510290869">
        <ele>1279.65</ele>
        <time>2012-08-09T11:18:40Z</time>
      </trkpt>
      <trkpt lat="61.5705520939" lon="8.73510349542">
        <ele>1276.29</ele>
        <time>2012-08-09T11:18:54Z</time>
      </trkpt>
      <trkpt lat="61.5705253556" lon="8.73522402719">
        <ele>1275.33</ele>
        <time>2012-08-09T11:19:06Z</time>
      </trkpt>
      <trkpt lat="61.5704431292" lon="8.73529158533">
        <ele>1273.88</ele>
        <time>2012-08-09T11:19:19Z</time>
      </trkpt>
      <trkpt lat="61.5703845397" lon="8.73535838909">
        <ele>1272.92</ele>
        <time>2012-08-09T11:19:32Z</time>
      </trkpt>
      <trkpt lat="61.5703935083" lon="8.73542334884">
        <ele>1272.92</ele>
        <time>2012-08-09T11:19:46Z</time>
      </trkpt>
      <trkpt lat="61.5703089349" lon="8.73542594723">
        <ele>1272.44</ele>
        <time>2012-08-09T11:20:00Z</time>
      </trkpt>
      <trkpt lat="61.5702177398" lon="8.73548562638">
        <ele>1270.52</ele>
        <time>2012-08-09T11:20:14Z</time>
      </trkpt>
      <trkpt lat="61.5702048317" lon="8.73549015261">
        <ele>1269.56</ele>
        <time>2012-08-09T11:20:16Z</time>
      </trkpt>
      <trkpt lat="61.5701604914" lon="8.73550582677">
        <ele>1270.04</ele>
        <time>2012-08-09T11:20:21Z</time>
      </trkpt>
      <trkpt lat="61.5700694639" lon="8.73559651896">
        <ele>1268.12</ele>
        <time>2012-08-09T11:20:35Z</time>
      </trkpt>
      <trkpt lat="61.5699997265" lon="8.73569374904">
        <ele>1268.12</ele>
        <time>2012-08-09T11:20:48Z</time>
      </trkpt>
      <trkpt lat="61.5699511953" lon="8.73582635075">
        <ele>1266.19</ele>
        <time>2012-08-09T11:21:01Z</time>
      </trkpt>
      <trkpt lat="61.5698623471" lon="8.73596515507">
        <ele>1265.23</ele>
        <time>2012-08-09T11:21:13Z</time>
      </trkpt>
      <trkpt lat="61.5698211081" lon="8.73604084365">
        <ele>1264.27</ele>
        <time>2012-08-09T11:21:19Z</time>
      </trkpt>
      <trkpt lat="61.5697439946" lon="8.73615886085">
        <ele>1261.87</ele>
        <time>2012-08-09T11:21:35Z</time>
      </trkpt>
      <trkpt lat="61.5696929488" lon="8.7362167798">
        <ele>1261.39</ele>
        <time>2012-08-09T11:21:43Z</time>
      </trkpt>
      <trkpt lat="61.5696194395" lon="8.7362925522">
        <ele>1260.43</ele>
        <time>2012-08-09T11:21:51Z</time>
      </trkpt>
      <trkpt lat="61.5695258975" lon="8.73642238788">
        <ele>1258.98</ele>
        <time>2012-08-09T11:22:05Z</time>
      </trkpt>
      <trkpt lat="61.5694360435" lon="8.73664978892">
        <ele>1257.54</ele>
        <time>2012-08-09T11:22:21Z</time>
      </trkpt>
      <trkpt lat="61.5694120713" lon="8.73667049222">
        <ele>1256.58</ele>
        <time>2012-08-09T11:22:25Z</time>
      </trkpt>
      <trkpt lat="61.5693513863" lon="8.73671743087">
        <ele>1255.62</ele>
        <time>2012-08-09T11:22:33Z</time>
      </trkpt>
      <trkpt lat="61.5692391526" lon="8.73681298457">
        <ele>1254.18</ele>
        <time>2012-08-09T11:22:47Z</time>
      </trkpt>
      <trkpt lat="61.5691761207" lon="8.73684508726">
        <ele>1253.7</ele>
        <time>2012-08-09T11:22:54Z</time>
      </trkpt>
      <trkpt lat="61.5690363944" lon="8.73703577556">
        <ele>1252.74</ele>
        <time>2012-08-09T11:23:10Z</time>
      </trkpt>
      <trkpt lat="61.5689016134" lon="8.7372279726">
        <ele>1251.29</ele>
        <time>2012-08-09T11:23:25Z</time>
      </trkpt>
      <trkpt lat="61.5688326303" lon="8.73738915659">
        <ele>1250.33</ele>
        <time>2012-08-09T11:23:37Z</time>
      </trkpt>
      <trkpt lat="61.5688203089" lon="8.7374305632">
        <ele>1250.33</ele>
        <time>2012-08-09T11:23:41Z</time>
      </trkpt>
      <trkpt lat="61.5687778965" lon="8.7376384344">
        <ele>1249.85</ele>
        <time>2012-08-09T11:23:53Z</time>
      </trkpt>
      <trkpt lat="61.5687317122" lon="8.73776466586">
        <ele>1248.89</ele>
        <time>2012-08-09T11:24:03Z</time>
      </trkpt>
      <trkpt lat="61.568703549" lon="8.73802190647">
        <ele>1248.89</ele>
        <time>2012-08-09T11:24:16Z</time>
      </trkpt>
      <trkpt lat="61.5686554369" lon="8.73821821064">
        <ele>1248.89</ele>
        <time>2012-08-09T11:24:27Z</time>
      </trkpt>
      <trkpt lat="61.5685582068" lon="8.73846036382">
        <ele>1247.45</ele>
        <time>2012-08-09T11:24:42Z</time>
      </trkpt>
      <trkpt lat="61.5684815124" lon="8.73866739683">
        <ele>1246.49</ele>
        <time>2012-08-09T11:24:53Z</time>
      </trkpt>
      <trkpt lat="61.5684727114" lon="8.73870922253">
        <ele>1246.01</ele>
        <time>2012-08-09T11:24:55Z</time>
      </trkpt>
      <trkpt lat="61.5684356634" lon="8.7388222944">
        <ele>1245.53</ele>
        <time>2012-08-09T11:25:03Z</time>
      </trkpt>
      <trkpt lat="61.5683600586" lon="8.73904961161">
        <ele>1244.08</ele>
        <time>2012-08-09T11:25:16Z</time>
      </trkpt>
      <trkpt lat="61.5682876389" lon="8.73917659745">
        <ele>1242.64</ele>
        <time>2012-08-09T11:25:28Z</time>
      </trkpt>
      <trkpt lat="61.5682132915" lon="8.73938572593">
        <ele>1240.72</ele>
        <time>2012-08-09T11:25:43Z</time>
      </trkpt>
      <trkpt lat="61.5681174863" lon="8.73963978142">
        <ele>1239.28</ele>
        <time>2012-08-09T11:25:57Z</time>
      </trkpt>
      <trkpt lat="61.5681053326" lon="8.73968579806">
        <ele>1237.83</ele>
        <time>2012-08-09T11:26:04Z</time>
      </trkpt>
      <trkpt lat="61.5680611599" lon="8.73972393572">
        <ele>1237.83</ele>
        <time>2012-08-09T11:26:21Z</time>
      </trkpt>
      <trkpt lat="61.56806577" lon="8.73977129348">
        <ele>1237.83</ele>
        <time>2012-08-09T11:26:45Z</time>
      </trkpt>
      <trkpt lat="61.5680300631" lon="8.73980599456">
        <ele>1238.32</ele>
        <time>2012-08-09T11:27:04Z</time>
      </trkpt>
      <trkpt lat="61.5679330006" lon="8.73986894265">
        <ele>1238.32</ele>
        <time>2012-08-09T11:27:21Z</time>
      </trkpt>
      <trkpt lat="61.5678392071" lon="8.7400008738">
        <ele>1236.87</ele>
        <time>2012-08-09T11:27:37Z</time>
      </trkpt>
      <trkpt lat="61.5677759238" lon="8.74012886547">
        <ele>1235.91</ele>
        <time>2012-08-09T11:27:46Z</time>
      </trkpt>
      <trkpt lat="61.5677112155" lon="8.74028937891">
        <ele>1235.43</ele>
        <time>2012-08-09T11:27:56Z</time>
      </trkpt>
      <trkpt lat="61.5676321741" lon="8.74045324512">
        <ele>1235.43</ele>
        <time>2012-08-09T11:28:07Z</time>
      </trkpt>
      <trkpt lat="61.5675149951" lon="8.74063563533">
        <ele>1233.03</ele>
        <time>2012-08-09T11:28:21Z</time>
      </trkpt>
      <trkpt lat="61.5674303379" lon="8.74067980796">
        <ele>1232.55</ele>
        <time>2012-08-09T11:28:33Z</time>
      </trkpt>
      <trkpt lat="61.5673822258" lon="8.74072691426">
        <ele>1232.55</ele>
        <time>2012-08-09T11:28:38Z</time>
      </trkpt>
      <trkpt lat="61.5673110634" lon="8.74088474549">
        <ele>1230.14</ele>
        <time>2012-08-09T11:28:51Z</time>
      </trkpt>
      <trkpt lat="61.5672814753" lon="8.74093009159">
        <ele>1229.66</ele>
        <time>2012-08-09T11:28:55Z</time>
      </trkpt>
      <trkpt lat="61.5672243107" lon="8.74109018594">
        <ele>1228.7</ele>
        <time>2012-08-09T11:29:07Z</time>
      </trkpt>
      <trkpt lat="61.5671134181" lon="8.74130115844">
        <ele>1228.22</ele>
        <time>2012-08-09T11:29:21Z</time>
      </trkpt>
      <trkpt lat="61.5670769569" lon="8.74141800217">
        <ele>1227.26</ele>
        <time>2012-08-09T11:29:29Z</time>
      </trkpt>
      <trkpt lat="61.5670475364" lon="8.74146242626">
        <ele>1226.78</ele>
        <time>2012-08-09T11:29:33Z</time>
      </trkpt>
      <trkpt lat="61.5670252405" lon="8.7415141426">
        <ele>1226.3</ele>
        <time>2012-08-09T11:29:37Z</time>
      </trkpt>
      <trkpt lat="61.5669955686" lon="8.74157390557">
        <ele>1224.86</ele>
        <time>2012-08-09T11:29:42Z</time>
      </trkpt>
      <trkpt lat="61.5669665672" lon="8.74166493304">
        <ele>1224.86</ele>
        <time>2012-08-09T11:29:48Z</time>
      </trkpt>
      <trkpt lat="61.5668815747" lon="8.74193751253">
        <ele>1223.9</ele>
        <time>2012-08-09T11:30:03Z</time>
      </trkpt>
      <trkpt lat="61.5668717679" lon="8.74199316837">
        <ele>1223.42</ele>
        <time>2012-08-09T11:30:06Z</time>
      </trkpt>
      <trkpt lat="61.5668239072" lon="8.74206969514">
        <ele>1222.93</ele>
        <time>2012-08-09T11:30:14Z</time>
      </trkpt>
      <trkpt lat="61.566800857" lon="8.74207271263">
        <ele>1222.45</ele>
        <time>2012-08-09T11:30:17Z</time>
      </trkpt>
      <trkpt lat="61.5667771362" lon="8.74210489914">
        <ele>1222.45</ele>
        <time>2012-08-09T11:30:21Z</time>
      </trkpt>
      <trkpt lat="61.5666815825" lon="8.74219525605">
        <ele>1221.97</ele>
        <time>2012-08-09T11:30:32Z</time>
      </trkpt>
      <trkpt lat="61.5666014515" lon="8.74229718">
        <ele>1221.49</ele>
        <time>2012-08-09T11:30:45Z</time>
      </trkpt>
      <trkpt lat="61.5665640682" lon="8.74236079864">
        <ele>1221.01</ele>
        <time>2012-08-09T11:30:51Z</time>
      </trkpt>
      <trkpt lat="61.5665036347" lon="8.74246205203">
        <ele>1221.01</ele>
        <time>2012-08-09T11:31:05Z</time>
      </trkpt>
      <trkpt lat="61.5665098373" lon="8.74248200096">
        <ele>1221.01</ele>
        <time>2012-08-09T11:31:20Z</time>
      </trkpt>
      <trkpt lat="61.5665038861" lon="8.74249256216">
        <ele>1220.53</ele>
        <time>2012-08-09T11:31:54Z</time>
      </trkpt>
      <trkpt lat="61.5664948337" lon="8.74251309782">
        <ele>1220.53</ele>
        <time>2012-08-09T11:32:26Z</time>
      </trkpt>
      <trkpt lat="61.5665084962" lon="8.74250479974">
        <ele>1221.01</ele>
        <time>2012-08-09T11:32:51Z</time>
      </trkpt>
      <trkpt lat="61.566504389" lon="8.74252072535">
        <ele>1220.53</ele>
        <time>2012-08-09T11:33:22Z</time>
      </trkpt>
      <trkpt lat="61.5665017068" lon="8.7425874453">
        <ele>1220.53</ele>
        <time>2012-08-09T11:33:50Z</time>
      </trkpt>
      <trkpt lat="61.5665038861" lon="8.7425689213">
        <ele>1221.01</ele>
        <time>2012-08-09T11:34:10Z</time>
      </trkpt>
      <trkpt lat="61.5665139444" lon="8.74254964292">
        <ele>1221.01</ele>
        <time>2012-08-09T11:34:23Z</time>
      </trkpt>
      <trkpt lat="61.5665017068" lon="8.74255727045">
        <ele>1221.01</ele>
        <time>2012-08-09T11:34:51Z</time>
      </trkpt>
      <trkpt lat="61.566510424" lon="8.74255240895">
        <ele>1220.53</ele>
        <time>2012-08-09T11:35:14Z</time>
      </trkpt>
      <trkpt lat="61.5665352345" lon="8.74248811975">
        <ele>1220.53</ele>
        <time>2012-08-09T11:35:27Z</time>
      </trkpt>
      <trkpt lat="61.5665329713" lon="8.74248107895">
        <ele>1220.53</ele>
        <time>2012-08-09T11:35:50Z</time>
      </trkpt>
      <trkpt lat="61.5665378328" lon="8.74245903455">
        <ele>1220.53</ele>
        <time>2012-08-09T11:36:17Z</time>
      </trkpt>
      <trkpt lat="61.5665262658" lon="8.74250555411">
        <ele>1220.05</ele>
        <time>2012-08-09T11:36:35Z</time>
      </trkpt>
      <trkpt lat="61.5665318817" lon="8.74250982888">
        <ele>1220.53</ele>
        <time>2012-08-09T11:37:00Z</time>
      </trkpt>
      <trkpt lat="61.5665420238" lon="8.74250412919">
        <ele>1221.01</ele>
        <time>2012-08-09T11:37:19Z</time>
      </trkpt>
      <trkpt lat="61.5665348992" lon="8.74246347696">
        <ele>1220.53</ele>
        <time>2012-08-09T11:37:33Z</time>
      </trkpt>
      <trkpt lat="61.5664867032" lon="8.74254243448">
        <ele>1220.53</ele>
        <time>2012-08-09T11:37:46Z</time>
      </trkpt>
      <trkpt lat="61.5664026327" lon="8.74270336702">
        <ele>1220.05</ele>
        <time>2012-08-09T11:38:00Z</time>
      </trkpt>
      <trkpt lat="61.56628998" lon="8.7428754475">
        <ele>1219.57</ele>
        <time>2012-08-09T11:38:16Z</time>
      </trkpt>
      <trkpt lat="61.5662305523" lon="8.74296806753">
        <ele>1218.61</ele>
        <time>2012-08-09T11:38:29Z</time>
      </trkpt>
      <trkpt lat="61.566133406" lon="8.74317987822">
        <ele>1219.09</ele>
        <time>2012-08-09T11:38:42Z</time>
      </trkpt>
      <trkpt lat="61.5661249403" lon="8.74319572002">
        <ele>1219.09</ele>
        <time>2012-08-09T11:38:43Z</time>
      </trkpt>
      <trkpt lat="61.5660148859" lon="8.74331868254">
        <ele>1219.09</ele>
        <time>2012-08-09T11:38:56Z</time>
      </trkpt>
      <trkpt lat="61.5659750719" lon="8.74345136806">
        <ele>1218.61</ele>
        <time>2012-08-09T11:39:05Z</time>
      </trkpt>
      <trkpt lat="61.5659049992" lon="8.74363292009">
        <ele>1216.21</ele>
        <time>2012-08-09T11:39:19Z</time>
      </trkpt>
      <trkpt lat="61.5658447333" lon="8.74370601028">
        <ele>1214.28</ele>
        <time>2012-08-09T11:39:31Z</time>
      </trkpt>
      <trkpt lat="61.565725375" lon="8.74396383762">
        <ele>1212.36</ele>
        <time>2012-08-09T11:39:46Z</time>
      </trkpt>
      <trkpt lat="61.5656720661" lon="8.74416416511">
        <ele>1212.36</ele>
        <time>2012-08-09T11:39:56Z</time>
      </trkpt>
      <trkpt lat="61.565608196" lon="8.74430472963">
        <ele>1210.44</ele>
        <time>2012-08-09T11:40:10Z</time>
      </trkpt>
      <trkpt lat="61.5655917674" lon="8.74432392418">
        <ele>1209.48</ele>
        <time>2012-08-09T11:40:19Z</time>
      </trkpt>
      <trkpt lat="61.5655662864" lon="8.74437731691">
        <ele>1209.48</ele>
        <time>2012-08-09T11:40:23Z</time>
      </trkpt>
      <trkpt lat="61.5654911846" lon="8.74453221448">
        <ele>1209</ele>
        <time>2012-08-09T11:40:33Z</time>
      </trkpt>
      <trkpt lat="61.5653873328" lon="8.74487243593">
        <ele>1208.03</ele>
        <time>2012-08-09T11:40:50Z</time>
      </trkpt>
      <trkpt lat="61.5653637797" lon="8.74488794245">
        <ele>1207.55</ele>
        <time>2012-08-09T11:40:53Z</time>
      </trkpt>
      <trkpt lat="61.565216342" lon="8.74508349225">
        <ele>1208.03</ele>
        <time>2012-08-09T11:41:09Z</time>
      </trkpt>
      <trkpt lat="61.5651134122" lon="8.74532547779">
        <ele>1206.59</ele>
        <time>2012-08-09T11:41:24Z</time>
      </trkpt>
      <trkpt lat="61.5650591813" lon="8.74541508034">
        <ele>1206.59</ele>
        <time>2012-08-09T11:41:34Z</time>
      </trkpt>
      <trkpt lat="61.5650392324" lon="8.7454184331">
        <ele>1206.59</ele>
        <time>2012-08-09T11:41:36Z</time>
      </trkpt>
      <trkpt lat="61.5649427567" lon="8.74568615109">
        <ele>1207.55</ele>
        <time>2012-08-09T11:41:51Z</time>
      </trkpt>
      <trkpt lat="61.5648329537" lon="8.74592872337">
        <ele>1207.55</ele>
        <time>2012-08-09T11:42:07Z</time>
      </trkpt>
      <trkpt lat="61.5647414234" lon="8.74618428759">
        <ele>1207.07</ele>
        <time>2012-08-09T11:42:23Z</time>
      </trkpt>
      <trkpt lat="61.5647305269" lon="8.74628847465">
        <ele>1207.55</ele>
        <time>2012-08-09T11:42:30Z</time>
      </trkpt>
      <trkpt lat="61.5647132602" lon="8.74665669166">
        <ele>1208.03</ele>
        <time>2012-08-09T11:42:46Z</time>
      </trkpt>
      <trkpt lat="61.5647063032" lon="8.74689155258">
        <ele>1207.55</ele>
        <time>2012-08-09T11:42:59Z</time>
      </trkpt>
      <trkpt lat="61.5646900423" lon="8.74702499248">
        <ele>1207.07</ele>
        <time>2012-08-09T11:43:05Z</time>
      </trkpt>
      <trkpt lat="61.5646493062" lon="8.74720972963">
        <ele>1207.07</ele>
        <time>2012-08-09T11:43:14Z</time>
      </trkpt>
      <trkpt lat="61.5645278525" lon="8.74744894914">
        <ele>1206.11</ele>
        <time>2012-08-09T11:43:30Z</time>
      </trkpt>
      <trkpt lat="61.5644607972" lon="8.74756813981">
        <ele>1204.67</ele>
        <time>2012-08-09T11:43:40Z</time>
      </trkpt>
      <trkpt lat="61.5643587057" lon="8.74772923999">
        <ele>1203.23</ele>
        <time>2012-08-09T11:43:52Z</time>
      </trkpt>
      <trkpt lat="61.5642390959" lon="8.74778556637">
        <ele>1201.79</ele>
        <time>2012-08-09T11:44:06Z</time>
      </trkpt>
      <trkpt lat="61.5641823504" lon="8.74778380617">
        <ele>1201.3</ele>
        <time>2012-08-09T11:44:11Z</time>
      </trkpt>
      <trkpt lat="61.5640766546" lon="8.74786184169">
        <ele>1199.86</ele>
        <time>2012-08-09T11:44:24Z</time>
      </trkpt>
      <trkpt lat="61.5640376788" lon="8.74791992828">
        <ele>1199.38</ele>
        <time>2012-08-09T11:44:34Z</time>
      </trkpt>
      <trkpt lat="61.5640114434" lon="8.7480133865">
        <ele>1199.38</ele>
        <time>2012-08-09T11:44:48Z</time>
      </trkpt>
      <trkpt lat="61.5640183166" lon="8.74805496074">
        <ele>1199.38</ele>
        <time>2012-08-09T11:45:02Z</time>
      </trkpt>
      <trkpt lat="61.5640084259" lon="8.74806946144">
        <ele>1198.9</ele>
        <time>2012-08-09T11:45:21Z</time>
      </trkpt>
      <trkpt lat="61.5640090965" lon="8.74802595936">
        <ele>1198.42</ele>
        <time>2012-08-09T11:45:38Z</time>
      </trkpt>
      <trkpt lat="61.5640045702" lon="8.74802470207">
        <ele>1198.42</ele>
        <time>2012-08-09T11:46:11Z</time>
      </trkpt>
      <trkpt lat="61.5640089288" lon="8.74803777784">
        <ele>1199.86</ele>
        <time>2012-08-09T11:46:32Z</time>
      </trkpt>
      <trkpt lat="61.5639982838" lon="8.748017326">
        <ele>1198.9</ele>
        <time>2012-08-09T11:47:00Z</time>
      </trkpt>
      <trkpt lat="61.5639938414" lon="8.74806250446">
        <ele>1198.9</ele>
        <time>2012-08-09T11:47:16Z</time>
      </trkpt>
      <trkpt lat="61.5640168078" lon="8.74808739871">
        <ele>1199.38</ele>
        <time>2012-08-09T11:47:33Z</time>
      </trkpt>
      <trkpt lat="61.564007923" lon="8.7481190823">
        <ele>1198.9</ele>
        <time>2012-08-09T11:48:00Z</time>
      </trkpt>
      <trkpt lat="61.5640131198" lon="8.74812796712">
        <ele>1199.86</ele>
        <time>2012-08-09T11:48:27Z</time>
      </trkpt>
      <trkpt lat="61.5639976133" lon="8.74809695408">
        <ele>1199.86</ele>
        <time>2012-08-09T11:48:42Z</time>
      </trkpt>
      <trkpt lat="61.5638547856" lon="8.74829283915">
        <ele>1198.9</ele>
        <time>2012-08-09T11:48:56Z</time>
      </trkpt>
      <trkpt lat="61.5637645125" lon="8.74842627905">
        <ele>1199.38</ele>
        <time>2012-08-09T11:49:09Z</time>
      </trkpt>
      <trkpt lat="61.5637635067" lon="8.74847112224">
        <ele>1198.9</ele>
        <time>2012-08-09T11:49:11Z</time>
      </trkpt>
      <trkpt lat="61.5637521073" lon="8.74853239395">
        <ele>1197.94</ele>
        <time>2012-08-09T11:49:15Z</time>
      </trkpt>
      <trkpt lat="61.5636779275" lon="8.74864110723">
        <ele>1196.02</ele>
        <time>2012-08-09T11:49:28Z</time>
      </trkpt>
      <trkpt lat="61.5636498481" lon="8.74872098677">
        <ele>1195.06</ele>
        <time>2012-08-09T11:49:42Z</time>
      </trkpt>
      <trkpt lat="61.5636500996" lon="8.74870372005">
        <ele>1195.54</ele>
        <time>2012-08-09T11:49:57Z</time>
      </trkpt>
      <trkpt lat="61.563637862" lon="8.74866524711">
        <ele>1195.54</ele>
        <time>2012-08-09T11:50:15Z</time>
      </trkpt>
      <trkpt lat="61.5636495128" lon="8.74868134037">
        <ele>1195.06</ele>
        <time>2012-08-09T11:50:35Z</time>
      </trkpt>
      <trkpt lat="61.5636107046" lon="8.7487299554">
        <ele>1194.58</ele>
        <time>2012-08-09T11:50:55Z</time>
      </trkpt>
      <trkpt lat="61.5635341778" lon="8.7488620542">
        <ele>1194.09</ele>
        <time>2012-08-09T11:51:04Z</time>
      </trkpt>
      <trkpt lat="61.5635282267" lon="8.74892676249">
        <ele>1194.09</ele>
        <time>2012-08-09T11:51:07Z</time>
      </trkpt>
      <trkpt lat="61.5634236205" lon="8.74910026789">
        <ele>1194.09</ele>
        <time>2012-08-09T11:51:21Z</time>
      </trkpt>
      <trkpt lat="61.5633970499" lon="8.7491373159">
        <ele>1194.58</ele>
        <time>2012-08-09T11:51:33Z</time>
      </trkpt>
      <trkpt lat="61.5633090399" lon="8.74920319766">
        <ele>1193.61</ele>
        <time>2012-08-09T11:51:46Z</time>
      </trkpt>
      <trkpt lat="61.5632782783" lon="8.7492553331">
        <ele>1193.61</ele>
        <time>2012-08-09T11:51:55Z</time>
      </trkpt>
      <trkpt lat="61.5632456727" lon="8.74931660481">
        <ele>1192.65</ele>
        <time>2012-08-09T11:51:59Z</time>
      </trkpt>
      <trkpt lat="61.5632094629" lon="8.74936044216">
        <ele>1192.17</ele>
        <time>2012-08-09T11:52:08Z</time>
      </trkpt>
      <trkpt lat="61.563194124" lon="8.74937946908">
        <ele>1191.69</ele>
        <time>2012-08-09T11:52:10Z</time>
      </trkpt>
      <trkpt lat="61.5631189384" lon="8.74950662255">
        <ele>1191.21</ele>
        <time>2012-08-09T11:52:24Z</time>
      </trkpt>
      <trkpt lat="61.5631129872" lon="8.74951877631">
        <ele>1191.21</ele>
        <time>2012-08-09T11:52:25Z</time>
      </trkpt>
      <trkpt lat="61.563059343" lon="8.74962564558">
        <ele>1190.73</ele>
        <time>2012-08-09T11:52:38Z</time>
      </trkpt>
      <trkpt lat="61.562992204" lon="8.74964861199">
        <ele>1190.25</ele>
        <time>2012-08-09T11:52:45Z</time>
      </trkpt>
      <trkpt lat="61.5629670583" lon="8.74963855371">
        <ele>1190.25</ele>
        <time>2012-08-09T11:52:47Z</time>
      </trkpt>
      <trkpt lat="61.5628348757" lon="8.7496552337">
        <ele>1190.25</ele>
        <time>2012-08-09T11:53:01Z</time>
      </trkpt>
      <trkpt lat="61.562805539" lon="8.74963302165">
        <ele>1189.77</ele>
        <time>2012-08-09T11:53:04Z</time>
      </trkpt>
      <trkpt lat="61.5626688302" lon="8.74969571829">
        <ele>1189.29</ele>
        <time>2012-08-09T11:53:19Z</time>
      </trkpt>
      <trkpt lat="61.5626162756" lon="8.7497710716">
        <ele>1188.33</ele>
        <time>2012-08-09T11:53:28Z</time>
      </trkpt>
      <trkpt lat="61.5625288524" lon="8.74974031001">
        <ele>1187.85</ele>
        <time>2012-08-09T11:53:36Z</time>
      </trkpt>
      <trkpt lat="61.5623926464" lon="8.74985162169">
        <ele>1187.85</ele>
        <time>2012-08-09T11:53:52Z</time>
      </trkpt>
      <trkpt lat="61.5622499865" lon="8.74992202967">
        <ele>1188.33</ele>
        <time>2012-08-09T11:54:07Z</time>
      </trkpt>
      <trkpt lat="61.5621872898" lon="8.75004800968">
        <ele>1187.85</ele>
        <time>2012-08-09T11:54:18Z</time>
      </trkpt>
      <trkpt lat="61.5620972682" lon="8.75024506822">
        <ele>1186.4</ele>
        <time>2012-08-09T11:54:31Z</time>
      </trkpt>
      <trkpt lat="61.5620448813" lon="8.75040533021">
        <ele>1185.44</ele>
        <time>2012-08-09T11:54:40Z</time>
      </trkpt>
      <trkpt lat="61.562031135" lon="8.75047439709">
        <ele>1184.48</ele>
        <time>2012-08-09T11:54:44Z</time>
      </trkpt>
      <trkpt lat="61.5620165505" lon="8.75054396689">
        <ele>1184.48</ele>
        <time>2012-08-09T11:54:48Z</time>
      </trkpt>
      <trkpt lat="61.5620000381" lon="8.75076575205">
        <ele>1183.04</ele>
        <time>2012-08-09T11:55:00Z</time>
      </trkpt>
      <trkpt lat="61.5619991161" lon="8.75082450919">
        <ele>1182.08</ele>
        <time>2012-08-09T11:55:03Z</time>
      </trkpt>
      <trkpt lat="61.5619522613" lon="8.7511209771">
        <ele>1181.12</ele>
        <time>2012-08-09T11:55:17Z</time>
      </trkpt>
      <trkpt lat="61.56188705" lon="8.75136924908">
        <ele>1181.12</ele>
        <time>2012-08-09T11:55:32Z</time>
      </trkpt>
      <trkpt lat="61.5618971083" lon="8.75137327239">
        <ele>1181.12</ele>
        <time>2012-08-09T11:55:38Z</time>
      </trkpt>
      <trkpt lat="61.5618757345" lon="8.75141677447">
        <ele>1181.12</ele>
        <time>2012-08-09T11:55:49Z</time>
      </trkpt>
      <trkpt lat="61.5618871339" lon="8.75144141726">
        <ele>1181.6</ele>
        <time>2012-08-09T11:55:57Z</time>
      </trkpt>
      <trkpt lat="61.5618626587" lon="8.75151400454">
        <ele>1181.6</ele>
        <time>2012-08-09T11:56:02Z</time>
      </trkpt>
      <trkpt lat="61.5618151333" lon="8.75152674504">
        <ele>1181.12</ele>
        <time>2012-08-09T11:56:07Z</time>
      </trkpt>
      <trkpt lat="61.5617893171" lon="8.75151174143">
        <ele>1181.12</ele>
        <time>2012-08-09T11:56:10Z</time>
      </trkpt>
      <trkpt lat="61.5617693681" lon="8.75158483163">
        <ele>1180.64</ele>
        <time>2012-08-09T11:56:21Z</time>
      </trkpt>
      <trkpt lat="61.5617660992" lon="8.75156354159">
        <ele>1181.12</ele>
        <time>2012-08-09T11:56:35Z</time>
      </trkpt>
      <trkpt lat="61.5617612377" lon="8.75161341392">
        <ele>1180.64</ele>
        <time>2012-08-09T11:56:48Z</time>
      </trkpt>
      <trkpt lat="61.5617562924" lon="8.75183276832">
        <ele>1181.12</ele>
        <time>2012-08-09T11:56:57Z</time>
      </trkpt>
      <trkpt lat="61.561743468" lon="8.75195321627">
        <ele>1181.12</ele>
        <time>2012-08-09T11:57:05Z</time>
      </trkpt>
      <trkpt lat="61.5617217589" lon="8.75223526731">
        <ele>1180.64</ele>
        <time>2012-08-09T11:57:21Z</time>
      </trkpt>
      <trkpt lat="61.561697619" lon="8.75230936334">
        <ele>1181.12</ele>
        <time>2012-08-09T11:57:27Z</time>
      </trkpt>
      <trkpt lat="61.5616609901" lon="8.75249192119">
        <ele>1180.64</ele>
        <time>2012-08-09T11:57:37Z</time>
      </trkpt>
      <trkpt lat="61.5615775064" lon="8.75260465778">
        <ele>1179.67</ele>
        <time>2012-08-09T11:57:49Z</time>
      </trkpt>
      <trkpt lat="61.5615872294" lon="8.75264715403">
        <ele>1180.16</ele>
        <time>2012-08-09T11:58:02Z</time>
      </trkpt>
      <trkpt lat="61.5616182424" lon="8.75302718952">
        <ele>1180.16</ele>
        <time>2012-08-09T11:58:19Z</time>
      </trkpt>
      <trkpt lat="61.5616386943" lon="8.75303121284">
        <ele>1180.64</ele>
        <time>2012-08-09T11:58:31Z</time>
      </trkpt>
      <trkpt lat="61.5616413765" lon="8.75302995555">
        <ele>1181.12</ele>
        <time>2012-08-09T11:58:58Z</time>
      </trkpt>
      <trkpt lat="61.5616415441" lon="8.75305962749">
        <ele>1180.16</ele>
        <time>2012-08-09T11:59:16Z</time>
      </trkpt>
      <trkpt lat="61.5616294742" lon="8.75304311514">
        <ele>1181.12</ele>
        <time>2012-08-09T11:59:42Z</time>
      </trkpt>
      <trkpt lat="61.5616475791" lon="8.75303397886">
        <ele>1181.12</ele>
        <time>2012-08-09T12:00:01Z</time>
      </trkpt>
      <trkpt lat="61.5616331622" lon="8.75305627473">
        <ele>1180.64</ele>
        <time>2012-08-09T12:00:20Z</time>
      </trkpt>
      <trkpt lat="61.5616328269" lon="8.75302953646">
        <ele>1180.16</ele>
        <time>2012-08-09T12:00:37Z</time>
      </trkpt>
      <trkpt lat="61.5616475791" lon="8.75305627473">
        <ele>1180.64</ele>
        <time>2012-08-09T12:00:56Z</time>
      </trkpt>
      <trkpt lat="61.5616563801" lon="8.75315249898">
        <ele>1180.64</ele>
        <time>2012-08-09T12:01:08Z</time>
      </trkpt>
      <trkpt lat="61.5616663545" lon="8.75347495079">
        <ele>1180.16</ele>
        <time>2012-08-09T12:01:22Z</time>
      </trkpt>
      <trkpt lat="61.5617293864" lon="8.75370855443">
        <ele>1181.12</ele>
        <time>2012-08-09T12:01:36Z</time>
      </trkpt>
      <trkpt lat="61.5617433004" lon="8.75393637456">
        <ele>1180.64</ele>
        <time>2012-08-09T12:01:51Z</time>
      </trkpt>
      <trkpt lat="61.5617438033" lon="8.75398574397">
        <ele>1180.64</ele>
        <time>2012-08-09T12:01:58Z</time>
      </trkpt>
      <trkpt lat="61.5617241897" lon="8.75400938094">
        <ele>1180.64</ele>
        <time>2012-08-09T12:02:00Z</time>
      </trkpt>
      <trkpt lat="61.5617171489" lon="8.75410359353">
        <ele>1181.12</ele>
        <time>2012-08-09T12:02:04Z</time>
      </trkpt>
      <trkpt lat="61.5617231" lon="8.75444331206">
        <ele>1181.12</ele>
        <time>2012-08-09T12:02:17Z</time>
      </trkpt>
      <trkpt lat="61.5617246088" lon="8.75446552411">
        <ele>1181.12</ele>
        <time>2012-08-09T12:02:18Z</time>
      </trkpt>
      <trkpt lat="61.5617459826" lon="8.75468144193">
        <ele>1182.56</ele>
        <time>2012-08-09T12:02:32Z</time>
      </trkpt>
      <trkpt lat="61.5617606509" lon="8.7548230961">
        <ele>1182.08</ele>
        <time>2012-08-09T12:02:47Z</time>
      </trkpt>
      <trkpt lat="61.5617672727" lon="8.75489149243">
        <ele>1182.08</ele>
        <time>2012-08-09T12:02:59Z</time>
      </trkpt>
      <trkpt lat="61.5618077572" lon="8.75501495786">
        <ele>1183.04</ele>
        <time>2012-08-09T12:03:06Z</time>
      </trkpt>
      <trkpt lat="61.5618783329" lon="8.75511403196">
        <ele>1188.81</ele>
        <time>2012-08-09T12:03:20Z</time>
      </trkpt>
      <trkpt lat="61.5618735552" lon="8.75512191094">
        <ele>1185.44</ele>
        <time>2012-08-09T12:03:22Z</time>
      </trkpt>
      <trkpt lat="61.5618725494" lon="8.75512409024">
        <ele>1185.92</ele>
        <time>2012-08-09T12:03:23Z</time>
      </trkpt>
      <trkpt lat="61.5618719626" lon="8.75511872582">
        <ele>1185.92</ele>
        <time>2012-08-09T12:03:24Z</time>
      </trkpt>
      <trkpt lat="61.5618186537" lon="8.75531033613">
        <ele>1183.04</ele>
        <time>2012-08-09T12:03:36Z</time>
      </trkpt>
      <trkpt lat="61.5618117806" lon="8.75533573329">
        <ele>1182.08</ele>
        <time>2012-08-09T12:03:38Z</time>
      </trkpt>
      <trkpt lat="61.5617919993" lon="8.75536381267">
        <ele>1181.6</ele>
        <time>2012-08-09T12:03:40Z</time>
      </trkpt>
      <trkpt lat="61.5617075097" lon="8.75559414737">
        <ele>1180.64</ele>
        <time>2012-08-09T12:03:52Z</time>
      </trkpt>
      <trkpt lat="61.5616581403" lon="8.75588105991">
        <ele>1181.12</ele>
        <time>2012-08-09T12:04:05Z</time>
      </trkpt>
      <trkpt lat="61.5616523568" lon="8.75601525418">
        <ele>1181.6</ele>
        <time>2012-08-09T12:04:12Z</time>
      </trkpt>
      <trkpt lat="61.5616185777" lon="8.75616889447">
        <ele>1181.12</ele>
        <time>2012-08-09T12:04:29Z</time>
      </trkpt>
      <trkpt lat="61.5615920071" lon="8.7563408073">
        <ele>1181.12</ele>
        <time>2012-08-09T12:04:40Z</time>
      </trkpt>
      <trkpt lat="61.5615561325" lon="8.75649034046">
        <ele>1181.12</ele>
        <time>2012-08-09T12:04:48Z</time>
      </trkpt>
      <trkpt lat="61.5615467448" lon="8.75656384975">
        <ele>1180.16</ele>
        <time>2012-08-09T12:04:52Z</time>
      </trkpt>
      <trkpt lat="61.5614829585" lon="8.75677440315">
        <ele>1181.12</ele>
        <time>2012-08-09T12:05:04Z</time>
      </trkpt>
      <trkpt lat="61.5614708886" lon="8.75682050362">
        <ele>1181.6</ele>
        <time>2012-08-09T12:05:07Z</time>
      </trkpt>
      <trkpt lat="61.561422525" lon="8.75691991299">
        <ele>1181.6</ele>
        <time>2012-08-09T12:05:13Z</time>
      </trkpt>
      <trkpt lat="61.5613920987" lon="8.75711630099">
        <ele>1181.6</ele>
        <time>2012-08-09T12:05:23Z</time>
      </trkpt>
      <trkpt lat="61.5613237023" lon="8.75745786354">
        <ele>1181.12</ele>
        <time>2012-08-09T12:05:38Z</time>
      </trkpt>
      <trkpt lat="61.5612833854" lon="8.75775491819">
        <ele>1180.64</ele>
        <time>2012-08-09T12:05:52Z</time>
      </trkpt>
      <trkpt lat="61.5611796174" lon="8.75803487375">
        <ele>1180.64</ele>
        <time>2012-08-09T12:06:08Z</time>
      </trkpt>
      <trkpt lat="61.5611806232" lon="8.75814995728">
        <ele>1180.16</ele>
        <time>2012-08-09T12:06:15Z</time>
      </trkpt>
      <trkpt lat="61.5611894242" lon="8.75827744603">
        <ele>1180.16</ele>
        <time>2012-08-09T12:06:20Z</time>
      </trkpt>
      <trkpt lat="61.5612123907" lon="8.7585503608">
        <ele>1180.16</ele>
        <time>2012-08-09T12:06:34Z</time>
      </trkpt>
      <trkpt lat="61.561206691" lon="8.75901388004">
        <ele>1180.16</ele>
        <time>2012-08-09T12:06:52Z</time>
      </trkpt>
      <trkpt lat="61.561187245" lon="8.75929660164">
        <ele>1180.16</ele>
        <time>2012-08-09T12:07:06Z</time>
      </trkpt>
      <trkpt lat="61.5611591656" lon="8.75953498296">
        <ele>1180.64</ele>
        <time>2012-08-09T12:07:19Z</time>
      </trkpt>
      <trkpt lat="61.5611408092" lon="8.75962844118">
        <ele>1181.12</ele>
        <time>2012-08-09T12:07:25Z</time>
      </trkpt>
      <trkpt lat="61.5611005761" lon="8.75989079475">
        <ele>1182.08</ele>
        <time>2012-08-09T12:07:40Z</time>
      </trkpt>
      <trkpt lat="61.5610319283" lon="8.76013839617">
        <ele>1182.56</ele>
        <time>2012-08-09T12:07:54Z</time>
      </trkpt>
      <trkpt lat="61.5610294975" lon="8.76016622409">
        <ele>1182.08</ele>
        <time>2012-08-09T12:07:56Z</time>
      </trkpt>
      <trkpt lat="61.5609967243" lon="8.7604005821">
        <ele>1183.04</ele>
        <time>2012-08-09T12:08:10Z</time>
      </trkpt>
      <trkpt lat="61.5609938744" lon="8.76056436449">
        <ele>1183.04</ele>
        <time>2012-08-09T12:08:19Z</time>
      </trkpt>
      <trkpt lat="61.5609711595" lon="8.76066561788">
        <ele>1183.04</ele>
        <time>2012-08-09T12:08:24Z</time>
      </trkpt>
      <trkpt lat="61.5609590895" lon="8.7608872354">
        <ele>1182.56</ele>
        <time>2012-08-09T12:08:37Z</time>
      </trkpt>
      <trkpt lat="61.5609410685" lon="8.76109426841">
        <ele>1183.04</ele>
        <time>2012-08-09T12:08:49Z</time>
      </trkpt>
      <trkpt lat="61.560916258" lon="8.76124111935">
        <ele>1183.04</ele>
        <time>2012-08-09T12:09:01Z</time>
      </trkpt>
      <trkpt lat="61.560843084" lon="8.76139651984">
        <ele>1182.56</ele>
        <time>2012-08-09T12:09:15Z</time>
      </trkpt>
      <trkpt lat="61.560738394" lon="8.76151763834">
        <ele>1183.52</ele>
        <time>2012-08-09T12:09:28Z</time>
      </trkpt>
      <trkpt lat="61.5606814809" lon="8.76164328307">
        <ele>1183.04</ele>
        <time>2012-08-09T12:09:37Z</time>
      </trkpt>
      <trkpt lat="61.5606707521" lon="8.76170472242">
        <ele>1183.52</ele>
        <time>2012-08-09T12:09:41Z</time>
      </trkpt>
      <trkpt lat="61.5606169403" lon="8.7619006075">
        <ele>1183.04</ele>
        <time>2012-08-09T12:09:53Z</time>
      </trkpt>
      <trkpt lat="61.5605964046" lon="8.76201585867">
        <ele>1181.6</ele>
        <time>2012-08-09T12:10:07Z</time>
      </trkpt>
      <trkpt lat="61.5605945606" lon="8.76208006404">
        <ele>1181.12</ele>
        <time>2012-08-09T12:10:12Z</time>
      </trkpt>
      <trkpt lat="61.5605964046" lon="8.7621534057">
        <ele>1181.6</ele>
        <time>2012-08-09T12:10:15Z</time>
      </trkpt>
      <trkpt lat="61.5605791379" lon="8.76222926192">
        <ele>1181.12</ele>
        <time>2012-08-09T12:10:18Z</time>
      </trkpt>
      <trkpt lat="61.560542509" lon="8.76235683449">
        <ele>1180.64</ele>
        <time>2012-08-09T12:10:24Z</time>
      </trkpt>
      <trkpt lat="61.5605312772" lon="8.76240016893">
        <ele>1180.64</ele>
        <time>2012-08-09T12:10:26Z</time>
      </trkpt>
      <trkpt lat="61.5605043713" lon="8.76263041981">
        <ele>1180.64</ele>
        <time>2012-08-09T12:10:38Z</time>
      </trkpt>
      <trkpt lat="61.5605293494" lon="8.76284038648">
        <ele>1181.6</ele>
        <time>2012-08-09T12:10:52Z</time>
      </trkpt>
      <trkpt lat="61.5605288465" lon="8.7628783565">
        <ele>1181.6</ele>
        <time>2012-08-09T12:10:54Z</time>
      </trkpt>
      <trkpt lat="61.5604905412" lon="8.76296737231">
        <ele>1181.12</ele>
        <time>2012-08-09T12:11:00Z</time>
      </trkpt>
      <trkpt lat="61.5604769625" lon="8.76304247417">
        <ele>1180.64</ele>
        <time>2012-08-09T12:11:05Z</time>
      </trkpt>
      <trkpt lat="61.5604691673" lon="8.76323718578">
        <ele>1181.12</ele>
        <time>2012-08-09T12:11:17Z</time>
      </trkpt>
      <trkpt lat="61.5604399983" lon="8.76352895983">
        <ele>1182.08</ele>
        <time>2012-08-09T12:11:31Z</time>
      </trkpt>
      <trkpt lat="61.5604001004" lon="8.76368972473">
        <ele>1181.6</ele>
        <time>2012-08-09T12:11:41Z</time>
      </trkpt>
      <trkpt lat="61.5603978373" lon="8.7637565285">
        <ele>1180.64</ele>
        <time>2012-08-09T12:11:44Z</time>
      </trkpt>
      <trkpt lat="61.5604006033" lon="8.76387052238">
        <ele>1180.16</ele>
        <time>2012-08-09T12:11:51Z</time>
      </trkpt>
      <trkpt lat="61.5603379905" lon="8.76409993507">
        <ele>1180.16</ele>
        <time>2012-08-09T12:12:02Z</time>
      </trkpt>
      <trkpt lat="61.5602804068" lon="8.76440193504">
        <ele>1180.64</ele>
        <time>2012-08-09T12:12:17Z</time>
      </trkpt>
      <trkpt lat="61.5602656547" lon="8.76458751038">
        <ele>1180.64</ele>
        <time>2012-08-09T12:12:27Z</time>
      </trkpt>
      <trkpt lat="61.5602364857" lon="8.76479906961">
        <ele>1180.64</ele>
        <time>2012-08-09T12:12:36Z</time>
      </trkpt>
      <trkpt lat="61.5601786505" lon="8.76501264051">
        <ele>1180.64</ele>
        <time>2012-08-09T12:12:48Z</time>
      </trkpt>
      <trkpt lat="61.5601214021" lon="8.76516862772">
        <ele>1180.64</ele>
        <time>2012-08-09T12:12:58Z</time>
      </trkpt>
      <trkpt lat="61.5601204801" lon="8.76525613479">
        <ele>1180.64</ele>
        <time>2012-08-09T12:13:02Z</time>
      </trkpt>
      <trkpt lat="61.5600920655" lon="8.76548294909">
        <ele>1181.12</ele>
        <time>2012-08-09T12:13:16Z</time>
      </trkpt>
      <trkpt lat="61.5600824263" lon="8.76557028852">
        <ele>1180.64</ele>
        <time>2012-08-09T12:13:34Z</time>
      </trkpt>
      <trkpt lat="61.5600372478" lon="8.76585024409">
        <ele>1182.08</ele>
        <time>2012-08-09T12:13:47Z</time>
      </trkpt>
      <trkpt lat="61.5600396786" lon="8.76591176726">
        <ele>1181.6</ele>
        <time>2012-08-09T12:13:51Z</time>
      </trkpt>
      <trkpt lat="61.5600564424" lon="8.76618568785">
        <ele>1182.08</ele>
        <time>2012-08-09T12:14:05Z</time>
      </trkpt>
      <trkpt lat="61.5600406844" lon="8.76640386879">
        <ele>1182.08</ele>
        <time>2012-08-09T12:14:17Z</time>
      </trkpt>
      <trkpt lat="61.560032554" lon="8.76652968116">
        <ele>1182.56</ele>
        <time>2012-08-09T12:14:25Z</time>
      </trkpt>
      <trkpt lat="61.5600320511" lon="8.76667091623">
        <ele>1183.04</ele>
        <time>2012-08-09T12:14:37Z</time>
      </trkpt>
      <trkpt lat="61.5600134432" lon="8.76683553681">
        <ele>1183.04</ele>
        <time>2012-08-09T12:14:50Z</time>
      </trkpt>
      <trkpt lat="61.560003804" lon="8.76688255928">
        <ele>1184</ele>
        <time>2012-08-09T12:14:53Z</time>
      </trkpt>
      <trkpt lat="61.5600022953" lon="8.76691977493">
        <ele>1183.52</ele>
        <time>2012-08-09T12:14:55Z</time>
      </trkpt>
      <trkpt lat="61.5600117669" lon="8.76701482572">
        <ele>1183.52</ele>
        <time>2012-08-09T12:15:00Z</time>
      </trkpt>
      <trkpt lat="61.5599780716" lon="8.76722529531">
        <ele>1184.48</ele>
        <time>2012-08-09T12:15:12Z</time>
      </trkpt>
      <trkpt lat="61.5599765629" lon="8.76731766388">
        <ele>1184.48</ele>
        <time>2012-08-09T12:15:18Z</time>
      </trkpt>
      <trkpt lat="61.5599665884" lon="8.76748052426">
        <ele>1184.96</ele>
        <time>2012-08-09T12:15:27Z</time>
      </trkpt>
      <trkpt lat="61.5599548537" lon="8.76756710932">
        <ele>1184.96</ele>
        <time>2012-08-09T12:15:31Z</time>
      </trkpt>
      <trkpt lat="61.5599602181" lon="8.7676277943">
        <ele>1185.92</ele>
        <time>2012-08-09T12:15:44Z</time>
      </trkpt>
      <trkpt lat="61.5599649958" lon="8.76762368716">
        <ele>1185.44</ele>
        <time>2012-08-09T12:15:58Z</time>
      </trkpt>
      <trkpt lat="61.5599501599" lon="8.7676780019">
        <ele>1185.44</ele>
        <time>2012-08-09T12:16:14Z</time>
      </trkpt>
      <trkpt lat="61.5599452984" lon="8.76762586646">
        <ele>1185.44</ele>
        <time>2012-08-09T12:16:33Z</time>
      </trkpt>
      <trkpt lat="61.5599572007" lon="8.76763676293">
        <ele>1184.96</ele>
        <time>2012-08-09T12:16:51Z</time>
      </trkpt>
      <trkpt lat="61.5599598829" lon="8.76765436493">
        <ele>1185.44</ele>
        <time>2012-08-09T12:16:56Z</time>
      </trkpt>
      <trkpt lat="61.5599513333" lon="8.76774681732">
        <ele>1184.48</ele>
        <time>2012-08-09T12:17:03Z</time>
      </trkpt>
      <trkpt lat="61.5599716175" lon="8.76775335521">
        <ele>1184.96</ele>
        <time>2012-08-09T12:17:05Z</time>
      </trkpt>
      <trkpt lat="61.5600081626" lon="8.76771295443">
        <ele>1184.48</ele>
        <time>2012-08-09T12:17:09Z</time>
      </trkpt>
      <trkpt lat="61.5600516647" lon="8.7677084282">
        <ele>1184.48</ele>
        <time>2012-08-09T12:17:23Z</time>
      </trkpt>
      <trkpt lat="61.5600548498" lon="8.76769904047">
        <ele>1184.96</ele>
        <time>2012-08-09T12:18:01Z</time>
      </trkpt>
      <trkpt lat="61.5600457974" lon="8.76771152951">
        <ele>1185.44</ele>
        <time>2012-08-09T12:18:34Z</time>
      </trkpt>
      <trkpt lat="61.5600102581" lon="8.76769099385">
        <ele>1184.96</ele>
        <time>2012-08-09T12:18:44Z</time>
      </trkpt>
      <trkpt lat="61.5599546023" lon="8.7676467374">
        <ele>1185.92</ele>
        <time>2012-08-09T12:18:57Z</time>
      </trkpt>
      <trkpt lat="61.5599680133" lon="8.76766199246">
        <ele>1185.92</ele>
        <time>2012-08-09T12:19:16Z</time>
      </trkpt>
      <trkpt lat="61.5599465556" lon="8.76772225834">
        <ele>1185.92</ele>
        <time>2012-08-09T12:19:24Z</time>
      </trkpt>
      <trkpt lat="61.5599439573" lon="8.76801973209">
        <ele>1184</ele>
        <time>2012-08-09T12:19:37Z</time>
      </trkpt>
      <trkpt lat="61.5598979406" lon="8.76822601072">
        <ele>1183.52</ele>
        <time>2012-08-09T12:19:51Z</time>
      </trkpt>
      <trkpt lat="61.559882015" lon="8.76828568988">
        <ele>1183.52</ele>
        <time>2012-08-09T12:20:00Z</time>
      </trkpt>
      <trkpt lat="61.5598696098" lon="8.76845852472">
        <ele>1183.04</ele>
        <time>2012-08-09T12:20:12Z</time>
      </trkpt>
      <trkpt lat="61.5598406084" lon="8.76876228489">
        <ele>1183.04</ele>
        <time>2012-08-09T12:20:29Z</time>
      </trkpt>
      <trkpt lat="61.5597790014" lon="8.76905950718">
        <ele>1182.56</ele>
        <time>2012-08-09T12:20:52Z</time>
      </trkpt>
      <trkpt lat="61.5597785823" lon="8.76932412386">
        <ele>1182.56</ele>
        <time>2012-08-09T12:21:10Z</time>
      </trkpt>
      <trkpt lat="61.5597448032" lon="8.76941506751">
        <ele>1182.56</ele>
        <time>2012-08-09T12:21:17Z</time>
      </trkpt>
      <trkpt lat="61.559677748" lon="8.76958438195">
        <ele>1182.08</ele>
        <time>2012-08-09T12:21:32Z</time>
      </trkpt>
      <trkpt lat="61.5596334916" lon="8.76980641857">
        <ele>1181.6</ele>
        <time>2012-08-09T12:21:46Z</time>
      </trkpt>
      <trkpt lat="61.5595879778" lon="8.77004823647">
        <ele>1182.08</ele>
        <time>2012-08-09T12:21:59Z</time>
      </trkpt>
      <trkpt lat="61.559539279" lon="8.77028234303">
        <ele>1182.08</ele>
        <time>2012-08-09T12:22:12Z</time>
      </trkpt>
      <trkpt lat="61.5594814438" lon="8.77054528333">
        <ele>1181.6</ele>
        <time>2012-08-09T12:22:26Z</time>
      </trkpt>
      <trkpt lat="61.5594664402" lon="8.77063253894">
        <ele>1182.08</ele>
        <time>2012-08-09T12:22:31Z</time>
      </trkpt>
      <trkpt lat="61.5594604053" lon="8.77069967799">
        <ele>1182.08</ele>
        <time>2012-08-09T12:22:34Z</time>
      </trkpt>
      <trkpt lat="61.5594356786" lon="8.77083521336">
        <ele>1183.04</ele>
        <time>2012-08-09T12:22:41Z</time>
      </trkpt>
      <trkpt lat="61.5594411269" lon="8.77099396661">
        <ele>1183.52</ele>
        <time>2012-08-09T12:22:49Z</time>
      </trkpt>
      <trkpt lat="61.5594213456" lon="8.7710670568">
        <ele>1183.52</ele>
        <time>2012-08-09T12:22:53Z</time>
      </trkpt>
      <trkpt lat="61.559414221" lon="8.77110879868">
        <ele>1183.52</ele>
        <time>2012-08-09T12:22:55Z</time>
      </trkpt>
      <trkpt lat="61.5594005585" lon="8.77128247172">
        <ele>1183.04</ele>
        <time>2012-08-09T12:23:05Z</time>
      </trkpt>
      <trkpt lat="61.5593848843" lon="8.77141918056">
        <ele>1182.56</ele>
        <time>2012-08-09T12:23:12Z</time>
      </trkpt>
      <trkpt lat="61.5593547095" lon="8.77154566348">
        <ele>1182.56</ele>
        <time>2012-08-09T12:23:19Z</time>
      </trkpt>
      <trkpt lat="61.5593598224" lon="8.7716910895">
        <ele>1181.6</ele>
        <time>2012-08-09T12:23:28Z</time>
      </trkpt>
      <trkpt lat="61.5593543742" lon="8.77179276198">
        <ele>1182.56</ele>
        <time>2012-08-09T12:23:33Z</time>
      </trkpt>
      <trkpt lat="61.5593001433" lon="8.77207850106">
        <ele>1183.52</ele>
        <time>2012-08-09T12:23:48Z</time>
      </trkpt>
      <trkpt lat="61.5593020711" lon="8.77209878527">
        <ele>1183.52</ele>
        <time>2012-08-09T12:23:49Z</time>
      </trkpt>
      <trkpt lat="61.5592932701" lon="8.77215284854">
        <ele>1183.52</ele>
        <time>2012-08-09T12:23:52Z</time>
      </trkpt>
      <trkpt lat="61.5592527017" lon="8.77246540971">
        <ele>1183.52</ele>
        <time>2012-08-09T12:24:08Z</time>
      </trkpt>
      <trkpt lat="61.5592031647" lon="8.77269742079">
        <ele>1182.56</ele>
        <time>2012-08-09T12:24:22Z</time>
      </trkpt>
      <trkpt lat="61.5591646917" lon="8.77295591868">
        <ele>1183.52</ele>
        <time>2012-08-09T12:24:34Z</time>
      </trkpt>
      <trkpt lat="61.5591724869" lon="8.77314384095">
        <ele>1184.96</ele>
        <time>2012-08-09T12:24:44Z</time>
      </trkpt>
      <trkpt lat="61.5591910947" lon="8.77332421951">
        <ele>1185.92</ele>
        <time>2012-08-09T12:25:00Z</time>
      </trkpt>
      <trkpt lat="61.5591864008" lon="8.77336353064">
        <ele>1185.44</ele>
        <time>2012-08-09T12:25:20Z</time>
      </trkpt>
      <trkpt lat="61.5592181683" lon="8.77334123477">
        <ele>1185.44</ele>
        <time>2012-08-09T12:25:56Z</time>
      </trkpt>
      <trkpt lat="61.5591904242" lon="8.77334592864">
        <ele>1185.44</ele>
        <time>2012-08-09T12:26:29Z</time>
      </trkpt>
      <trkpt lat="61.5591864008" lon="8.77333754674">
        <ele>1185.92</ele>
        <time>2012-08-09T12:26:53Z</time>
      </trkpt>
      <trkpt lat="61.55920811" lon="8.7734672986">
        <ele>1185.92</ele>
        <time>2012-08-09T12:27:09Z</time>
      </trkpt>
      <trkpt lat="61.5592553839" lon="8.77359948121">
        <ele>1184.96</ele>
        <time>2012-08-09T12:27:20Z</time>
      </trkpt>
      <trkpt lat="61.5592905041" lon="8.77368497662">
        <ele>1183.04</ele>
        <time>2012-08-09T12:27:30Z</time>
      </trkpt>
      <trkpt lat="61.5593267977" lon="8.77377667464">
        <ele>1183.04</ele>
        <time>2012-08-09T12:27:38Z</time>
      </trkpt>
      <trkpt lat="61.5593423042" lon="8.77392034046">
        <ele>1183.04</ele>
        <time>2012-08-09T12:27:46Z</time>
      </trkpt>
      <trkpt lat="61.5593542065" lon="8.77400390804">
        <ele>1183.04</ele>
        <time>2012-08-09T12:27:50Z</time>
      </trkpt>
      <trkpt lat="61.5593542065" lon="8.77405067906">
        <ele>1183.04</ele>
        <time>2012-08-09T12:27:52Z</time>
      </trkpt>
      <trkpt lat="61.5593337547" lon="8.77430875786">
        <ele>1183.52</ele>
        <time>2012-08-09T12:28:07Z</time>
      </trkpt>
      <trkpt lat="61.5593278874" lon="8.77449600957">
        <ele>1184</ele>
        <time>2012-08-09T12:28:18Z</time>
      </trkpt>
      <trkpt lat="61.5593160689" lon="8.77465870231">
        <ele>1184</ele>
        <time>2012-08-09T12:28:29Z</time>
      </trkpt>
      <trkpt lat="61.5593061782" lon="8.77499883994">
        <ele>1183.04</ele>
        <time>2012-08-09T12:28:46Z</time>
      </trkpt>
      <trkpt lat="61.5592774283" lon="8.77522850409">
        <ele>1184</ele>
        <time>2012-08-09T12:28:59Z</time>
      </trkpt>
      <trkpt lat="61.5592603292" lon="8.77537426539">
        <ele>1183.52</ele>
        <time>2012-08-09T12:29:06Z</time>
      </trkpt>
      <trkpt lat="61.5592415538" lon="8.77548431978">
        <ele>1183.04</ele>
        <time>2012-08-09T12:29:13Z</time>
      </trkpt>
      <trkpt lat="61.5592629276" lon="8.77558331005">
        <ele>1183.52</ele>
        <time>2012-08-09T12:29:18Z</time>
      </trkpt>
      <trkpt lat="61.5592813678" lon="8.77569068223">
        <ele>1182.08</ele>
        <time>2012-08-09T12:29:23Z</time>
      </trkpt>
      <trkpt lat="61.5592439845" lon="8.77585857175">
        <ele>1183.04</ele>
        <time>2012-08-09T12:29:38Z</time>
      </trkpt>
      <trkpt lat="61.5592332557" lon="8.77593107522">
        <ele>1183.52</ele>
        <time>2012-08-09T12:29:42Z</time>
      </trkpt>
      <trkpt lat="61.5592684597" lon="8.77613257617">
        <ele>1182.56</ele>
        <time>2012-08-09T12:29:52Z</time>
      </trkpt>
      <trkpt lat="61.5592904203" lon="8.77630557865">
        <ele>1182.56</ele>
        <time>2012-08-09T12:30:04Z</time>
      </trkpt>
      <trkpt lat="61.5592827927" lon="8.7764709536">
        <ele>1182.08</ele>
        <time>2012-08-09T12:30:11Z</time>
      </trkpt>
      <trkpt lat="61.5592775121" lon="8.7766854465">
        <ele>1183.04</ele>
        <time>2012-08-09T12:30:24Z</time>
      </trkpt>
      <trkpt lat="61.5593086928" lon="8.77692516893">
        <ele>1184</ele>
        <time>2012-08-09T12:30:38Z</time>
      </trkpt>
      <trkpt lat="61.5592900012" lon="8.77717880532">
        <ele>1185.92</ele>
        <time>2012-08-09T12:30:52Z</time>
      </trkpt>
      <trkpt lat="61.5592638496" lon="8.77726639621">
        <ele>1186.4</ele>
        <time>2012-08-09T12:30:58Z</time>
      </trkpt>
      <trkpt lat="61.5592432301" lon="8.77747602761">
        <ele>1187.85</ele>
        <time>2012-08-09T12:31:11Z</time>
      </trkpt>
      <trkpt lat="61.5592691302" lon="8.7777710706">
        <ele>1188.33</ele>
        <time>2012-08-09T12:31:25Z</time>
      </trkpt>
      <trkpt lat="61.5592818707" lon="8.77797181718">
        <ele>1188.33</ele>
        <time>2012-08-09T12:31:38Z</time>
      </trkpt>
      <trkpt lat="61.5593899973" lon="8.77817164175">
        <ele>1187.85</ele>
        <time>2012-08-09T12:31:52Z</time>
      </trkpt>
      <trkpt lat="61.5594116226" lon="8.77818295732">
        <ele>1188.33</ele>
        <time>2012-08-09T12:31:54Z</time>
      </trkpt>
      <trkpt lat="61.5594438929" lon="8.77826744691">
        <ele>1187.85</ele>
        <time>2012-08-09T12:32:01Z</time>
      </trkpt>
      <trkpt lat="61.5594887361" lon="8.77845763229">
        <ele>1187.85</ele>
        <time>2012-08-09T12:32:14Z</time>
      </trkpt>
      <trkpt lat="61.5594966151" lon="8.77863725647">
        <ele>1187.85</ele>
        <time>2012-08-09T12:32:23Z</time>
      </trkpt>
      <trkpt lat="61.5594675299" lon="8.77894403413">
        <ele>1188.81</ele>
        <time>2012-08-09T12:32:38Z</time>
      </trkpt>
      <trkpt lat="61.5594811924" lon="8.77925525419">
        <ele>1188.81</ele>
        <time>2012-08-09T12:32:54Z</time>
      </trkpt>
      <trkpt lat="61.5594664402" lon="8.77931686118">
        <ele>1188.81</ele>
        <time>2012-08-09T12:32:58Z</time>
      </trkpt>
      <trkpt lat="61.5594411269" lon="8.77940520644">
        <ele>1189.77</ele>
        <time>2012-08-09T12:33:03Z</time>
      </trkpt>
      <trkpt lat="61.5593812801" lon="8.77958592027">
        <ele>1188.81</ele>
        <time>2012-08-09T12:33:14Z</time>
      </trkpt>
      <trkpt lat="61.5593477525" lon="8.77962414175">
        <ele>1188.33</ele>
        <time>2012-08-09T12:33:17Z</time>
      </trkpt>
      <trkpt lat="61.5593506023" lon="8.77984525636">
        <ele>1188.33</ele>
        <time>2012-08-09T12:33:31Z</time>
      </trkpt>
      <trkpt lat="61.559322523" lon="8.77998389304">
        <ele>1188.81</ele>
        <time>2012-08-09T12:33:48Z</time>
      </trkpt>
      <trkpt lat="61.5592835471" lon="8.78017868847">
        <ele>1188.81</ele>
        <time>2012-08-09T12:34:08Z</time>
      </trkpt>
      <trkpt lat="61.5592427272" lon="8.78035747446">
        <ele>1189.77</ele>
        <time>2012-08-09T12:34:18Z</time>
      </trkpt>
      <trkpt lat="61.5592361055" lon="8.78045579419">
        <ele>1189.29</ele>
        <time>2012-08-09T12:34:22Z</time>
      </trkpt>
      <trkpt lat="61.5591491014" lon="8.78075687215">
        <ele>1190.25</ele>
        <time>2012-08-09T12:34:37Z</time>
      </trkpt>
      <trkpt lat="61.559148347" lon="8.78097656183">
        <ele>1190.73</ele>
        <time>2012-08-09T12:34:48Z</time>
      </trkpt>
      <trkpt lat="61.5591488499" lon="8.78101847135">
        <ele>1191.21</ele>
        <time>2012-08-09T12:34:50Z</time>
      </trkpt>
      <trkpt lat="61.5591663681" lon="8.78120664507">
        <ele>1189.77</ele>
        <time>2012-08-09T12:34:58Z</time>
      </trkpt>
      <trkpt lat="61.5591516998" lon="8.78134494647">
        <ele>1189.29</ele>
        <time>2012-08-09T12:35:05Z</time>
      </trkpt>
      <trkpt lat="61.5591180883" lon="8.78155021928">
        <ele>1188.81</ele>
        <time>2012-08-09T12:35:16Z</time>
      </trkpt>
      <trkpt lat="61.5590480994" lon="8.78177971579">
        <ele>1189.29</ele>
        <time>2012-08-09T12:35:30Z</time>
      </trkpt>
      <trkpt lat="61.5590204392" lon="8.78184258007">
        <ele>1189.77</ele>
        <time>2012-08-09T12:35:35Z</time>
      </trkpt>
      <trkpt lat="61.5590025857" lon="8.7821563147">
        <ele>1190.73</ele>
        <time>2012-08-09T12:35:49Z</time>
      </trkpt>
      <trkpt lat="61.5589897614" lon="8.78231205046">
        <ele>1189.77</ele>
        <time>2012-08-09T12:35:56Z</time>
      </trkpt>
      <trkpt lat="61.5589643642" lon="8.78259393387">
        <ele>1187.85</ele>
        <time>2012-08-09T12:36:10Z</time>
      </trkpt>
      <trkpt lat="61.5589474328" lon="8.78267867491">
        <ele>1186.4</ele>
        <time>2012-08-09T12:36:15Z</time>
      </trkpt>
      <trkpt lat="61.5588904358" lon="8.78298008814">
        <ele>1186.4</ele>
        <time>2012-08-09T12:36:31Z</time>
      </trkpt>
      <trkpt lat="61.5588907711" lon="8.78320983611">
        <ele>1186.88</ele>
        <time>2012-08-09T12:36:42Z</time>
      </trkpt>
      <trkpt lat="61.5589078702" lon="8.78330036066">
        <ele>1186.4</ele>
        <time>2012-08-09T12:36:47Z</time>
      </trkpt>
      <trkpt lat="61.5589232929" lon="8.78338568844">
        <ele>1186.4</ele>
        <time>2012-08-09T12:36:53Z</time>
      </trkpt>
      <trkpt lat="61.5588953812" lon="8.7834700942">
        <ele>1185.92</ele>
        <time>2012-08-09T12:36:59Z</time>
      </trkpt>
      <trkpt lat="61.5588989016" lon="8.78368332982">
        <ele>1186.88</ele>
        <time>2012-08-09T12:37:11Z</time>
      </trkpt>
      <trkpt lat="61.5589041822" lon="8.78378617577">
        <ele>1186.88</ele>
        <time>2012-08-09T12:37:16Z</time>
      </trkpt>
      <trkpt lat="61.5588665474" lon="8.78401692957">
        <ele>1187.37</ele>
        <time>2012-08-09T12:37:28Z</time>
      </trkpt>
      <trkpt lat="61.5588040184" lon="8.78418473527">
        <ele>1187.37</ele>
        <time>2012-08-09T12:37:39Z</time>
      </trkpt>
      <trkpt lat="61.5587820578" lon="8.78427702002">
        <ele>1187.85</ele>
        <time>2012-08-09T12:37:44Z</time>
      </trkpt>
      <trkpt lat="61.5587742627" lon="8.78439486958">
        <ele>1187.85</ele>
        <time>2012-08-09T12:37:50Z</time>
      </trkpt>
      <trkpt lat="61.5587549843" lon="8.78453283571">
        <ele>1187.85</ele>
        <time>2012-08-09T12:37:57Z</time>
      </trkpt>
      <trkpt lat="61.5587109793" lon="8.7848159764">
        <ele>1187.37</ele>
        <time>2012-08-09T12:38:11Z</time>
      </trkpt>
      <trkpt lat="61.5587126557" lon="8.78485017456">
        <ele>1186.4</ele>
        <time>2012-08-09T12:38:13Z</time>
      </trkpt>
      <trkpt lat="61.5587093867" lon="8.7849331554">
        <ele>1185.92</ele>
        <time>2012-08-09T12:38:18Z</time>
      </trkpt>
      <trkpt lat="61.5587243065" lon="8.78501798026">
        <ele>1186.4</ele>
        <time>2012-08-09T12:38:23Z</time>
      </trkpt>
      <trkpt lat="61.5587296709" lon="8.78528980538">
        <ele>1185.92</ele>
        <time>2012-08-09T12:38:37Z</time>
      </trkpt>
      <trkpt lat="61.5587285813" lon="8.785305731">
        <ele>1186.4</ele>
        <time>2012-08-09T12:38:38Z</time>
      </trkpt>
      <trkpt lat="61.5587191936" lon="8.7853836827">
        <ele>1186.4</ele>
        <time>2012-08-09T12:38:42Z</time>
      </trkpt>
      <trkpt lat="61.5587240551" lon="8.78545375541">
        <ele>1186.4</ele>
        <time>2012-08-09T12:38:45Z</time>
      </trkpt>
      <trkpt lat="61.5587453451" lon="8.78555417061">
        <ele>1186.4</ele>
        <time>2012-08-09T12:38:52Z</time>
      </trkpt>
      <trkpt lat="61.5587511286" lon="8.78574854694">
        <ele>1186.88</ele>
        <time>2012-08-09T12:39:01Z</time>
      </trkpt>
      <trkpt lat="61.5587705746" lon="8.78598407842">
        <ele>1187.37</ele>
        <time>2012-08-09T12:39:16Z</time>
      </trkpt>
      <trkpt lat="61.5587665513" lon="8.78609119914">
        <ele>1187.37</ele>
        <time>2012-08-09T12:39:23Z</time>
      </trkpt>
      <trkpt lat="61.55874677" lon="8.78621374257">
        <ele>1187.85</ele>
        <time>2012-08-09T12:39:32Z</time>
      </trkpt>
      <trkpt lat="61.5586889349" lon="8.78640962765">
        <ele>1188.81</ele>
        <time>2012-08-09T12:39:46Z</time>
      </trkpt>
      <trkpt lat="61.5586503781" lon="8.78644097596">
        <ele>1188.81</ele>
        <time>2012-08-09T12:39:54Z</time>
      </trkpt>
      <trkpt lat="61.558622634" lon="8.78668019548">
        <ele>1190.25</ele>
        <time>2012-08-09T12:40:08Z</time>
      </trkpt>
      <trkpt lat="61.5586185269" lon="8.78688077442">
        <ele>1190.25</ele>
        <time>2012-08-09T12:40:18Z</time>
      </trkpt>
      <trkpt lat="61.5586133301" lon="8.78714413382">
        <ele>1190.25</ele>
        <time>2012-08-09T12:40:33Z</time>
      </trkpt>
      <trkpt lat="61.5585955605" lon="8.78728863783">
        <ele>1189.77</ele>
        <time>2012-08-09T12:40:44Z</time>
      </trkpt>
      <trkpt lat="61.5585801378" lon="8.7873695232">
        <ele>1191.21</ele>
        <time>2012-08-09T12:40:51Z</time>
      </trkpt>
      <trkpt lat="61.5585808922" lon="8.78747706302">
        <ele>1192.17</ele>
        <time>2012-08-09T12:40:56Z</time>
      </trkpt>
      <trkpt lat="61.5585885197" lon="8.78773204051">
        <ele>1193.13</ele>
        <time>2012-08-09T12:41:09Z</time>
      </trkpt>
      <trkpt lat="61.5585892741" lon="8.78780814819">
        <ele>1192.65</ele>
        <time>2012-08-09T12:41:14Z</time>
      </trkpt>
      <trkpt lat="61.5585918725" lon="8.78814484924">
        <ele>1192.65</ele>
        <time>2012-08-09T12:41:29Z</time>
      </trkpt>
      <trkpt lat="61.5585657209" lon="8.78830125555">
        <ele>1193.13</ele>
        <time>2012-08-09T12:41:38Z</time>
      </trkpt>
      <trkpt lat="61.5585280024" lon="8.7885538023">
        <ele>1193.61</ele>
        <time>2012-08-09T12:41:54Z</time>
      </trkpt>
      <trkpt lat="61.5585228894" lon="8.78859562799">
        <ele>1194.58</ele>
        <time>2012-08-09T12:41:56Z</time>
      </trkpt>
      <trkpt lat="61.5584648866" lon="8.78883719444">
        <ele>1195.54</ele>
        <time>2012-08-09T12:42:11Z</time>
      </trkpt>
      <trkpt lat="61.5583921317" lon="8.78905302845">
        <ele>1196.02</ele>
        <time>2012-08-09T12:42:28Z</time>
      </trkpt>
      <trkpt lat="61.5583291836" lon="8.7892078422">
        <ele>1196.5</ele>
        <time>2012-08-09T12:42:47Z</time>
      </trkpt>
      <trkpt lat="61.5582821611" lon="8.78927933984">
        <ele>1196.98</ele>
        <time>2012-08-09T12:42:57Z</time>
      </trkpt>
      <trkpt lat="61.5582653973" lon="8.78934840672">
        <ele>1197.46</ele>
        <time>2012-08-09T12:43:00Z</time>
      </trkpt>
      <trkpt lat="61.5582320374" lon="8.78949131817">
        <ele>1196.98</ele>
        <time>2012-08-09T12:43:08Z</time>
      </trkpt>
      <trkpt lat="61.558179399" lon="8.78964110278">
        <ele>1195.54</ele>
        <time>2012-08-09T12:43:21Z</time>
      </trkpt>
      <trkpt lat="61.5581752919" lon="8.7896548491">
        <ele>1195.54</ele>
        <time>2012-08-09T12:43:35Z</time>
      </trkpt>
      <trkpt lat="61.5581611264" lon="8.78970195539">
        <ele>1195.54</ele>
        <time>2012-08-09T12:44:00Z</time>
      </trkpt>
      <trkpt lat="61.5580681711" lon="8.78997336142">
        <ele>1195.06</ele>
        <time>2012-08-09T12:44:10Z</time>
      </trkpt>
      <trkpt lat="61.5580648184" lon="8.79000001587">
        <ele>1195.54</ele>
        <time>2012-08-09T12:44:11Z</time>
      </trkpt>
      <trkpt lat="61.5580529999" lon="8.79004611634">
        <ele>1196.02</ele>
        <time>2012-08-09T12:44:13Z</time>
      </trkpt>
      <trkpt lat="61.5579750482" lon="8.79025113769">
        <ele>1197.46</ele>
        <time>2012-08-09T12:44:24Z</time>
      </trkpt>
      <trkpt lat="61.5579678398" lon="8.79026991315">
        <ele>1196.98</ele>
        <time>2012-08-09T12:44:25Z</time>
      </trkpt>
      <trkpt lat="61.5579582006" lon="8.79029363394">
        <ele>1196.98</ele>
        <time>2012-08-09T12:44:26Z</time>
      </trkpt>
      <trkpt lat="61.5578715317" lon="8.79057291895">
        <ele>1198.42</ele>
        <time>2012-08-09T12:44:40Z</time>
      </trkpt>
      <trkpt lat="61.557835741" lon="8.79081356339">
        <ele>1197.46</ele>
        <time>2012-08-09T12:44:54Z</time>
      </trkpt>
      <trkpt lat="61.5578232519" lon="8.79085907713">
        <ele>1197.46</ele>
        <time>2012-08-09T12:44:56Z</time>
      </trkpt>
      <trkpt lat="61.5578126907" lon="8.79087978043">
        <ele>1196.98</ele>
        <time>2012-08-09T12:44:57Z</time>
      </trkpt>
      <trkpt lat="61.5578085836" lon="8.79090710543">
        <ele>1197.46</ele>
        <time>2012-08-09T12:44:58Z</time>
      </trkpt>
      <trkpt lat="61.5578076616" lon="8.79093065858">
        <ele>1196.5</ele>
        <time>2012-08-09T12:44:59Z</time>
      </trkpt>
      <trkpt lat="61.5578017104" lon="8.79095152952">
        <ele>1196.02</ele>
        <time>2012-08-09T12:45:00Z</time>
      </trkpt>
      <trkpt lat="61.5577931609" lon="8.7909734901">
        <ele>1196.5</ele>
        <time>2012-08-09T12:45:01Z</time>
      </trkpt>
      <trkpt lat="61.5577542689" lon="8.79112771712">
        <ele>1196.02</ele>
        <time>2012-08-09T12:45:07Z</time>
      </trkpt>
      <trkpt lat="61.5577460546" lon="8.79115168937">
        <ele>1195.54</ele>
        <time>2012-08-09T12:45:08Z</time>
      </trkpt>
      <trkpt lat="61.5577403549" lon="8.79118278623">
        <ele>1196.02</ele>
        <time>2012-08-09T12:45:09Z</time>
      </trkpt>
      <trkpt lat="61.5577328112" lon="8.79120156169">
        <ele>1196.02</ele>
        <time>2012-08-09T12:45:10Z</time>
      </trkpt>
      <trkpt lat="61.5576644987" lon="8.79145813175">
        <ele>1192.17</ele>
        <time>2012-08-09T12:45:20Z</time>
      </trkpt>
      <trkpt lat="61.5576501656" lon="8.79150616005">
        <ele>1192.65</ele>
        <time>2012-08-09T12:45:21Z</time>
      </trkpt>
      <trkpt lat="61.5575468168" lon="8.791761389">
        <ele>1191.21</ele>
        <time>2012-08-09T12:45:27Z</time>
      </trkpt>
      <trkpt lat="61.5575392731" lon="8.79178686999">
        <ele>1192.17</ele>
        <time>2012-08-09T12:45:28Z</time>
      </trkpt>
      <trkpt lat="61.5575130377" lon="8.79188988358">
        <ele>1192.17</ele>
        <time>2012-08-09T12:45:39Z</time>
      </trkpt>
      <trkpt lat="61.5574617404" lon="8.79206925631">
        <ele>1192.65</ele>
        <time>2012-08-09T12:45:56Z</time>
      </trkpt>
      <trkpt lat="61.5574412886" lon="8.79216103815">
        <ele>1191.21</ele>
        <time>2012-08-09T12:46:03Z</time>
      </trkpt>
      <trkpt lat="61.5574336611" lon="8.79218400456">
        <ele>1191.21</ele>
        <time>2012-08-09T12:46:04Z</time>
      </trkpt>
      <trkpt lat="61.5574274585" lon="8.79220353439">
        <ele>1191.21</ele>
        <time>2012-08-09T12:46:05Z</time>
      </trkpt>
      <trkpt lat="61.5574203338" lon="8.79222222604">
        <ele>1191.69</ele>
        <time>2012-08-09T12:46:06Z</time>
      </trkpt>
      <trkpt lat="61.5574089345" lon="8.79223764874">
        <ele>1191.21</ele>
        <time>2012-08-09T12:46:07Z</time>
      </trkpt>
      <trkpt lat="61.557323942" lon="8.79242867231">
        <ele>1189.77</ele>
        <time>2012-08-09T12:46:19Z</time>
      </trkpt>
      <trkpt lat="61.5572950244" lon="8.79250461236">
        <ele>1190.25</ele>
        <time>2012-08-09T12:46:23Z</time>
      </trkpt>
      <trkpt lat="61.5572842956" lon="8.79251953214">
        <ele>1189.29</ele>
        <time>2012-08-09T12:46:24Z</time>
      </trkpt>
      <trkpt lat="61.5572649334" lon="8.79255934618">
        <ele>1189.29</ele>
        <time>2012-08-09T12:46:26Z</time>
      </trkpt>
      <trkpt lat="61.5572565515" lon="8.79258239642">
        <ele>1189.29</ele>
        <time>2012-08-09T12:46:27Z</time>
      </trkpt>
      <trkpt lat="61.5572495107" lon="8.79259983078">
        <ele>1189.29</ele>
        <time>2012-08-09T12:46:28Z</time>
      </trkpt>
      <trkpt lat="61.5572429728" lon="8.79261936061">
        <ele>1189.29</ele>
        <time>2012-08-09T12:46:29Z</time>
      </trkpt>
      <trkpt lat="61.5572378598" lon="8.79264106974">
        <ele>1189.29</ele>
        <time>2012-08-09T12:46:30Z</time>
      </trkpt>
      <trkpt lat="61.5572312381" lon="8.79265666008">
        <ele>1189.29</ele>
        <time>2012-08-09T12:46:31Z</time>
      </trkpt>
      <trkpt lat="61.5572226886" lon="8.79266965203">
        <ele>1189.29</ele>
        <time>2012-08-09T12:46:32Z</time>
      </trkpt>
      <trkpt lat="61.5572156478" lon="8.79268842749">
        <ele>1189.29</ele>
        <time>2012-08-09T12:46:33Z</time>
      </trkpt>
      <trkpt lat="61.5571607463" lon="8.79288272001">
        <ele>1187.37</ele>
        <time>2012-08-09T12:46:44Z</time>
      </trkpt>
      <trkpt lat="61.5571320802" lon="8.79299202003">
        <ele>1186.88</ele>
        <time>2012-08-09T12:46:55Z</time>
      </trkpt>
      <trkpt lat="61.5571092814" lon="8.79305723123">
        <ele>1186.4</ele>
        <time>2012-08-09T12:47:01Z</time>
      </trkpt>
      <trkpt lat="61.5570697188" lon="8.79317348823">
        <ele>1185.92</ele>
        <time>2012-08-09T12:47:08Z</time>
      </trkpt>
      <trkpt lat="61.5570741612" lon="8.79324297421">
        <ele>1186.4</ele>
        <time>2012-08-09T12:47:11Z</time>
      </trkpt>
      <trkpt lat="61.5570716467" lon="8.79326728173">
        <ele>1186.4</ele>
        <time>2012-08-09T12:47:12Z</time>
      </trkpt>
      <trkpt lat="61.5570583194" lon="8.79355763085">
        <ele>1186.88</ele>
        <time>2012-08-09T12:47:25Z</time>
      </trkpt>
      <trkpt lat="61.5569990594" lon="8.79363122396">
        <ele>1187.37</ele>
        <time>2012-08-09T12:47:32Z</time>
      </trkpt>
      <trkpt lat="61.5569778532" lon="8.79364790395">
        <ele>1186.88</ele>
        <time>2012-08-09T12:47:33Z</time>
      </trkpt>
      <trkpt lat="61.556908451" lon="8.79372065887">
        <ele>1185.92</ele>
        <time>2012-08-09T12:47:36Z</time>
      </trkpt>
      <trkpt lat="61.556860758" lon="8.79391822033">
        <ele>1187.37</ele>
        <time>2012-08-09T12:47:47Z</time>
      </trkpt>
      <trkpt lat="61.5568601713" lon="8.79394646734">
        <ele>1187.37</ele>
        <time>2012-08-09T12:47:48Z</time>
      </trkpt>
      <trkpt lat="61.5568420663" lon="8.79398846067">
        <ele>1187.85</ele>
        <time>2012-08-09T12:47:50Z</time>
      </trkpt>
      <trkpt lat="61.5568294097" lon="8.79401318729">
        <ele>1187.85</ele>
        <time>2012-08-09T12:47:51Z</time>
      </trkpt>
      <trkpt lat="61.5568190999" lon="8.79403816536">
        <ele>1187.85</ele>
        <time>2012-08-09T12:47:52Z</time>
      </trkpt>
      <trkpt lat="61.5568014141" lon="8.79414629191">
        <ele>1187.85</ele>
        <time>2012-08-09T12:47:57Z</time>
      </trkpt>
      <trkpt lat="61.5568038449" lon="8.79416565411">
        <ele>1187.85</ele>
        <time>2012-08-09T12:47:58Z</time>
      </trkpt>
      <trkpt lat="61.5567896795" lon="8.7942215614">
        <ele>1187.85</ele>
        <time>2012-08-09T12:48:01Z</time>
      </trkpt>
      <trkpt lat="61.5567817166" lon="8.794235643">
        <ele>1187.37</ele>
        <time>2012-08-09T12:48:02Z</time>
      </trkpt>
      <trkpt lat="61.5567715745" lon="8.79425064661">
        <ele>1187.85</ele>
        <time>2012-08-09T12:48:03Z</time>
      </trkpt>
      <trkpt lat="61.5567653719" lon="8.79426724277">
        <ele>1187.37</ele>
        <time>2012-08-09T12:48:04Z</time>
      </trkpt>
      <trkpt lat="61.5567595046" lon="8.79428861663">
        <ele>1187.37</ele>
        <time>2012-08-09T12:48:05Z</time>
      </trkpt>
      <trkpt lat="61.5567525476" lon="8.79431057721">
        <ele>1187.85</ele>
        <time>2012-08-09T12:48:06Z</time>
      </trkpt>
      <trkpt lat="61.556745423" lon="8.79433111288">
        <ele>1187.85</ele>
        <time>2012-08-09T12:48:07Z</time>
      </trkpt>
      <trkpt lat="61.556725055" lon="8.79437226802">
        <ele>1187.85</ele>
        <time>2012-08-09T12:48:09Z</time>
      </trkpt>
      <trkpt lat="61.5567163378" lon="8.79439188167">
        <ele>1187.85</ele>
        <time>2012-08-09T12:48:10Z</time>
      </trkpt>
      <trkpt lat="61.5567040164" lon="8.79440629855">
        <ele>1187.37</ele>
        <time>2012-08-09T12:48:11Z</time>
      </trkpt>
      <trkpt lat="61.5566921979" lon="8.79441509955">
        <ele>1187.37</ele>
        <time>2012-08-09T12:48:12Z</time>
      </trkpt>
      <trkpt lat="61.5566787031" lon="8.79441786557">
        <ele>1187.37</ele>
        <time>2012-08-09T12:48:13Z</time>
      </trkpt>
      <trkpt lat="61.5566132404" lon="8.79443747923">
        <ele>1186.88</ele>
        <time>2012-08-09T12:48:20Z</time>
      </trkpt>
      <trkpt lat="61.5566022601" lon="8.79444711842">
        <ele>1186.4</ele>
        <time>2012-08-09T12:48:21Z</time>
      </trkpt>
      <trkpt lat="61.5565293375" lon="8.79449766129">
        <ele>1186.4</ele>
        <time>2012-08-09T12:48:27Z</time>
      </trkpt>
      <trkpt lat="61.5565197822" lon="8.79451232962">
        <ele>1185.92</ele>
        <time>2012-08-09T12:48:28Z</time>
      </trkpt>
      <trkpt lat="61.5565145854" lon="8.7945734337">
        <ele>1186.4</ele>
        <time>2012-08-09T12:48:38Z</time>
      </trkpt>
      <trkpt lat="61.5564656351" lon="8.79466337152">
        <ele>1185.44</ele>
        <time>2012-08-09T12:48:48Z</time>
      </trkpt>
      <trkpt lat="61.5564595163" lon="8.79468566738">
        <ele>1185.44</ele>
        <time>2012-08-09T12:49:18Z</time>
      </trkpt>
      <trkpt lat="61.5564597677" lon="8.79465021193">
        <ele>1185.44</ele>
        <time>2012-08-09T12:49:43Z</time>
      </trkpt>
      <trkpt lat="61.5565148368" lon="8.79463294521">
        <ele>1186.88</ele>
        <time>2012-08-09T12:49:55Z</time>
      </trkpt>
      <trkpt lat="61.5564882662" lon="8.79462263547">
        <ele>1187.37</ele>
        <time>2012-08-09T12:50:05Z</time>
      </trkpt>
      <trkpt lat="61.5564852487" lon="8.79464375786">
        <ele>1187.37</ele>
        <time>2012-08-09T12:50:40Z</time>
      </trkpt>
      <trkpt lat="61.5564843267" lon="8.79461039789">
        <ele>1186.88</ele>
        <time>2012-08-09T12:51:12Z</time>
      </trkpt>
      <trkpt lat="61.5565237217" lon="8.79461626522">
        <ele>1187.37</ele>
        <time>2012-08-09T12:51:46Z</time>
      </trkpt>
      <trkpt lat="61.5564958099" lon="8.79458894022">
        <ele>1187.37</ele>
        <time>2012-08-09T12:52:16Z</time>
      </trkpt>
      <trkpt lat="61.556499498" lon="8.79464627244">
        <ele>1187.37</ele>
        <time>2012-08-09T12:52:45Z</time>
      </trkpt>
      <trkpt lat="61.5565064549" lon="8.79464124329">
        <ele>1187.37</ele>
        <time>2012-08-09T12:53:14Z</time>
      </trkpt>
      <trkpt lat="61.5564745199" lon="8.79462950863">
        <ele>1186.4</ele>
        <time>2012-08-09T12:53:46Z</time>
      </trkpt>
      <trkpt lat="61.5564789623" lon="8.79463093355">
        <ele>1186.4</ele>
        <time>2012-08-09T12:54:11Z</time>
      </trkpt>
      <trkpt lat="61.5564960614" lon="8.79464811645">
        <ele>1186.4</ele>
        <time>2012-08-09T12:54:33Z</time>
      </trkpt>
      <trkpt lat="61.5564844944" lon="8.79459396936">
        <ele>1185.92</ele>
        <time>2012-08-09T12:54:40Z</time>
      </trkpt>
      <trkpt lat="61.5564818121" lon="8.79458441399">
        <ele>1186.4</ele>
        <time>2012-08-09T12:54:51Z</time>
      </trkpt>
      <trkpt lat="61.5565034375" lon="8.79457879812">
        <ele>1186.88</ele>
        <time>2012-08-09T12:55:06Z</time>
      </trkpt>
      <trkpt lat="61.5564984921" lon="8.79459966905">
        <ele>1186.4</ele>
        <time>2012-08-09T12:55:21Z</time>
      </trkpt>
      <trkpt lat="61.5565183572" lon="8.79463596269">
        <ele>1185.92</ele>
        <time>2012-08-09T12:55:39Z</time>
      </trkpt>
      <trkpt lat="61.5565018449" lon="8.79464208148">
        <ele>1186.4</ele>
        <time>2012-08-09T12:55:50Z</time>
      </trkpt>
      <trkpt lat="61.5564958937" lon="8.79463437013">
        <ele>1186.4</ele>
        <time>2012-08-09T12:55:51Z</time>
      </trkpt>
      <trkpt lat="61.5564880148" lon="8.79461727105">
        <ele>1186.4</ele>
        <time>2012-08-09T12:55:52Z</time>
      </trkpt>
      <trkpt lat="61.5564760286" lon="8.79457586445">
        <ele>1185.92</ele>
        <time>2012-08-09T12:56:00Z</time>
      </trkpt>
      <trkpt lat="61.5564568341" lon="8.79455683753">
        <ele>1185.44</ele>
        <time>2012-08-09T12:56:12Z</time>
      </trkpt>
      <trkpt lat="61.5564935468" lon="8.794558933">
        <ele>1186.4</ele>
        <time>2012-08-09T12:56:28Z</time>
      </trkpt>
      <trkpt lat="61.5564907808" lon="8.79462062381">
        <ele>1186.4</ele>
        <time>2012-08-09T12:56:41Z</time>
      </trkpt>
      <trkpt lat="61.5565088019" lon="8.79460595548">
        <ele>1187.37</ele>
        <time>2012-08-09T12:56:53Z</time>
      </trkpt>
      <trkpt lat="61.5565280803" lon="8.79459849559">
        <ele>1187.37</ele>
        <time>2012-08-09T12:57:24Z</time>
      </trkpt>
      <trkpt lat="61.5565191116" lon="8.79461173899">
        <ele>1186.88</ele>
        <time>2012-08-09T12:58:06Z</time>
      </trkpt>
      <trkpt lat="61.5565105621" lon="8.79465607926">
        <ele>1185.92</ele>
        <time>2012-08-09T12:58:35Z</time>
      </trkpt>
      <trkpt lat="61.5564966481" lon="8.79463654943">
        <ele>1186.4</ele>
        <time>2012-08-09T12:58:42Z</time>
      </trkpt>
      <trkpt lat="61.5565211233" lon="8.79458265379">
        <ele>1186.4</ele>
        <time>2012-08-09T12:58:47Z</time>
      </trkpt>
      <trkpt lat="61.5565134119" lon="8.79456345923">
        <ele>1185.92</ele>
        <time>2012-08-09T12:58:48Z</time>
      </trkpt>
      <trkpt lat="61.5565040242" lon="8.79455256276">
        <ele>1185.92</ele>
        <time>2012-08-09T12:58:49Z</time>
      </trkpt>
      <trkpt lat="61.5564616956" lon="8.79452062771">
        <ele>1185.44</ele>
        <time>2012-08-09T12:59:08Z</time>
      </trkpt>
      <trkpt lat="61.556476783" lon="8.79458776675">
        <ele>1185.44</ele>
        <time>2012-08-09T12:59:29Z</time>
      </trkpt>
      <trkpt lat="61.5564719215" lon="8.79452607594">
        <ele>1185.44</ele>
        <time>2012-08-09T12:59:41Z</time>
      </trkpt>
      <trkpt lat="61.556468904" lon="8.79449556582">
        <ele>1185.44</ele>
        <time>2012-08-09T12:59:42Z</time>
      </trkpt>
      <trkpt lat="61.5564575046" lon="8.7944100704">
        <ele>1184</ele>
        <time>2012-08-09T12:59:47Z</time>
      </trkpt>
      <trkpt lat="61.5564155113" lon="8.79425860941">
        <ele>1183.04</ele>
        <time>2012-08-09T13:00:03Z</time>
      </trkpt>
      <trkpt lat="61.5564077999" lon="8.79431837238">
        <ele>1183.52</ele>
        <time>2012-08-09T13:00:22Z</time>
      </trkpt>
      <trkpt lat="61.5563858394" lon="8.79415115342">
        <ele>1183.52</ele>
        <time>2012-08-09T13:00:42Z</time>
      </trkpt>
      <trkpt lat="61.5563689079" lon="8.79416272044">
        <ele>1183.52</ele>
        <time>2012-08-09T13:01:00Z</time>
      </trkpt>
      <trkpt lat="61.5563580114" lon="8.79411427304">
        <ele>1183.04</ele>
        <time>2012-08-09T13:01:21Z</time>
      </trkpt>
      <trkpt lat="61.5563483723" lon="8.79409843124">
        <ele>1183.52</ele>
        <time>2012-08-09T13:01:37Z</time>
      </trkpt>
      <trkpt lat="61.5563692432" lon="8.79411846399">
        <ele>1183.52</ele>
        <time>2012-08-09T13:02:10Z</time>
      </trkpt>
      <trkpt lat="61.5563295968" lon="8.79411863163">
        <ele>1183.04</ele>
        <time>2012-08-09T13:02:29Z</time>
      </trkpt>
      <trkpt lat="61.5563241486" lon="8.79409717396">
        <ele>1183.52</ele>
        <time>2012-08-09T13:02:45Z</time>
      </trkpt>
      <trkpt lat="61.5562869329" lon="8.79403405823">
        <ele>1183.52</ele>
        <time>2012-08-09T13:02:59Z</time>
      </trkpt>
      <trkpt lat="61.5562774613" lon="8.79399659112">
        <ele>1183.52</ele>
        <time>2012-08-09T13:03:17Z</time>
      </trkpt>
      <trkpt lat="61.5562311932" lon="8.79387907684">
        <ele>1183.52</ele>
        <time>2012-08-09T13:03:31Z</time>
      </trkpt>
      <trkpt lat="61.5562108252" lon="8.79381218925">
        <ele>1183.04</ele>
        <time>2012-08-09T13:03:34Z</time>
      </trkpt>
      <trkpt lat="61.5561535768" lon="8.79373800941">
        <ele>1184.96</ele>
        <time>2012-08-09T13:03:45Z</time>
      </trkpt>
      <trkpt lat="61.556141004" lon="8.79372786731">
        <ele>1184.96</ele>
        <time>2012-08-09T13:03:47Z</time>
      </trkpt>
      <trkpt lat="61.5561342984" lon="8.793707164">
        <ele>1184.96</ele>
        <time>2012-08-09T13:03:48Z</time>
      </trkpt>
      <trkpt lat="61.5561273415" lon="8.79368972965">
        <ele>1184</ele>
        <time>2012-08-09T13:03:49Z</time>
      </trkpt>
      <trkpt lat="61.5561149362" lon="8.79368486814">
        <ele>1184</ele>
        <time>2012-08-09T13:03:50Z</time>
      </trkpt>
      <trkpt lat="61.5560388286" lon="8.79359493032">
        <ele>1182.56</ele>
        <time>2012-08-09T13:04:01Z</time>
      </trkpt>
      <trkpt lat="61.5559359826" lon="8.79350423813">
        <ele>1182.56</ele>
        <time>2012-08-09T13:04:15Z</time>
      </trkpt>
      <trkpt lat="61.5558791533" lon="8.79347741604">
        <ele>1182.56</ele>
        <time>2012-08-09T13:04:22Z</time>
      </trkpt>
      <trkpt lat="61.5558367409" lon="8.79342628643">
        <ele>1182.08</ele>
        <time>2012-08-09T13:04:27Z</time>
      </trkpt>
      <trkpt lat="61.5557765588" lon="8.7934168987">
        <ele>1181.6</ele>
        <time>2012-08-09T13:04:38Z</time>
      </trkpt>
      <trkpt lat="61.5557650756" lon="8.79340524785">
        <ele>1182.08</ele>
        <time>2012-08-09T13:04:39Z</time>
      </trkpt>
      <trkpt lat="61.5557513293" lon="8.79338747822">
        <ele>1181.12</ele>
        <time>2012-08-09T13:04:40Z</time>
      </trkpt>
      <trkpt lat="61.5557380859" lon="8.79337381572">
        <ele>1182.08</ele>
        <time>2012-08-09T13:04:41Z</time>
      </trkpt>
      <trkpt lat="61.5557257645" lon="8.79336308688">
        <ele>1182.08</ele>
        <time>2012-08-09T13:04:42Z</time>
      </trkpt>
      <trkpt lat="61.5556995291" lon="8.79334313795">
        <ele>1182.56</ele>
        <time>2012-08-09T13:04:45Z</time>
      </trkpt>
      <trkpt lat="61.5556879621" lon="8.79333098419">
        <ele>1183.04</ele>
        <time>2012-08-09T13:04:46Z</time>
      </trkpt>
      <trkpt lat="61.5556485672" lon="8.79328052513">
        <ele>1183.52</ele>
        <time>2012-08-09T13:04:58Z</time>
      </trkpt>
      <trkpt lat="61.5556286182" lon="8.79324657843">
        <ele>1183.52</ele>
        <time>2012-08-09T13:05:01Z</time>
      </trkpt>
      <trkpt lat="61.5556010418" lon="8.79321397282">
        <ele>1184</ele>
        <time>2012-08-09T13:05:12Z</time>
      </trkpt>
      <trkpt lat="61.5555919055" lon="8.79323920235">
        <ele>1183.52</ele>
        <time>2012-08-09T13:05:23Z</time>
      </trkpt>
      <trkpt lat="61.5555914864" lon="8.7932486739">
        <ele>1184</ele>
        <time>2012-08-09T13:05:28Z</time>
      </trkpt>
      <trkpt lat="61.5555420332" lon="8.79319335334">
        <ele>1184</ele>
        <time>2012-08-09T13:05:33Z</time>
      </trkpt>
      <trkpt lat="61.5554948431" lon="8.79313384183">
        <ele>1184</ele>
        <time>2012-08-09T13:05:44Z</time>
      </trkpt>
      <trkpt lat="61.5555121936" lon="8.79312990233">
        <ele>1184</ele>
        <time>2012-08-09T13:06:00Z</time>
      </trkpt>
      <trkpt lat="61.5555122774" lon="8.79312705249">
        <ele>1183.52</ele>
        <time>2012-08-09T13:06:17Z</time>
      </trkpt>
      <trkpt lat="61.5554428753" lon="8.79309126176">
        <ele>1184.48</ele>
        <time>2012-08-09T13:06:31Z</time>
      </trkpt>
      <trkpt lat="61.555388812" lon="8.79312026314">
        <ele>1184.48</ele>
        <time>2012-08-09T13:06:45Z</time>
      </trkpt>
      <trkpt lat="61.5553655941" lon="8.79311598837">
        <ele>1184</ele>
        <time>2012-08-09T13:06:48Z</time>
      </trkpt>
      <trkpt lat="61.5552794281" lon="8.79310207441">
        <ele>1184</ele>
        <time>2012-08-09T13:07:00Z</time>
      </trkpt>
      <trkpt lat="61.5552685317" lon="8.79310299642">
        <ele>1184</ele>
        <time>2012-08-09T13:07:01Z</time>
      </trkpt>
      <trkpt lat="61.5551895741" lon="8.79311540164">
        <ele>1184.96</ele>
        <time>2012-08-09T13:07:12Z</time>
      </trkpt>
      <trkpt lat="61.5550821181" lon="8.79305371083">
        <ele>1185.44</ele>
        <time>2012-08-09T13:07:25Z</time>
      </trkpt>
      <trkpt lat="61.555059487" lon="8.79304968752">
        <ele>1185.44</ele>
        <time>2012-08-09T13:07:28Z</time>
      </trkpt>
      <trkpt lat="61.5549963713" lon="8.79302370362">
        <ele>1186.4</ele>
        <time>2012-08-09T13:07:39Z</time>
      </trkpt>
      <trkpt lat="61.5549586527" lon="8.79298062064">
        <ele>1187.37</ele>
        <time>2012-08-09T13:07:46Z</time>
      </trkpt>
      <trkpt lat="61.5549468342" lon="8.79295111634">
        <ele>1186.88</ele>
        <time>2012-08-09T13:07:47Z</time>
      </trkpt>
      <trkpt lat="61.5549443197" lon="8.79291582853">
        <ele>1185.92</ele>
        <time>2012-08-09T13:07:51Z</time>
      </trkpt>
      <trkpt lat="61.5549239516" lon="8.7929056026">
        <ele>1186.4</ele>
        <time>2012-08-09T13:08:02Z</time>
      </trkpt>
      <trkpt lat="61.5549102891" lon="8.7928870786">
        <ele>1186.4</ele>
        <time>2012-08-09T13:08:17Z</time>
      </trkpt>
      <trkpt lat="61.5548894182" lon="8.7928870786">
        <ele>1186.88</ele>
        <time>2012-08-09T13:08:19Z</time>
      </trkpt>
      <trkpt lat="61.5547691379" lon="8.79288171418">
        <ele>1185.92</ele>
        <time>2012-08-09T13:08:32Z</time>
      </trkpt>
      <trkpt lat="61.554711638" lon="8.79285321571">
        <ele>1185.92</ele>
        <time>2012-08-09T13:08:39Z</time>
      </trkpt>
      <trkpt lat="61.5546549764" lon="8.79283075221">
        <ele>1186.4</ele>
        <time>2012-08-09T13:08:43Z</time>
      </trkpt>
      <trkpt lat="61.5546263941" lon="8.79281105474">
        <ele>1185.92</ele>
        <time>2012-08-09T13:08:46Z</time>
      </trkpt>
      <trkpt lat="61.5546003263" lon="8.79283368587">
        <ele>1185.92</ele>
        <time>2012-08-09T13:08:49Z</time>
      </trkpt>
      <trkpt lat="61.5545269847" lon="8.79280929454">
        <ele>1186.4</ele>
        <time>2012-08-09T13:08:56Z</time>
      </trkpt>
      <trkpt lat="61.5544533078" lon="8.79282345995">
        <ele>1186.88</ele>
        <time>2012-08-09T13:09:07Z</time>
      </trkpt>
      <trkpt lat="61.5544136614" lon="8.79270074889">
        <ele>1187.85</ele>
        <time>2012-08-09T13:09:19Z</time>
      </trkpt>
      <trkpt lat="61.5544173494" lon="8.79256814718">
        <ele>1189.29</ele>
        <time>2012-08-09T13:09:30Z</time>
      </trkpt>
      <trkpt lat="61.5544103924" lon="8.79254945554">
        <ele>1188.81</ele>
        <time>2012-08-09T13:09:51Z</time>
      </trkpt>
      <trkpt lat="61.5544230491" lon="8.79248952493">
        <ele>1188.81</ele>
        <time>2012-08-09T13:10:25Z</time>
      </trkpt>
      <trkpt lat="61.5544053633" lon="8.79251617938">
        <ele>1188.81</ele>
        <time>2012-08-09T13:10:44Z</time>
      </trkpt>
      <trkpt lat="61.5544192772" lon="8.79252657294">
        <ele>1188.81</ele>
        <time>2012-08-09T13:11:17Z</time>
      </trkpt>
      <trkpt lat="61.5543935448" lon="8.79251542501">
        <ele>1189.77</ele>
        <time>2012-08-09T13:11:24Z</time>
      </trkpt>
      <trkpt lat="61.5543217957" lon="8.79250008613">
        <ele>1189.77</ele>
        <time>2012-08-09T13:11:32Z</time>
      </trkpt>
      <trkpt lat="61.5542736836" lon="8.79252204672">
        <ele>1190.73</ele>
        <time>2012-08-09T13:11:38Z</time>
      </trkpt>
      <trkpt lat="61.5541716758" lon="8.79255121574">
        <ele>1191.69</ele>
        <time>2012-08-09T13:11:51Z</time>
      </trkpt>
      <trkpt lat="61.5540554188" lon="8.79262614995">
        <ele>1192.17</ele>
        <time>2012-08-09T13:12:06Z</time>
      </trkpt>
      <trkpt lat="61.5539949853" lon="8.79266093485">
        <ele>1193.61</ele>
        <time>2012-08-09T13:12:18Z</time>
      </trkpt>
      <trkpt lat="61.5539526567" lon="8.79274617881">
        <ele>1194.58</ele>
        <time>2012-08-09T13:12:29Z</time>
      </trkpt>
      <trkpt lat="61.5539094899" lon="8.79293083213">
        <ele>1195.06</ele>
        <time>2012-08-09T13:12:42Z</time>
      </trkpt>
      <trkpt lat="61.553880237" lon="8.79300844856">
        <ele>1195.54</ele>
        <time>2012-08-09T13:12:48Z</time>
      </trkpt>
      <trkpt lat="61.5538566001" lon="8.79307969473">
        <ele>1195.54</ele>
        <time>2012-08-09T13:12:52Z</time>
      </trkpt>
      <trkpt lat="61.5538215637" lon="8.79316653125">
        <ele>1196.02</ele>
        <time>2012-08-09T13:12:58Z</time>
      </trkpt>
      <trkpt lat="61.5538007766" lon="8.7931967061">
        <ele>1196.02</ele>
        <time>2012-08-09T13:13:01Z</time>
      </trkpt>
      <trkpt lat="61.5537364874" lon="8.7932469137">
        <ele>1196.5</ele>
        <time>2012-08-09T13:13:10Z</time>
      </trkpt>
      <trkpt lat="61.5536771435" lon="8.7933856342">
        <ele>1197.46</ele>
        <time>2012-08-09T13:13:21Z</time>
      </trkpt>
      <trkpt lat="61.5535772312" lon="8.79343768582">
        <ele>1198.9</ele>
        <time>2012-08-09T13:13:36Z</time>
      </trkpt>
      <trkpt lat="61.5535247605" lon="8.79355846904">
        <ele>1200.34</ele>
        <time>2012-08-09T13:13:48Z</time>
      </trkpt>
      <trkpt lat="61.5534528438" lon="8.79362736829">
        <ele>1201.3</ele>
        <time>2012-08-09T13:14:01Z</time>
      </trkpt>
      <trkpt lat="61.5533949248" lon="8.79372065887">
        <ele>1202.75</ele>
        <time>2012-08-09T13:14:13Z</time>
      </trkpt>
      <trkpt lat="61.5533562843" lon="8.79376281984">
        <ele>1203.71</ele>
        <time>2012-08-09T13:14:23Z</time>
      </trkpt>
      <trkpt lat="61.5533447172" lon="8.79378771409">
        <ele>1204.19</ele>
        <time>2012-08-09T13:14:25Z</time>
      </trkpt>
      <trkpt lat="61.5532742254" lon="8.79398158751">
        <ele>1204.19</ele>
        <time>2012-08-09T13:14:39Z</time>
      </trkpt>
      <trkpt lat="61.5532551147" lon="8.79399675876">
        <ele>1204.19</ele>
        <time>2012-08-09T13:14:55Z</time>
      </trkpt>
      <trkpt lat="61.5531909931" lon="8.79421225749">
        <ele>1203.71</ele>
        <time>2012-08-09T13:15:08Z</time>
      </trkpt>
      <trkpt lat="61.5530909132" lon="8.7944140099">
        <ele>1204.67</ele>
        <time>2012-08-09T13:15:23Z</time>
      </trkpt>
      <trkpt lat="61.5529915038" lon="8.79464761354">
        <ele>1205.15</ele>
        <time>2012-08-09T13:15:38Z</time>
      </trkpt>
      <trkpt lat="61.5529132169" lon="8.79483511671">
        <ele>1204.67</ele>
        <time>2012-08-09T13:15:50Z</time>
      </trkpt>
      <trkpt lat="61.5528893284" lon="8.79484634846">
        <ele>1202.75</ele>
        <time>2012-08-09T13:15:59Z</time>
      </trkpt>
      <trkpt lat="61.5528438985" lon="8.79489898682">
        <ele>1202.75</ele>
        <time>2012-08-09T13:16:05Z</time>
      </trkpt>
      <trkpt lat="61.55279411" lon="8.79496050999">
        <ele>1202.27</ele>
        <time>2012-08-09T13:16:12Z</time>
      </trkpt>
      <trkpt lat="61.5527692158" lon="8.79510484636">
        <ele>1201.3</ele>
        <time>2012-08-09T13:16:21Z</time>
      </trkpt>
      <trkpt lat="61.5527459141" lon="8.79519478418">
        <ele>1201.3</ele>
        <time>2012-08-09T13:16:27Z</time>
      </trkpt>
      <trkpt lat="61.5526648611" lon="8.79526686855">
        <ele>1202.27</ele>
        <time>2012-08-09T13:16:41Z</time>
      </trkpt>
      <trkpt lat="61.5525954589" lon="8.79545210861">
        <ele>1202.27</ele>
        <time>2012-08-09T13:16:54Z</time>
      </trkpt>
      <trkpt lat="61.552568553" lon="8.7955066748">
        <ele>1202.75</ele>
        <time>2012-08-09T13:16:59Z</time>
      </trkpt>
      <trkpt lat="61.5524640307" lon="8.79564430565">
        <ele>1203.71</ele>
        <time>2012-08-09T13:17:14Z</time>
      </trkpt>
      <trkpt lat="61.552380044" lon="8.7957660947">
        <ele>1204.19</ele>
        <time>2012-08-09T13:17:29Z</time>
      </trkpt>
      <trkpt lat="61.5523223765" lon="8.79577917047">
        <ele>1204.67</ele>
        <time>2012-08-09T13:17:42Z</time>
      </trkpt>
      <trkpt lat="61.5522132441" lon="8.79586357623">
        <ele>1206.59</ele>
        <time>2012-08-09T13:17:57Z</time>
      </trkpt>
      <trkpt lat="61.5521408245" lon="8.79596365616">
        <ele>1207.55</ele>
        <time>2012-08-09T13:18:10Z</time>
      </trkpt>
      <trkpt lat="61.5520714223" lon="8.79600942135">
        <ele>1208.51</ele>
        <time>2012-08-09T13:18:20Z</time>
      </trkpt>
      <trkpt lat="61.5519973263" lon="8.79604655318">
        <ele>1209.96</ele>
        <time>2012-08-09T13:18:34Z</time>
      </trkpt>
      <trkpt lat="61.551937731" lon="8.79611000419">
        <ele>1210.92</ele>
        <time>2012-08-09T13:18:43Z</time>
      </trkpt>
      <trkpt lat="61.5518661495" lon="8.796154093">
        <ele>1211.88</ele>
        <time>2012-08-09T13:18:57Z</time>
      </trkpt>
      <trkpt lat="61.5518678259" lon="8.79612961784">
        <ele>1211.88</ele>
        <time>2012-08-09T13:19:16Z</time>
      </trkpt>
      <trkpt lat="61.5518792253" lon="8.79613045603">
        <ele>1211.88</ele>
        <time>2012-08-09T13:19:38Z</time>
      </trkpt>
      <trkpt lat="61.5518681612" lon="8.79614772275">
        <ele>1211.88</ele>
        <time>2012-08-09T13:20:05Z</time>
      </trkpt>
      <trkpt lat="61.5518735256" lon="8.79610723816">
        <ele>1211.88</ele>
        <time>2012-08-09T13:20:31Z</time>
      </trkpt>
      <trkpt lat="61.5518754534" lon="8.79612484016">
        <ele>1211.4</ele>
        <time>2012-08-09T13:20:54Z</time>
      </trkpt>
      <trkpt lat="61.551855756" lon="8.79612961784">
        <ele>1211.88</ele>
        <time>2012-08-09T13:21:06Z</time>
      </trkpt>
      <trkpt lat="61.5518081468" lon="8.79619625397">
        <ele>1212.36</ele>
        <time>2012-08-09T13:21:22Z</time>
      </trkpt>
      <trkpt lat="61.5517103299" lon="8.7962699309">
        <ele>1212.84</ele>
        <time>2012-08-09T13:21:35Z</time>
      </trkpt>
      <trkpt lat="61.5516136866" lon="8.79627848044">
        <ele>1213.8</ele>
        <time>2012-08-09T13:21:48Z</time>
      </trkpt>
      <trkpt lat="61.5515159536" lon="8.79635651596">
        <ele>1215.72</ele>
        <time>2012-08-09T13:22:01Z</time>
      </trkpt>
      <trkpt lat="61.5514777321" lon="8.79641795531">
        <ele>1215.72</ele>
        <time>2012-08-09T13:22:06Z</time>
      </trkpt>
      <trkpt lat="61.5514376666" lon="8.79644695669">
        <ele>1216.69</ele>
        <time>2012-08-09T13:22:10Z</time>
      </trkpt>
      <trkpt lat="61.5513562784" lon="8.7965553347">
        <ele>1216.69</ele>
        <time>2012-08-09T13:22:20Z</time>
      </trkpt>
      <trkpt lat="61.5512273647" lon="8.79671811126">
        <ele>1216.21</ele>
        <time>2012-08-09T13:22:34Z</time>
      </trkpt>
      <trkpt lat="61.5511342417" lon="8.79674166441">
        <ele>1215.24</ele>
        <time>2012-08-09T13:22:45Z</time>
      </trkpt>
      <trkpt lat="61.5511216689" lon="8.79678684287">
        <ele>1216.21</ele>
        <time>2012-08-09T13:22:49Z</time>
      </trkpt>
      <trkpt lat="61.5511004627" lon="8.79693092778">
        <ele>1216.21</ele>
        <time>2012-08-09T13:23:02Z</time>
      </trkpt>
      <trkpt lat="61.551079005" lon="8.79699924029">
        <ele>1216.69</ele>
        <time>2012-08-09T13:23:14Z</time>
      </trkpt>
      <trkpt lat="61.5510571282" lon="8.79719319753">
        <ele>1218.13</ele>
        <time>2012-08-09T13:23:26Z</time>
      </trkpt>
      <trkpt lat="61.5510458965" lon="8.79729688168">
        <ele>1218.13</ele>
        <time>2012-08-09T13:23:32Z</time>
      </trkpt>
      <trkpt lat="61.5510330722" lon="8.79732085392">
        <ele>1218.13</ele>
        <time>2012-08-09T13:23:34Z</time>
      </trkpt>
      <trkpt lat="61.5510219242" lon="8.79736930132">
        <ele>1218.13</ele>
        <time>2012-08-09T13:23:37Z</time>
      </trkpt>
      <trkpt lat="61.5509359259" lon="8.79763760604">
        <ele>1218.61</ele>
        <time>2012-08-09T13:23:53Z</time>
      </trkpt>
      <trkpt lat="61.5508771688" lon="8.79777247086">
        <ele>1218.61</ele>
        <time>2012-08-09T13:24:04Z</time>
      </trkpt>
      <trkpt lat="61.5508560464" lon="8.7978070043">
        <ele>1219.57</ele>
        <time>2012-08-09T13:24:07Z</time>
      </trkpt>
      <trkpt lat="61.5507692937" lon="8.79791462794">
        <ele>1219.09</ele>
        <time>2012-08-09T13:24:19Z</time>
      </trkpt>
      <trkpt lat="61.5506918449" lon="8.79800238647">
        <ele>1218.61</ele>
        <time>2012-08-09T13:24:28Z</time>
      </trkpt>
      <trkpt lat="61.5506703872" lon="8.79803440534">
        <ele>1218.13</ele>
        <time>2012-08-09T13:24:31Z</time>
      </trkpt>
      <trkpt lat="61.5505495202" lon="8.79805485718">
        <ele>1217.17</ele>
        <time>2012-08-09T13:24:43Z</time>
      </trkpt>
      <trkpt lat="61.5504535474" lon="8.79809802398">
        <ele>1216.69</ele>
        <time>2012-08-09T13:24:55Z</time>
      </trkpt>
      <trkpt lat="61.5504387114" lon="8.79812669009">
        <ele>1216.69</ele>
        <time>2012-08-09T13:24:57Z</time>
      </trkpt>
      <trkpt lat="61.5503517073" lon="8.79817974754">
        <ele>1218.61</ele>
        <time>2012-08-09T13:25:11Z</time>
      </trkpt>
      <trkpt lat="61.5502719115" lon="8.79829114303">
        <ele>1220.53</ele>
        <time>2012-08-09T13:25:25Z</time>
      </trkpt>
      <trkpt lat="61.5502051916" lon="8.79842642695">
        <ele>1221.01</ele>
        <time>2012-08-09T13:25:38Z</time>
      </trkpt>
      <trkpt lat="61.550138304" lon="8.79858761095">
        <ele>1222.45</ele>
        <time>2012-08-09T13:25:53Z</time>
      </trkpt>
      <trkpt lat="61.5501351189" lon="8.79859775305">
        <ele>1222.45</ele>
        <time>2012-08-09T13:25:54Z</time>
      </trkpt>
      <trkpt lat="61.5500516351" lon="8.79878684878">
        <ele>1223.9</ele>
        <time>2012-08-09T13:26:08Z</time>
      </trkpt>
      <trkpt lat="61.5500353742" lon="8.79884258844">
        <ele>1224.38</ele>
        <time>2012-08-09T13:26:12Z</time>
      </trkpt>
      <trkpt lat="61.5499726776" lon="8.79890704527">
        <ele>1224.38</ele>
        <time>2012-08-09T13:26:18Z</time>
      </trkpt>
      <trkpt lat="61.5498561691" lon="8.79906018265">
        <ele>1223.9</ele>
        <time>2012-08-09T13:26:30Z</time>
      </trkpt>
      <trkpt lat="61.5498479549" lon="8.79906856455">
        <ele>1223.9</ele>
        <time>2012-08-09T13:26:31Z</time>
      </trkpt>
      <trkpt lat="61.549823815" lon="8.79913763143">
        <ele>1223.9</ele>
        <time>2012-08-09T13:26:35Z</time>
      </trkpt>
      <trkpt lat="61.5497373138" lon="8.79932303913">
        <ele>1223.9</ele>
        <time>2012-08-09T13:26:48Z</time>
      </trkpt>
      <trkpt lat="61.5497211367" lon="8.79934499972">
        <ele>1224.38</ele>
        <time>2012-08-09T13:27:08Z</time>
      </trkpt>
      <trkpt lat="61.5496847592" lon="8.79937936552">
        <ele>1224.38</ele>
        <time>2012-08-09T13:27:28Z</time>
      </trkpt>
      <trkpt lat="61.5495942347" lon="8.79953510128">
        <ele>1222.93</ele>
        <time>2012-08-09T13:27:39Z</time>
      </trkpt>
      <trkpt lat="61.5495688375" lon="8.79955253564">
        <ele>1222.93</ele>
        <time>2012-08-09T13:27:41Z</time>
      </trkpt>
      <trkpt lat="61.5494703501" lon="8.79976216704">
        <ele>1220.53</ele>
        <time>2012-08-09T13:27:55Z</time>
      </trkpt>
      <trkpt lat="61.5494103357" lon="8.79991371185">
        <ele>1219.09</ele>
        <time>2012-08-09T13:28:07Z</time>
      </trkpt>
      <trkpt lat="61.5493380837" lon="8.79994061776">
        <ele>1218.13</ele>
        <time>2012-08-09T13:28:19Z</time>
      </trkpt>
      <trkpt lat="61.5493214875" lon="8.7999536097">
        <ele>1218.13</ele>
        <time>2012-08-09T13:28:21Z</time>
      </trkpt>
      <trkpt lat="61.5492915642" lon="8.79997724667">
        <ele>1217.17</ele>
        <time>2012-08-09T13:28:24Z</time>
      </trkpt>
      <trkpt lat="61.5492460504" lon="8.80001119338">
        <ele>1217.17</ele>
        <time>2012-08-09T13:28:33Z</time>
      </trkpt>
      <trkpt lat="61.5491784923" lon="8.80018302239">
        <ele>1217.65</ele>
        <time>2012-08-09T13:28:47Z</time>
      </trkpt>
      <trkpt lat="61.5491188131" lon="8.80026608706">
        <ele>1218.61</ele>
        <time>2012-08-09T13:28:59Z</time>
      </trkpt>
      <trkpt lat="61.5490662586" lon="8.80034261383">
        <ele>1220.05</ele>
        <time>2012-08-09T13:29:10Z</time>
      </trkpt>
      <trkpt lat="61.5489818528" lon="8.80040489137">
        <ele>1221.01</ele>
        <time>2012-08-09T13:29:23Z</time>
      </trkpt>
      <trkpt lat="61.5489475708" lon="8.80042634904">
        <ele>1221.97</ele>
        <time>2012-08-09T13:29:28Z</time>
      </trkpt>
      <trkpt lat="61.5488503408" lon="8.80050161853">
        <ele>1222.93</ele>
        <time>2012-08-09T13:29:41Z</time>
      </trkpt>
      <trkpt lat="61.5488389414" lon="8.80050840788">
        <ele>1222.93</ele>
        <time>2012-08-09T13:29:42Z</time>
      </trkpt>
      <trkpt lat="61.5488021448" lon="8.80053078756">
        <ele>1222.93</ele>
        <time>2012-08-09T13:29:47Z</time>
      </trkpt>
      <trkpt lat="61.5486759134" lon="8.80065324716">
        <ele>1222.93</ele>
        <time>2012-08-09T13:30:01Z</time>
      </trkpt>
      <trkpt lat="61.5486136358" lon="8.80077931099">
        <ele>1222.45</ele>
        <time>2012-08-09T13:30:14Z</time>
      </trkpt>
      <trkpt lat="61.5485705528" lon="8.80085147917">
        <ele>1222.93</ele>
        <time>2012-08-09T13:30:22Z</time>
      </trkpt>
      <trkpt lat="61.5484909248" lon="8.80097737536">
        <ele>1221.97</ele>
        <time>2012-08-09T13:30:34Z</time>
      </trkpt>
      <trkpt lat="61.5484270547" lon="8.80105013028">
        <ele>1221.01</ele>
        <time>2012-08-09T13:30:42Z</time>
      </trkpt>
      <trkpt lat="61.548337955" lon="8.80120662041">
        <ele>1221.49</ele>
        <time>2012-08-09T13:30:55Z</time>
      </trkpt>
      <trkpt lat="61.5482703969" lon="8.80121533759">
        <ele>1221.49</ele>
        <time>2012-08-09T13:31:03Z</time>
      </trkpt>
      <trkpt lat="61.5481651202" lon="8.80127971061">
        <ele>1221.97</ele>
        <time>2012-08-09T13:31:16Z</time>
      </trkpt>
      <trkpt lat="61.5481450874" lon="8.80130192265">
        <ele>1221.97</ele>
        <time>2012-08-09T13:31:19Z</time>
      </trkpt>
      <trkpt lat="61.5480500367" lon="8.80142119713">
        <ele>1221.49</ele>
        <time>2012-08-09T13:31:32Z</time>
      </trkpt>
      <trkpt lat="61.5480466001" lon="8.80143125542">
        <ele>1221.49</ele>
        <time>2012-08-09T13:31:33Z</time>
      </trkpt>
      <trkpt lat="61.5479327738" lon="8.80158992484">
        <ele>1221.49</ele>
        <time>2012-08-09T13:31:47Z</time>
      </trkpt>
      <trkpt lat="61.5479077119" lon="8.80161867477">
        <ele>1221.01</ele>
        <time>2012-08-09T13:31:55Z</time>
      </trkpt>
      <trkpt lat="61.547837304" lon="8.80167684518">
        <ele>1221.97</ele>
        <time>2012-08-09T13:32:02Z</time>
      </trkpt>
      <trkpt lat="61.5477224719" lon="8.80167022347">
        <ele>1221.97</ele>
        <time>2012-08-09T13:32:11Z</time>
      </trkpt>
      <trkpt lat="61.5476745274" lon="8.80162303336">
        <ele>1221.97</ele>
        <time>2012-08-09T13:32:16Z</time>
      </trkpt>
      <trkpt lat="61.5475888643" lon="8.80158598535">
        <ele>1221.97</ele>
        <time>2012-08-09T13:32:24Z</time>
      </trkpt>
      <trkpt lat="61.5474205557" lon="8.80152915604">
        <ele>1221.97</ele>
        <time>2012-08-09T13:32:40Z</time>
      </trkpt>
      <trkpt lat="61.5473727789" lon="8.80145296454">
        <ele>1221.49</ele>
        <time>2012-08-09T13:32:45Z</time>
      </trkpt>
      <trkpt lat="61.5473399218" lon="8.80149168894">
        <ele>1221.01</ele>
        <time>2012-08-09T13:32:53Z</time>
      </trkpt>
      <trkpt lat="61.5472091641" lon="8.80132908002">
        <ele>1222.45</ele>
        <time>2012-08-09T13:33:05Z</time>
      </trkpt>
      <trkpt lat="61.5471940767" lon="8.80133117549">
        <ele>1222.93</ele>
        <time>2012-08-09T13:33:16Z</time>
      </trkpt>
      <trkpt lat="61.5471489821" lon="8.80123486742">
        <ele>1222.93</ele>
        <time>2012-08-09T13:33:22Z</time>
      </trkpt>
      <trkpt lat="61.5471183043" lon="8.80105784163">
        <ele>1223.42</ele>
        <time>2012-08-09T13:33:35Z</time>
      </trkpt>
      <trkpt lat="61.5471052285" lon="8.80105591379">
        <ele>1223.42</ele>
        <time>2012-08-09T13:33:48Z</time>
      </trkpt>
      <trkpt lat="61.5470894706" lon="8.80103956908">
        <ele>1223.42</ele>
        <time>2012-08-09T13:33:58Z</time>
      </trkpt>
      <trkpt lat="61.5470945835" lon="8.80103646778">
        <ele>1223.42</ele>
        <time>2012-08-09T13:34:23Z</time>
      </trkpt>
      <trkpt lat="61.5471007023" lon="8.80102624185">
        <ele>1222.45</ele>
        <time>2012-08-09T13:34:46Z</time>
      </trkpt>
      <trkpt lat="61.5470991097" lon="8.8010185305">
        <ele>1223.42</ele>
        <time>2012-08-09T13:35:12Z</time>
      </trkpt>
      <trkpt lat="61.5471092518" lon="8.80103319883">
        <ele>1223.42</ele>
        <time>2012-08-09T13:35:39Z</time>
      </trkpt>
      <trkpt lat="61.547107324" lon="8.80103009753">
        <ele>1223.9</ele>
        <time>2012-08-09T13:35:59Z</time>
      </trkpt>
      <trkpt lat="61.5470965952" lon="8.80104049109">
        <ele>1223.42</ele>
        <time>2012-08-09T13:36:05Z</time>
      </trkpt>
      <trkpt lat="61.5471147001" lon="8.80107519217">
        <ele>1223.42</ele>
        <time>2012-08-09T13:36:17Z</time>
      </trkpt>
      <trkpt lat="61.5471122693" lon="8.80109103397">
        <ele>1223.42</ele>
        <time>2012-08-09T13:36:28Z</time>
      </trkpt>
      <trkpt lat="61.5471239202" lon="8.80111358128">
        <ele>1222.93</ele>
        <time>2012-08-09T13:36:46Z</time>
      </trkpt>
      <trkpt lat="61.5471162088" lon="8.80111735314">
        <ele>1222.93</ele>
        <time>2012-08-09T13:37:12Z</time>
      </trkpt>
      <trkpt lat="61.5471237525" lon="8.80111793987">
        <ele>1222.93</ele>
        <time>2012-08-09T13:37:32Z</time>
      </trkpt>
      <trkpt lat="61.54712677" lon="8.80112062208">
        <ele>1222.93</ele>
        <time>2012-08-09T13:37:56Z</time>
      </trkpt>
      <trkpt lat="61.547106402" lon="8.8011193648">
        <ele>1223.42</ele>
        <time>2012-08-09T13:38:09Z</time>
      </trkpt>
      <trkpt lat="61.5471020434" lon="8.80110109225">
        <ele>1223.42</ele>
        <time>2012-08-09T13:38:30Z</time>
      </trkpt>
      <trkpt lat="61.547111515" lon="8.80111802369">
        <ele>1222.93</ele>
        <time>2012-08-09T13:38:51Z</time>
      </trkpt>
      <trkpt lat="61.5471080784" lon="8.80112146027">
        <ele>1222.93</ele>
        <time>2012-08-09T13:39:14Z</time>
      </trkpt>
      <trkpt lat="61.547106402" lon="8.80110804923">
        <ele>1222.93</ele>
        <time>2012-08-09T13:39:40Z</time>
      </trkpt>
      <trkpt lat="61.5470933262" lon="8.80106437951">
        <ele>1222.93</ele>
        <time>2012-08-09T13:39:54Z</time>
      </trkpt>
      <trkpt lat="61.5470929071" lon="8.80107142031">
        <ele>1221.97</ele>
        <time>2012-08-09T13:40:08Z</time>
      </trkpt>
      <trkpt lat="61.547092488" lon="8.80107980222">
        <ele>1222.93</ele>
        <time>2012-08-09T13:40:14Z</time>
      </trkpt>
      <trkpt lat="61.5470898896" lon="8.80106764846">
        <ele>1222.45</ele>
        <time>2012-08-09T13:40:27Z</time>
      </trkpt>
      <trkpt lat="61.5470996127" lon="8.80107720383">
        <ele>1222.45</ele>
        <time>2012-08-09T13:40:33Z</time>
      </trkpt>
      <trkpt lat="61.5470898058" lon="8.8011607714">
        <ele>1222.45</ele>
        <time>2012-08-09T13:40:43Z</time>
      </trkpt>
      <trkpt lat="61.5470943321" lon="8.80113453604">
        <ele>1221.97</ele>
        <time>2012-08-09T13:40:57Z</time>
      </trkpt>
      <trkpt lat="61.5470685996" lon="8.80113277584">
        <ele>1221.49</ele>
        <time>2012-08-09T13:41:17Z</time>
      </trkpt>
      <trkpt lat="61.5470674261" lon="8.80112531595">
        <ele>1225.34</ele>
        <time>2012-08-09T13:41:20Z</time>
      </trkpt>
      <trkpt lat="61.5470691025" lon="8.80112539977">
        <ele>1221.97</ele>
        <time>2012-08-09T13:41:21Z</time>
      </trkpt>
      <trkpt lat="61.5470812563" lon="8.80109069869">
        <ele>1221.97</ele>
        <time>2012-08-09T13:41:35Z</time>
      </trkpt>
      <trkpt lat="61.5470758919" lon="8.80109396763">
        <ele>1221.97</ele>
        <time>2012-08-09T13:41:55Z</time>
      </trkpt>
      <trkpt lat="61.54708419" lon="8.8011021819">
        <ele>1221.97</ele>
        <time>2012-08-09T13:42:09Z</time>
      </trkpt>
      <trkpt lat="61.5470849443" lon="8.80113981664">
        <ele>1222.45</ele>
        <time>2012-08-09T13:42:24Z</time>
      </trkpt>
      <trkpt lat="61.5471103415" lon="8.80109857768">
        <ele>1222.45</ele>
        <time>2012-08-09T13:42:34Z</time>
      </trkpt>
      <trkpt lat="61.5471198969" lon="8.80107703619">
        <ele>1222.93</ele>
        <time>2012-08-09T13:42:47Z</time>
      </trkpt>
      <trkpt lat="61.5471359901" lon="8.80107276142">
        <ele>1221.97</ele>
        <time>2012-08-09T13:43:01Z</time>
      </trkpt>
      <trkpt lat="61.5471302066" lon="8.80108248442">
        <ele>1222.45</ele>
        <time>2012-08-09T13:43:05Z</time>
      </trkpt>
      <trkpt lat="61.5470899735" lon="8.80108784884">
        <ele>1221.97</ele>
        <time>2012-08-09T13:43:17Z</time>
      </trkpt>
      <trkpt lat="61.5471159574" lon="8.80111534148">
        <ele>1222.45</ele>
        <time>2012-08-09T13:43:20Z</time>
      </trkpt>
      <trkpt lat="61.5470977686" lon="8.80110385828">
        <ele>1221.49</ele>
        <time>2012-08-09T13:43:31Z</time>
      </trkpt>
      <trkpt lat="61.5470970143" lon="8.80109807476">
        <ele>1221.97</ele>
        <time>2012-08-09T13:43:50Z</time>
      </trkpt>
      <trkpt lat="61.5471167956" lon="8.80108877085">
        <ele>1222.45</ele>
        <time>2012-08-09T13:44:22Z</time>
      </trkpt>
      <trkpt lat="61.5470888838" lon="8.80110536702">
        <ele>1221.97</ele>
        <time>2012-08-09T13:44:38Z</time>
      </trkpt>
      <trkpt lat="61.5470875427" lon="8.80110050552">
        <ele>1221.01</ele>
        <time>2012-08-09T13:44:40Z</time>
      </trkpt>
      <trkpt lat="61.5470851958" lon="8.80111467093">
        <ele>1222.45</ele>
        <time>2012-08-09T13:44:45Z</time>
      </trkpt>
      <trkpt lat="61.5471183043" lon="8.80115222186">
        <ele>1222.93</ele>
        <time>2012-08-09T13:45:08Z</time>
      </trkpt>
      <trkpt lat="61.5471046418" lon="8.80114417523">
        <ele>1220.53</ele>
        <time>2012-08-09T13:45:29Z</time>
      </trkpt>
      <trkpt lat="61.5471060667" lon="8.80114736035">
        <ele>1220.53</ele>
        <time>2012-08-09T13:45:30Z</time>
      </trkpt>
      <trkpt lat="61.5471048933" lon="8.80114903674">
        <ele>1221.97</ele>
        <time>2012-08-09T13:45:32Z</time>
      </trkpt>
      <trkpt lat="61.5471043903" lon="8.80115699954">
        <ele>1226.3</ele>
        <time>2012-08-09T13:45:36Z</time>
      </trkpt>
      <trkpt lat="61.5471041389" lon="8.80114945583">
        <ele>1221.97</ele>
        <time>2012-08-09T13:45:37Z</time>
      </trkpt>
      <trkpt lat="61.5471071564" lon="8.80113755353">
        <ele>1221.01</ele>
        <time>2012-08-09T13:45:39Z</time>
      </trkpt>
      <trkpt lat="61.5471064858" lon="8.80114652216">
        <ele>1222.45</ele>
        <time>2012-08-09T13:45:59Z</time>
      </trkpt>
      <trkpt lat="61.5471105929" lon="8.80112196319">
        <ele>1225.34</ele>
        <time>2012-08-09T13:46:21Z</time>
      </trkpt>
      <trkpt lat="61.5471103415" lon="8.80112137645">
        <ele>1221.49</ele>
        <time>2012-08-09T13:46:22Z</time>
      </trkpt>
      <trkpt lat="61.5470998641" lon="8.80112355575">
        <ele>1221.97</ele>
        <time>2012-08-09T13:46:45Z</time>
      </trkpt>
      <trkpt lat="61.5471009538" lon="8.80112514831">
        <ele>1223.42</ele>
        <time>2012-08-09T13:46:47Z</time>
      </trkpt>
      <trkpt lat="61.547102714" lon="8.80112162791">
        <ele>1220.05</ele>
        <time>2012-08-09T13:46:49Z</time>
      </trkpt>
      <trkpt lat="61.5471009538" lon="8.80112104118">
        <ele>1223.9</ele>
        <time>2012-08-09T13:46:50Z</time>
      </trkpt>
      <trkpt lat="61.5470996127" lon="8.80112271756">
        <ele>1223.9</ele>
        <time>2012-08-09T13:46:51Z</time>
      </trkpt>
      <trkpt lat="61.5471024625" lon="8.80112514831">
        <ele>1221.97</ele>
        <time>2012-08-09T13:46:56Z</time>
      </trkpt>
      <trkpt lat="61.547117047" lon="8.80113076419">
        <ele>1222.45</ele>
        <time>2012-08-09T13:47:26Z</time>
      </trkpt>
      <trkpt lat="61.5471090842" lon="8.80112858489">
        <ele>1221.97</ele>
        <time>2012-08-09T13:47:53Z</time>
      </trkpt>
      <trkpt lat="61.5471105091" lon="8.8011105638">
        <ele>1221.97</ele>
        <time>2012-08-09T13:48:24Z</time>
      </trkpt>
      <trkpt lat="61.5471297037" lon="8.80112506449">
        <ele>1222.45</ele>
        <time>2012-08-09T13:48:57Z</time>
      </trkpt>
      <trkpt lat="61.547109168" lon="8.80112942308">
        <ele>1221.97</ele>
        <time>2012-08-09T13:49:27Z</time>
      </trkpt>
      <trkpt lat="61.5470944997" lon="8.80109857768">
        <ele>1221.97</ele>
        <time>2012-08-09T13:49:47Z</time>
      </trkpt>
      <trkpt lat="61.5471158735" lon="8.80108625628">
        <ele>1222.93</ele>
        <time>2012-08-09T13:50:06Z</time>
      </trkpt>
      <trkpt lat="61.5471076593" lon="8.80113805644">
        <ele>1222.93</ele>
        <time>2012-08-09T13:50:31Z</time>
      </trkpt>
      <trkpt lat="61.547148563" lon="8.80108290352">
        <ele>1222.93</ele>
        <time>2012-08-09T13:51:08Z</time>
      </trkpt>
      <trkpt lat="61.5471292846" lon="8.80110871978">
        <ele>1222.93</ele>
        <time>2012-08-09T13:51:46Z</time>
      </trkpt>
      <trkpt lat="61.547119813" lon="8.80112347193">
        <ele>1222.93</ele>
        <time>2012-08-09T13:52:19Z</time>
      </trkpt>
      <trkpt lat="61.54712677" lon="8.80110586993">
        <ele>1223.42</ele>
        <time>2012-08-09T13:52:55Z</time>
      </trkpt>
      <trkpt lat="61.5471120179" lon="8.8011347875">
        <ele>1223.42</ele>
        <time>2012-08-09T13:53:27Z</time>
      </trkpt>
      <trkpt lat="61.5471023787" lon="8.8011189457">
        <ele>1223.42</ele>
        <time>2012-08-09T13:53:58Z</time>
      </trkpt>
      <trkpt lat="61.5471008699" lon="8.80107896402">
        <ele>1223.9</ele>
        <time>2012-08-09T13:54:27Z</time>
      </trkpt>
      <trkpt lat="61.5471048933" lon="8.8011140842">
        <ele>1223.9</ele>
        <time>2012-08-09T13:55:02Z</time>
      </trkpt>
      <trkpt lat="61.5470987745" lon="8.80108742975">
        <ele>1210.92</ele>
        <time>2012-08-09T15:03:18Z</time>
      </trkpt>
      <trkpt lat="61.5471078269" lon="8.80103420466">
        <ele>1210.92</ele>
        <time>2012-08-09T15:03:19Z</time>
      </trkpt>
      <trkpt lat="61.5471084137" lon="8.80113855936">
        <ele>1214.28</ele>
        <time>2012-08-09T15:03:34Z</time>
      </trkpt>
      <trkpt lat="61.5470944159" lon="8.80110679194">
        <ele>1216.69</ele>
        <time>2012-08-09T15:03:52Z</time>
      </trkpt>
      <trkpt lat="61.5470810886" lon="8.80113529041">
        <ele>1217.17</ele>
        <time>2012-08-09T15:04:17Z</time>
      </trkpt>
      <trkpt lat="61.5470808372" lon="8.80112875253">
        <ele>1217.65</ele>
        <time>2012-08-09T15:04:35Z</time>
      </trkpt>
      <trkpt lat="61.547113359" lon="8.80113529041">
        <ele>1218.13</ele>
        <time>2012-08-09T15:04:47Z</time>
      </trkpt>
      <trkpt lat="61.5471229143" lon="8.80107670091">
        <ele>1218.13</ele>
        <time>2012-08-09T15:04:59Z</time>
      </trkpt>
      <trkpt lat="61.5471126884" lon="8.80120720714">
        <ele>1218.13</ele>
        <time>2012-08-09T15:05:10Z</time>
      </trkpt>
      <trkpt lat="61.5471083298" lon="8.80120268092">
        <ele>1217.65</ele>
        <time>2012-08-09T15:05:14Z</time>
      </trkpt>
      <trkpt lat="61.5470831003" lon="8.80121399648">
        <ele>1218.13</ele>
        <time>2012-08-09T15:05:17Z</time>
      </trkpt>
      <trkpt lat="61.5470718686" lon="8.8010951411">
        <ele>1217.17</ele>
        <time>2012-08-09T15:05:30Z</time>
      </trkpt>
      <trkpt lat="61.5470794961" lon="8.80110729486">
        <ele>1217.17</ele>
        <time>2012-08-09T15:05:45Z</time>
      </trkpt>
      <trkpt lat="61.5470936615" lon="8.80113671534">
        <ele>1218.13</ele>
        <time>2012-08-09T15:05:56Z</time>
      </trkpt>
      <trkpt lat="61.5471008699" lon="8.80118994042">
        <ele>1218.13</ele>
        <time>2012-08-09T15:05:59Z</time>
      </trkpt>
      <trkpt lat="61.5470463876" lon="8.80116655491">
        <ele>1217.65</ele>
        <time>2012-08-09T15:06:09Z</time>
      </trkpt>
      <trkpt lat="61.5470751375" lon="8.80116689019">
        <ele>1217.65</ele>
        <time>2012-08-09T15:06:26Z</time>
      </trkpt>
      <trkpt lat="61.5470882971" lon="8.80118440837">
        <ele>1217.65</ele>
        <time>2012-08-09T15:06:37Z</time>
      </trkpt>
      <trkpt lat="61.5471015405" lon="8.80110804923">
        <ele>1217.65</ele>
        <time>2012-08-09T15:06:48Z</time>
      </trkpt>
      <trkpt lat="61.5470952541" lon="8.80111240782">
        <ele>1218.13</ele>
        <time>2012-08-09T15:07:01Z</time>
      </trkpt>
      <trkpt lat="61.5471006185" lon="8.80111802369">
        <ele>1217.65</ele>
        <time>2012-08-09T15:07:15Z</time>
      </trkpt>
      <trkpt lat="61.5471038874" lon="8.80112154409">
        <ele>1217.65</ele>
        <time>2012-08-09T15:07:16Z</time>
      </trkpt>
      <trkpt lat="61.5470951702" lon="8.80122137256">
        <ele>1217.65</ele>
        <time>2012-08-09T15:07:23Z</time>
      </trkpt>
      <trkpt lat="61.5470711142" lon="8.80125079304">
        <ele>1217.65</ele>
        <time>2012-08-09T15:07:37Z</time>
      </trkpt>
      <trkpt lat="61.5470626485" lon="8.80117761903">
        <ele>1217.65</ele>
        <time>2012-08-09T15:07:52Z</time>
      </trkpt>
      <trkpt lat="61.5470662527" lon="8.80112414248">
        <ele>1217.65</ele>
        <time>2012-08-09T15:08:11Z</time>
      </trkpt>
      <trkpt lat="61.547095757" lon="8.80111047998">
        <ele>1217.65</ele>
        <time>2012-08-09T15:08:30Z</time>
      </trkpt>
      <trkpt lat="61.5470815077" lon="8.8011259865">
        <ele>1217.65</ele>
        <time>2012-08-09T15:08:45Z</time>
      </trkpt>
      <trkpt lat="61.5470842738" lon="8.80116580054">
        <ele>1218.13</ele>
        <time>2012-08-09T15:09:01Z</time>
      </trkpt>
      <trkpt lat="61.5470914822" lon="8.80116806366">
        <ele>1218.13</ele>
        <time>2012-08-09T15:09:26Z</time>
      </trkpt>
      <trkpt lat="61.5471037198" lon="8.80114040338">
        <ele>1217.65</ele>
        <time>2012-08-09T15:09:46Z</time>
      </trkpt>
      <trkpt lat="61.547099445" lon="8.80117502064">
        <ele>1218.13</ele>
        <time>2012-08-09T15:10:09Z</time>
      </trkpt>
      <trkpt lat="61.5470913146" lon="8.80115515552">
        <ele>1217.65</ele>
        <time>2012-08-09T15:10:27Z</time>
      </trkpt>
      <trkpt lat="61.5470996127" lon="8.80116378888">
        <ele>1218.13</ele>
        <time>2012-08-09T15:10:51Z</time>
      </trkpt>
      <trkpt lat="61.5470937453" lon="8.80118784495">
        <ele>1218.61</ele>
        <time>2012-08-09T15:11:12Z</time>
      </trkpt>
      <trkpt lat="61.5471017919" lon="8.80108583719">
        <ele>1217.65</ele>
        <time>2012-08-09T15:11:29Z</time>
      </trkpt>
      <trkpt lat="61.5471238364" lon="8.80110997707">
        <ele>1218.13</ele>
        <time>2012-08-09T15:12:01Z</time>
      </trkpt>
      <trkpt lat="61.5470894706" lon="8.80112372339">
        <ele>1217.65</ele>
        <time>2012-08-09T15:12:20Z</time>
      </trkpt>
      <trkpt lat="61.5470796637" lon="8.80110561848">
        <ele>1217.65</ele>
        <time>2012-08-09T15:12:41Z</time>
      </trkpt>
      <trkpt lat="61.5470798314" lon="8.80110721104">
        <ele>1217.65</ele>
        <time>2012-08-09T15:13:02Z</time>
      </trkpt>
      <trkpt lat="61.5470971819" lon="8.80111492239">
        <ele>1217.65</ele>
        <time>2012-08-09T15:13:16Z</time>
      </trkpt>
      <trkpt lat="61.5470914822" lon="8.80107468925">
        <ele>1214.28</ele>
        <time>2012-08-09T15:13:21Z</time>
      </trkpt>
      <trkpt lat="61.5470950864" lon="8.8010726776">
        <ele>1221.01</ele>
        <time>2012-08-09T15:13:22Z</time>
      </trkpt>
      <trkpt lat="61.5471001994" lon="8.80108441226">
        <ele>1217.65</ele>
        <time>2012-08-09T15:13:23Z</time>
      </trkpt>
      <trkpt lat="61.54708419" lon="8.80109405145">
        <ele>1218.61</ele>
        <time>2012-08-09T15:13:43Z</time>
      </trkpt>
      <trkpt lat="61.5471069887" lon="8.80105314776">
        <ele>1217.17</ele>
        <time>2012-08-09T15:13:55Z</time>
      </trkpt>
      <trkpt lat="61.5470939968" lon="8.80109279417">
        <ele>1218.13</ele>
        <time>2012-08-09T15:14:12Z</time>
      </trkpt>
      <trkpt lat="61.5470965952" lon="8.80110134371">
        <ele>1218.61</ele>
        <time>2012-08-09T15:14:32Z</time>
      </trkpt>
      <trkpt lat="61.5470955055" lon="8.80110687576">
        <ele>1217.65</ele>
        <time>2012-08-09T15:14:47Z</time>
      </trkpt>
      <trkpt lat="61.5470888" lon="8.80110117607">
        <ele>1217.65</ele>
        <time>2012-08-09T15:15:15Z</time>
      </trkpt>
      <trkpt lat="61.547107324" lon="8.80113101564">
        <ele>1218.13</ele>
        <time>2012-08-09T15:15:34Z</time>
      </trkpt>
      <trkpt lat="61.5470868722" lon="8.801084999">
        <ele>1216.21</ele>
        <time>2012-08-09T15:15:45Z</time>
      </trkpt>
      <trkpt lat="61.5470810886" lon="8.80114241503">
        <ele>1216.69</ele>
        <time>2012-08-09T15:15:50Z</time>
      </trkpt>
      <trkpt lat="61.5470494889" lon="8.80128423683">
        <ele>1218.13</ele>
        <time>2012-08-09T15:16:03Z</time>
      </trkpt>
      <trkpt lat="61.5470150393" lon="8.80133050494">
        <ele>1217.17</ele>
        <time>2012-08-09T15:16:23Z</time>
      </trkpt>
      <trkpt lat="61.546985954" lon="8.80136378109">
        <ele>1217.17</ele>
        <time>2012-08-09T15:16:27Z</time>
      </trkpt>
      <trkpt lat="61.5469456371" lon="8.80138632841">
        <ele>1217.65</ele>
        <time>2012-08-09T15:16:32Z</time>
      </trkpt>
      <trkpt lat="61.5468507539" lon="8.80140183493">
        <ele>1216.69</ele>
        <time>2012-08-09T15:16:45Z</time>
      </trkpt>
      <trkpt lat="61.5467951819" lon="8.80146461539">
        <ele>1216.21</ele>
        <time>2012-08-09T15:16:53Z</time>
      </trkpt>
      <trkpt lat="61.5467328206" lon="8.8015624322">
        <ele>1216.21</ele>
        <time>2012-08-09T15:17:04Z</time>
      </trkpt>
      <trkpt lat="61.5466565453" lon="8.80162470974">
        <ele>1218.13</ele>
        <time>2012-08-09T15:17:16Z</time>
      </trkpt>
      <trkpt lat="61.5466021467" lon="8.80160978995">
        <ele>1217.65</ele>
        <time>2012-08-09T15:17:21Z</time>
      </trkpt>
      <trkpt lat="61.5465513524" lon="8.80166670308">
        <ele>1217.65</ele>
        <time>2012-08-09T15:17:27Z</time>
      </trkpt>
      <trkpt lat="61.5465319902" lon="8.80171297118">
        <ele>1217.65</ele>
        <time>2012-08-09T15:17:43Z</time>
      </trkpt>
      <trkpt lat="61.546532996" lon="8.80172856152">
        <ele>1215.72</ele>
        <time>2012-08-09T15:17:52Z</time>
      </trkpt>
      <trkpt lat="61.546500558" lon="8.80183073692">
        <ele>1218.61</ele>
        <time>2012-08-09T15:18:04Z</time>
      </trkpt>
      <trkpt lat="61.5464925952" lon="8.80186845548">
        <ele>1219.57</ele>
        <time>2012-08-09T15:18:08Z</time>
      </trkpt>
      <trkpt lat="61.5464893263" lon="8.80187817849">
        <ele>1216.21</ele>
        <time>2012-08-09T15:18:09Z</time>
      </trkpt>
      <trkpt lat="61.5464910027" lon="8.80188270472">
        <ele>1222.93</ele>
        <time>2012-08-09T15:18:10Z</time>
      </trkpt>
      <trkpt lat="61.5464901645" lon="8.80188932642">
        <ele>1219.57</ele>
        <time>2012-08-09T15:18:11Z</time>
      </trkpt>
      <trkpt lat="61.5465012286" lon="8.80192461424">
        <ele>1218.61</ele>
        <time>2012-08-09T15:18:19Z</time>
      </trkpt>
      <trkpt lat="61.5464878175" lon="8.80195654929">
        <ele>1221.97</ele>
        <time>2012-08-09T15:18:21Z</time>
      </trkpt>
      <trkpt lat="61.5464787651" lon="8.80196602084">
        <ele>1220.53</ele>
        <time>2012-08-09T15:18:22Z</time>
      </trkpt>
      <trkpt lat="61.5464286413" lon="8.80204187706">
        <ele>1222.45</ele>
        <time>2012-08-09T15:18:32Z</time>
      </trkpt>
      <trkpt lat="61.5464262106" lon="8.80205847323">
        <ele>1221.97</ele>
        <time>2012-08-09T15:18:33Z</time>
      </trkpt>
      <trkpt lat="61.5464143082" lon="8.80209476687">
        <ele>1219.57</ele>
        <time>2012-08-09T15:18:36Z</time>
      </trkpt>
      <trkpt lat="61.5464094467" lon="8.80209904164">
        <ele>1225.34</ele>
        <time>2012-08-09T15:18:37Z</time>
      </trkpt>
      <trkpt lat="61.5463484265" lon="8.80217640661">
        <ele>1224.86</ele>
        <time>2012-08-09T15:18:49Z</time>
      </trkpt>
      <trkpt lat="61.5463381168" lon="8.80215855315">
        <ele>1225.34</ele>
        <time>2012-08-09T15:19:05Z</time>
      </trkpt>
      <trkpt lat="61.5463548806" lon="8.80216592923">
        <ele>1225.34</ele>
        <time>2012-08-09T15:19:30Z</time>
      </trkpt>
      <trkpt lat="61.5463316627" lon="8.80221596919">
        <ele>1226.3</ele>
        <time>2012-08-09T15:19:35Z</time>
      </trkpt>
      <trkpt lat="61.5462220274" lon="8.80221311934">
        <ele>1226.3</ele>
        <time>2012-08-09T15:19:46Z</time>
      </trkpt>
      <trkpt lat="61.5460761823" lon="8.80227573216">
        <ele>1225.82</ele>
        <time>2012-08-09T15:20:01Z</time>
      </trkpt>
      <trkpt lat="61.5460511204" lon="8.80227539688">
        <ele>1226.78</ele>
        <time>2012-08-09T15:20:03Z</time>
      </trkpt>
      <trkpt lat="61.5459132381" lon="8.80232853815">
        <ele>1227.26</ele>
        <time>2012-08-09T15:20:17Z</time>
      </trkpt>
      <trkpt lat="61.5458110627" lon="8.80235779099">
        <ele>1227.74</ele>
        <time>2012-08-09T15:20:26Z</time>
      </trkpt>
      <trkpt lat="61.5457527246" lon="8.8023811765">
        <ele>1228.7</ele>
        <time>2012-08-09T15:20:31Z</time>
      </trkpt>
      <trkpt lat="61.5457244776" lon="8.80240296945">
        <ele>1227.74</ele>
        <time>2012-08-09T15:20:34Z</time>
      </trkpt>
      <trkpt lat="61.5456274152" lon="8.8024318032">
        <ele>1229.66</ele>
        <time>2012-08-09T15:20:43Z</time>
      </trkpt>
      <trkpt lat="61.545502441" lon="8.80249315873">
        <ele>1230.62</ele>
        <time>2012-08-09T15:20:56Z</time>
      </trkpt>
      <trkpt lat="61.5454569273" lon="8.80242870189">
        <ele>1230.62</ele>
        <time>2012-08-09T15:21:08Z</time>
      </trkpt>
      <trkpt lat="61.5453778859" lon="8.80250883289">
        <ele>1230.62</ele>
        <time>2012-08-09T15:21:24Z</time>
      </trkpt>
      <trkpt lat="61.5452581085" lon="8.80254135467">
        <ele>1233.03</ele>
        <time>2012-08-09T15:21:39Z</time>
      </trkpt>
      <trkpt lat="61.5452176239" lon="8.80257429555">
        <ele>1231.11</ele>
        <time>2012-08-09T15:21:45Z</time>
      </trkpt>
      <trkpt lat="61.5452076495" lon="8.80258217454">
        <ele>1235.43</ele>
        <time>2012-08-09T15:21:46Z</time>
      </trkpt>
      <trkpt lat="61.5451997705" lon="8.8025903888">
        <ele>1233.51</ele>
        <time>2012-08-09T15:21:47Z</time>
      </trkpt>
      <trkpt lat="61.5451561846" lon="8.80258829333">
        <ele>1233.99</ele>
        <time>2012-08-09T15:21:53Z</time>
      </trkpt>
      <trkpt lat="61.5451250877" lon="8.80261260085">
        <ele>1234.95</ele>
        <time>2012-08-09T15:21:58Z</time>
      </trkpt>
      <trkpt lat="61.545067504" lon="8.80267244764">
        <ele>1235.43</ele>
        <time>2012-08-09T15:22:11Z</time>
      </trkpt>
      <trkpt lat="61.5450604632" lon="8.80266901106">
        <ele>1234.95</ele>
        <time>2012-08-09T15:22:12Z</time>
      </trkpt>
      <trkpt lat="61.545022158" lon="8.80268560722">
        <ele>1236.87</ele>
        <time>2012-08-09T15:22:17Z</time>
      </trkpt>
      <trkpt lat="61.5449925698" lon="8.8027502317">
        <ele>1236.87</ele>
        <time>2012-08-09T15:22:22Z</time>
      </trkpt>
      <trkpt lat="61.5449422784" lon="8.80284545012">
        <ele>1237.83</ele>
        <time>2012-08-09T15:22:34Z</time>
      </trkpt>
      <trkpt lat="61.5449369978" lon="8.80289054476">
        <ele>1234.47</ele>
        <time>2012-08-09T15:22:37Z</time>
      </trkpt>
      <trkpt lat="61.5449300408" lon="8.80290253088">
        <ele>1239.76</ele>
        <time>2012-08-09T15:22:38Z</time>
      </trkpt>
      <trkpt lat="61.5449252632" lon="8.80290890113">
        <ele>1239.28</ele>
        <time>2012-08-09T15:22:39Z</time>
      </trkpt>
      <trkpt lat="61.5449108463" lon="8.80292356946">
        <ele>1238.32</ele>
        <time>2012-08-09T15:22:41Z</time>
      </trkpt>
      <trkpt lat="61.5448999498" lon="8.80292365327">
        <ele>1238.8</ele>
        <time>2012-08-09T15:22:45Z</time>
      </trkpt>
      <trkpt lat="61.5448368341" lon="8.80296413787">
        <ele>1239.28</ele>
        <time>2012-08-09T15:22:58Z</time>
      </trkpt>
      <trkpt lat="61.5448079165" lon="8.80306798965">
        <ele>1241.2</ele>
        <time>2012-08-09T15:23:09Z</time>
      </trkpt>
      <trkpt lat="61.544764163" lon="8.80309313536">
        <ele>1242.16</ele>
        <time>2012-08-09T15:23:20Z</time>
      </trkpt>
      <trkpt lat="61.54474237" lon="8.80304686725">
        <ele>1242.16</ele>
        <time>2012-08-09T15:23:48Z</time>
      </trkpt>
      <trkpt lat="61.5447588824" lon="8.80308710039">
        <ele>1242.64</ele>
        <time>2012-08-09T15:24:26Z</time>
      </trkpt>
      <trkpt lat="61.5447522607" lon="8.8030995056">
        <ele>1239.76</ele>
        <time>2012-08-09T15:24:47Z</time>
      </trkpt>
      <trkpt lat="61.5447107702" lon="8.80306790583">
        <ele>1241.68</ele>
        <time>2012-08-09T15:24:53Z</time>
      </trkpt>
      <trkpt lat="61.5446188208" lon="8.80309732631">
        <ele>1243.12</ele>
        <time>2012-08-09T15:25:05Z</time>
      </trkpt>
      <trkpt lat="61.5445466526" lon="8.80309623666">
        <ele>1242.64</ele>
        <time>2012-08-09T15:25:17Z</time>
      </trkpt>
      <trkpt lat="61.5445408691" lon="8.80309447646">
        <ele>1243.12</ele>
        <time>2012-08-09T15:25:18Z</time>
      </trkpt>
      <trkpt lat="61.5445347503" lon="8.80308542401">
        <ele>1246.01</ele>
        <time>2012-08-09T15:25:19Z</time>
      </trkpt>
      <trkpt lat="61.5445298888" lon="8.80308349617">
        <ele>1244.56</ele>
        <time>2012-08-09T15:25:20Z</time>
      </trkpt>
      <trkpt lat="61.5444422141" lon="8.80310352892">
        <ele>1244.08</ele>
        <time>2012-08-09T15:25:33Z</time>
      </trkpt>
      <trkpt lat="61.5444240253" lon="8.80312632769">
        <ele>1246.01</ele>
        <time>2012-08-09T15:25:36Z</time>
      </trkpt>
      <trkpt lat="61.5443758294" lon="8.80313965492">
        <ele>1245.53</ele>
        <time>2012-08-09T15:25:45Z</time>
      </trkpt>
      <trkpt lat="61.5443524439" lon="8.80308324471">
        <ele>1246.97</ele>
        <time>2012-08-09T15:25:49Z</time>
      </trkpt>
      <trkpt lat="61.544301901" lon="8.80307620391">
        <ele>1248.89</ele>
        <time>2012-08-09T15:25:57Z</time>
      </trkpt>
      <trkpt lat="61.5442496818" lon="8.80308693275">
        <ele>1248.41</ele>
        <time>2012-08-09T15:26:06Z</time>
      </trkpt>
      <trkpt lat="61.544201402" lon="8.8030686602">
        <ele>1250.33</ele>
        <time>2012-08-09T15:26:12Z</time>
      </trkpt>
      <trkpt lat="61.5441964567" lon="8.80306497216">
        <ele>1250.33</ele>
        <time>2012-08-09T15:26:13Z</time>
      </trkpt>
      <trkpt lat="61.5441939421" lon="8.80307251588">
        <ele>1249.37</ele>
        <time>2012-08-09T15:26:16Z</time>
      </trkpt>
      <trkpt lat="61.5441718977" lon="8.80306857638">
        <ele>1248.41</ele>
        <time>2012-08-09T15:26:22Z</time>
      </trkpt>
      <trkpt lat="61.5441155713" lon="8.80296028219">
        <ele>1251.29</ele>
        <time>2012-08-09T15:26:34Z</time>
      </trkpt>
      <trkpt lat="61.5440794453" lon="8.80290764384">
        <ele>1251.77</ele>
        <time>2012-08-09T15:26:42Z</time>
      </trkpt>
      <trkpt lat="61.5440178383" lon="8.80284134299">
        <ele>1253.7</ele>
        <time>2012-08-09T15:26:52Z</time>
      </trkpt>
      <trkpt lat="61.543946676" lon="8.80276850425">
        <ele>1254.66</ele>
        <time>2012-08-09T15:27:06Z</time>
      </trkpt>
      <trkpt lat="61.5439083707" lon="8.80278526805">
        <ele>1254.18</ele>
        <time>2012-08-09T15:27:13Z</time>
      </trkpt>
      <trkpt lat="61.5438520443" lon="8.80274872296">
        <ele>1255.14</ele>
        <time>2012-08-09T15:27:24Z</time>
      </trkpt>
      <trkpt lat="61.5438422374" lon="8.8027410116">
        <ele>1255.14</ele>
        <time>2012-08-09T15:27:26Z</time>
      </trkpt>
      <trkpt lat="61.5438129846" lon="8.80272324197">
        <ele>1255.62</ele>
        <time>2012-08-09T15:27:30Z</time>
      </trkpt>
      <trkpt lat="61.5437966399" lon="8.80270622671">
        <ele>1256.58</ele>
        <time>2012-08-09T15:27:33Z</time>
      </trkpt>
      <trkpt lat="61.5437946282" lon="8.80268745124">
        <ele>1255.62</ele>
        <time>2012-08-09T15:27:34Z</time>
      </trkpt>
      <trkpt lat="61.5437337756" lon="8.80257580429">
        <ele>1256.58</ele>
        <time>2012-08-09T15:27:48Z</time>
      </trkpt>
      <trkpt lat="61.5436521359" lon="8.80256323144">
        <ele>1258.02</ele>
        <time>2012-08-09T15:28:01Z</time>
      </trkpt>
      <trkpt lat="61.5436347015" lon="8.80257261917">
        <ele>1259.46</ele>
        <time>2012-08-09T15:28:04Z</time>
      </trkpt>
      <trkpt lat="61.5435413271" lon="8.80259734578">
        <ele>1259.94</ele>
        <time>2012-08-09T15:28:17Z</time>
      </trkpt>
      <trkpt lat="61.5435380582" lon="8.80259801634">
        <ele>1258.98</ele>
        <time>2012-08-09T15:28:18Z</time>
      </trkpt>
      <trkpt lat="61.5434839949" lon="8.80269725807">
        <ele>1260.91</ele>
        <time>2012-08-09T15:28:31Z</time>
      </trkpt>
      <trkpt lat="61.5434274171" lon="8.80276163109">
        <ele>1261.39</ele>
        <time>2012-08-09T15:28:43Z</time>
      </trkpt>
      <trkpt lat="61.5433652233" lon="8.80284084007">
        <ele>1261.87</ele>
        <time>2012-08-09T15:28:55Z</time>
      </trkpt>
      <trkpt lat="61.5433444362" lon="8.80288819782">
        <ele>1263.31</ele>
        <time>2012-08-09T15:29:03Z</time>
      </trkpt>
      <trkpt lat="61.5433279239" lon="8.80295131356">
        <ele>1264.75</ele>
        <time>2012-08-09T15:29:22Z</time>
      </trkpt>
      <trkpt lat="61.5432724357" lon="8.80301266909">
        <ele>1264.27</ele>
        <time>2012-08-09T15:29:32Z</time>
      </trkpt>
      <trkpt lat="61.5431901254" lon="8.80309330299">
        <ele>1265.71</ele>
        <time>2012-08-09T15:29:46Z</time>
      </trkpt>
      <trkpt lat="61.5431727748" lon="8.80309699103">
        <ele>1265.23</ele>
        <time>2012-08-09T15:30:02Z</time>
      </trkpt>
      <trkpt lat="61.5431236569" lon="8.80316253752">
        <ele>1268.12</ele>
        <time>2012-08-09T15:30:17Z</time>
      </trkpt>
      <trkpt lat="61.5430772211" lon="8.80326270126">
        <ele>1267.64</ele>
        <time>2012-08-09T15:30:28Z</time>
      </trkpt>
      <trkpt lat="61.5430441126" lon="8.80335565656">
        <ele>1268.6</ele>
        <time>2012-08-09T15:30:41Z</time>
      </trkpt>
      <trkpt lat="61.543051824" lon="8.80337040871">
        <ele>1268.6</ele>
        <time>2012-08-09T15:31:10Z</time>
      </trkpt>
      <trkpt lat="61.5430572722" lon="8.80339111201">
        <ele>1270.04</ele>
        <time>2012-08-09T15:31:41Z</time>
      </trkpt>
      <trkpt lat="61.5430602059" lon="8.80338650197">
        <ele>1268.6</ele>
        <time>2012-08-09T15:32:15Z</time>
      </trkpt>
      <trkpt lat="61.543055512" lon="8.80336605012">
        <ele>1269.56</ele>
        <time>2012-08-09T15:32:45Z</time>
      </trkpt>
      <trkpt lat="61.5430466272" lon="8.80338113755">
        <ele>1268.6</ele>
        <time>2012-08-09T15:33:13Z</time>
      </trkpt>
      <trkpt lat="61.5430278517" lon="8.80341072567">
        <ele>1270.04</ele>
        <time>2012-08-09T15:33:16Z</time>
      </trkpt>
      <trkpt lat="61.5429711062" lon="8.80360895768">
        <ele>1268.6</ele>
        <time>2012-08-09T15:33:28Z</time>
      </trkpt>
      <trkpt lat="61.5429303702" lon="8.80378196016">
        <ele>1271</ele>
        <time>2012-08-09T15:33:39Z</time>
      </trkpt>
      <trkpt lat="61.5429124329" lon="8.80382998846">
        <ele>1271.96</ele>
        <time>2012-08-09T15:33:43Z</time>
      </trkpt>
      <trkpt lat="61.5428549331" lon="8.80392411724">
        <ele>1272.92</ele>
        <time>2012-08-09T15:33:54Z</time>
      </trkpt>
      <trkpt lat="61.5428353194" lon="8.8039565552">
        <ele>1272.44</ele>
        <time>2012-08-09T15:33:58Z</time>
      </trkpt>
      <trkpt lat="61.5428235848" lon="8.80398002453">
        <ele>1273.4</ele>
        <time>2012-08-09T15:34:00Z</time>
      </trkpt>
      <trkpt lat="61.5428017918" lon="8.80404439755">
        <ele>1274.36</ele>
        <time>2012-08-09T15:34:08Z</time>
      </trkpt>
      <trkpt lat="61.5427843574" lon="8.80405931734">
        <ele>1275.81</ele>
        <time>2012-08-09T15:34:11Z</time>
      </trkpt>
      <trkpt lat="61.5427535959" lon="8.80415629596">
        <ele>1275.33</ele>
        <time>2012-08-09T15:34:26Z</time>
      </trkpt>
      <trkpt lat="61.5427538473" lon="8.80418621935">
        <ele>1275.33</ele>
        <time>2012-08-09T15:34:39Z</time>
      </trkpt>
      <trkpt lat="61.5427442919" lon="8.80418261513">
        <ele>1275.33</ele>
        <time>2012-08-09T15:35:02Z</time>
      </trkpt>
      <trkpt lat="61.5427049808" lon="8.80429795012">
        <ele>1275.33</ele>
        <time>2012-08-09T15:35:14Z</time>
      </trkpt>
      <trkpt lat="61.5427010413" lon="8.80431622267">
        <ele>1274.85</ele>
        <time>2012-08-09T15:35:16Z</time>
      </trkpt>
      <trkpt lat="61.542677572" lon="8.80436718464">
        <ele>1275.81</ele>
        <time>2012-08-09T15:35:21Z</time>
      </trkpt>
      <trkpt lat="61.5426477324" lon="8.80442149937">
        <ele>1276.29</ele>
        <time>2012-08-09T15:35:27Z</time>
      </trkpt>
      <trkpt lat="61.5426048171" lon="8.80450372584">
        <ele>1278.21</ele>
        <time>2012-08-09T15:35:39Z</time>
      </trkpt>
      <trkpt lat="61.5425469819" lon="8.80461034365">
        <ele>1279.17</ele>
        <time>2012-08-09T15:35:50Z</time>
      </trkpt>
      <trkpt lat="61.5424816031" lon="8.80463465117">
        <ele>1280.13</ele>
        <time>2012-08-09T15:36:02Z</time>
      </trkpt>
      <trkpt lat="61.5424495004" lon="8.80481318571">
        <ele>1280.61</ele>
        <time>2012-08-09T15:36:19Z</time>
      </trkpt>
      <trkpt lat="61.542414967" lon="8.80502558313">
        <ele>1281.09</ele>
        <time>2012-08-09T15:36:31Z</time>
      </trkpt>
      <trkpt lat="61.5424085129" lon="8.80504913628">
        <ele>1280.13</ele>
        <time>2012-08-09T15:36:33Z</time>
      </trkpt>
      <trkpt lat="61.5423902404" lon="8.80508081988">
        <ele>1281.09</ele>
        <time>2012-08-09T15:36:36Z</time>
      </trkpt>
      <trkpt lat="61.5423772484" lon="8.80513848737">
        <ele>1281.09</ele>
        <time>2012-08-09T15:36:40Z</time>
      </trkpt>
      <trkpt lat="61.5423754044" lon="8.80520747043">
        <ele>1281.57</ele>
        <time>2012-08-09T15:36:45Z</time>
      </trkpt>
      <trkpt lat="61.5423277952" lon="8.80532892421">
        <ele>1281.09</ele>
        <time>2012-08-09T15:36:54Z</time>
      </trkpt>
      <trkpt lat="61.5422912501" lon="8.8054438401">
        <ele>1281.09</ele>
        <time>2012-08-09T15:37:05Z</time>
      </trkpt>
      <trkpt lat="61.5422782581" lon="8.80552254617">
        <ele>1283.98</ele>
        <time>2012-08-09T15:37:14Z</time>
      </trkpt>
      <trkpt lat="61.542244982" lon="8.8056433294">
        <ele>1284.94</ele>
        <time>2012-08-09T15:37:25Z</time>
      </trkpt>
      <trkpt lat="61.5422235243" lon="8.8057177607">
        <ele>1285.9</ele>
        <time>2012-08-09T15:37:32Z</time>
      </trkpt>
      <trkpt lat="61.5421886556" lon="8.80588774569">
        <ele>1286.38</ele>
        <time>2012-08-09T15:37:43Z</time>
      </trkpt>
      <trkpt lat="61.5421557147" lon="8.80601950921">
        <ele>1287.34</ele>
        <time>2012-08-09T15:37:54Z</time>
      </trkpt>
      <trkpt lat="61.5421559662" lon="8.80609896965">
        <ele>1288.78</ele>
        <time>2012-08-09T15:37:58Z</time>
      </trkpt>
      <trkpt lat="61.5421332512" lon="8.80618010648">
        <ele>1288.3</ele>
        <time>2012-08-09T15:38:03Z</time>
      </trkpt>
      <trkpt lat="61.5420482587" lon="8.80636576563">
        <ele>1288.78</ele>
        <time>2012-08-09T15:38:16Z</time>
      </trkpt>
      <trkpt lat="61.5420169104" lon="8.80653851666">
        <ele>1290.23</ele>
        <time>2012-08-09T15:38:28Z</time>
      </trkpt>
      <trkpt lat="61.5420019068" lon="8.80660532042">
        <ele>1290.71</ele>
        <time>2012-08-09T15:38:32Z</time>
      </trkpt>
      <trkpt lat="61.5419931896" lon="8.80663583055">
        <ele>1290.23</ele>
        <time>2012-08-09T15:38:34Z</time>
      </trkpt>
      <trkpt lat="61.5419841371" lon="8.80667338148">
        <ele>1291.19</ele>
        <time>2012-08-09T15:38:36Z</time>
      </trkpt>
      <trkpt lat="61.5419732407" lon="8.80671654828">
        <ele>1290.71</ele>
        <time>2012-08-09T15:38:39Z</time>
      </trkpt>
      <trkpt lat="61.5419445746" lon="8.80674856715">
        <ele>1291.67</ele>
        <time>2012-08-09T15:38:43Z</time>
      </trkpt>
      <trkpt lat="61.5419380367" lon="8.80676952191">
        <ele>1291.19</ele>
        <time>2012-08-09T15:38:46Z</time>
      </trkpt>
      <trkpt lat="61.5418880805" lon="8.80686574616">
        <ele>1292.63</ele>
        <time>2012-08-09T15:38:56Z</time>
      </trkpt>
      <trkpt lat="61.5418592468" lon="8.80696088076">
        <ele>1292.63</ele>
        <time>2012-08-09T15:39:09Z</time>
      </trkpt>
      <trkpt lat="61.5418669581" lon="8.80699239671">
        <ele>1293.11</ele>
        <time>2012-08-09T15:39:41Z</time>
      </trkpt>
      <trkpt lat="61.5418683831" lon="8.80700974725">
        <ele>1293.11</ele>
        <time>2012-08-09T15:39:42Z</time>
      </trkpt>
      <trkpt lat="61.5418180916" lon="8.80713782273">
        <ele>1293.11</ele>
        <time>2012-08-09T15:39:52Z</time>
      </trkpt>
      <trkpt lat="61.54176604" lon="8.80727411248">
        <ele>1293.11</ele>
        <time>2012-08-09T15:40:04Z</time>
      </trkpt>
      <trkpt lat="61.5416932013" lon="8.80728710443">
        <ele>1292.15</ele>
        <time>2012-08-09T15:40:16Z</time>
      </trkpt>
      <trkpt lat="61.5416824725" lon="8.80729481578">
        <ele>1294.07</ele>
        <time>2012-08-09T15:40:18Z</time>
      </trkpt>
      <trkpt lat="61.5416550636" lon="8.80737142637">
        <ele>1293.59</ele>
        <time>2012-08-09T15:40:30Z</time>
      </trkpt>
      <trkpt lat="61.5416634455" lon="8.80742741749">
        <ele>1292.15</ele>
        <time>2012-08-09T15:40:35Z</time>
      </trkpt>
      <trkpt lat="61.5416280739" lon="8.80758147687">
        <ele>1295.51</ele>
        <time>2012-08-09T15:40:49Z</time>
      </trkpt>
      <trkpt lat="61.5415899362" lon="8.80774383433">
        <ele>1296.48</ele>
        <time>2012-08-09T15:41:01Z</time>
      </trkpt>
      <trkpt lat="61.5415343642" lon="8.80777702667">
        <ele>1300.32</ele>
        <time>2012-08-09T15:41:08Z</time>
      </trkpt>
      <trkpt lat="61.5415301733" lon="8.80778448656">
        <ele>1298.4</ele>
        <time>2012-08-09T15:41:09Z</time>
      </trkpt>
      <trkpt lat="61.541494634" lon="8.80785330199">
        <ele>1299.36</ele>
        <time>2012-08-09T15:41:18Z</time>
      </trkpt>
      <trkpt lat="61.5414500423" lon="8.80790040828">
        <ele>1299.84</ele>
        <time>2012-08-09T15:41:25Z</time>
      </trkpt>
      <trkpt lat="61.5414122399" lon="8.80797911435">
        <ele>1300.8</ele>
        <time>2012-08-09T15:41:34Z</time>
      </trkpt>
      <trkpt lat="61.5413962305" lon="8.80803854205">
        <ele>1301.76</ele>
        <time>2012-08-09T15:41:39Z</time>
      </trkpt>
      <trkpt lat="61.5413865075" lon="8.80804901943">
        <ele>1300.32</ele>
        <time>2012-08-09T15:41:43Z</time>
      </trkpt>
      <trkpt lat="61.5413756948" lon="8.80809000693">
        <ele>1300.8</ele>
        <time>2012-08-09T15:41:46Z</time>
      </trkpt>
      <trkpt lat="61.5413395688" lon="8.80823132582">
        <ele>1301.28</ele>
        <time>2012-08-09T15:41:59Z</time>
      </trkpt>
      <trkpt lat="61.5413349587" lon="8.80832729861">
        <ele>1302.24</ele>
        <time>2012-08-09T15:42:07Z</time>
      </trkpt>
      <trkpt lat="61.54131216" lon="8.80842285231">
        <ele>1304.17</ele>
        <time>2012-08-09T15:42:14Z</time>
      </trkpt>
      <trkpt lat="61.5413008444" lon="8.80849669687">
        <ele>1304.65</ele>
        <time>2012-08-09T15:42:19Z</time>
      </trkpt>
      <trkpt lat="61.541297324" lon="8.80851262249">
        <ele>1303.2</ele>
        <time>2012-08-09T15:42:20Z</time>
      </trkpt>
      <trkpt lat="61.5412537381" lon="8.80870171823">
        <ele>1304.65</ele>
        <time>2012-08-09T15:42:34Z</time>
      </trkpt>
      <trkpt lat="61.5412592702" lon="8.80864463747">
        <ele>1305.13</ele>
        <time>2012-08-09T15:42:53Z</time>
      </trkpt>
      <trkpt lat="61.5412522294" lon="8.80865511484">
        <ele>1305.13</ele>
        <time>2012-08-09T15:43:06Z</time>
      </trkpt>
      <trkpt lat="61.5411915444" lon="8.80882350728">
        <ele>1307.05</ele>
        <time>2012-08-09T15:43:16Z</time>
      </trkpt>
      <trkpt lat="61.5411873534" lon="8.80886692554">
        <ele>1305.13</ele>
        <time>2012-08-09T15:43:21Z</time>
      </trkpt>
      <trkpt lat="61.541179223" lon="8.8089116849">
        <ele>1306.57</ele>
        <time>2012-08-09T15:43:25Z</time>
      </trkpt>
      <trkpt lat="61.5411715955" lon="8.80893867463">
        <ele>1307.53</ele>
        <time>2012-08-09T15:43:27Z</time>
      </trkpt>
      <trkpt lat="61.5411441028" lon="8.80902777426">
        <ele>1304.65</ele>
        <time>2012-08-09T15:43:35Z</time>
      </trkpt>
      <trkpt lat="61.5411407501" lon="8.80903355777">
        <ele>1308.97</ele>
        <time>2012-08-09T15:43:36Z</time>
      </trkpt>
      <trkpt lat="61.5410679951" lon="8.80916221999">
        <ele>1308.97</ele>
        <time>2012-08-09T15:43:49Z</time>
      </trkpt>
      <trkpt lat="61.5410498064" lon="8.80923019722">
        <ele>1308.97</ele>
        <time>2012-08-09T15:43:55Z</time>
      </trkpt>
      <trkpt lat="61.5410170332" lon="8.80935408175">
        <ele>1309.93</ele>
        <time>2012-08-09T15:44:05Z</time>
      </trkpt>
      <trkpt lat="61.5410104953" lon="8.80939858966">
        <ele>1313.3</ele>
        <time>2012-08-09T15:44:08Z</time>
      </trkpt>
      <trkpt lat="61.5410086513" lon="8.80941468291">
        <ele>1309.93</ele>
        <time>2012-08-09T15:44:09Z</time>
      </trkpt>
      <trkpt lat="61.5409690887" lon="8.80948374979">
        <ele>1312.34</ele>
        <time>2012-08-09T15:44:20Z</time>
      </trkpt>
      <trkpt lat="61.5409267601" lon="8.80954032764">
        <ele>1314.74</ele>
        <time>2012-08-09T15:44:33Z</time>
      </trkpt>
      <trkpt lat="61.5409171209" lon="8.80954795517">
        <ele>1311.38</ele>
        <time>2012-08-09T15:44:38Z</time>
      </trkpt>
      <trkpt lat="61.5409099124" lon="8.80957368761">
        <ele>1315.22</ele>
        <time>2012-08-09T15:44:40Z</time>
      </trkpt>
      <trkpt lat="61.5408778097" lon="8.80957083777">
        <ele>1314.26</ele>
        <time>2012-08-09T15:44:46Z</time>
      </trkpt>
      <trkpt lat="61.5408590343" lon="8.80960168317">
        <ele>1317.14</ele>
        <time>2012-08-09T15:44:51Z</time>
      </trkpt>
      <trkpt lat="61.5408398397" lon="8.80974023603">
        <ele>1318.1</ele>
        <time>2012-08-09T15:45:03Z</time>
      </trkpt>
      <trkpt lat="61.5408393368" lon="8.80974719301">
        <ele>1318.59</ele>
        <time>2012-08-09T15:45:18Z</time>
      </trkpt>
      <trkpt lat="61.5408310387" lon="8.80975850858">
        <ele>1319.07</ele>
        <time>2012-08-09T15:45:25Z</time>
      </trkpt>
      <trkpt lat="61.5408381633" lon="8.809755072">
        <ele>1317.62</ele>
        <time>2012-08-09T15:45:32Z</time>
      </trkpt>
      <trkpt lat="61.5408359002" lon="8.80976144224">
        <ele>1320.51</ele>
        <time>2012-08-09T15:45:34Z</time>
      </trkpt>
      <trkpt lat="61.5408397559" lon="8.80974576809">
        <ele>1315.22</ele>
        <time>2012-08-09T15:45:47Z</time>
      </trkpt>
      <trkpt lat="61.5408356488" lon="8.80975716747">
        <ele>1320.99</ele>
        <time>2012-08-09T15:45:48Z</time>
      </trkpt>
      <trkpt lat="61.5408151131" lon="8.809818523">
        <ele>1317.62</ele>
        <time>2012-08-09T15:45:52Z</time>
      </trkpt>
      <trkpt lat="61.5408037975" lon="8.80985230207">
        <ele>1320.99</ele>
        <time>2012-08-09T15:45:54Z</time>
      </trkpt>
      <trkpt lat="61.5407942422" lon="8.80987694487">
        <ele>1320.51</ele>
        <time>2012-08-09T15:45:55Z</time>
      </trkpt>
      <trkpt lat="61.5407809988" lon="8.80991172977">
        <ele>1320.03</ele>
        <time>2012-08-09T15:45:58Z</time>
      </trkpt>
      <trkpt lat="61.5407306235" lon="8.81002941169">
        <ele>1321.47</ele>
        <time>2012-08-09T15:46:09Z</time>
      </trkpt>
      <trkpt lat="61.5406966768" lon="8.81010442972">
        <ele>1322.43</ele>
        <time>2012-08-09T15:46:18Z</time>
      </trkpt>
      <trkpt lat="61.5406592097" lon="8.81020534784">
        <ele>1322.91</ele>
        <time>2012-08-09T15:46:31Z</time>
      </trkpt>
      <trkpt lat="61.5406504925" lon="8.81020744331">
        <ele>1324.35</ele>
        <time>2012-08-09T15:46:34Z</time>
      </trkpt>
      <trkpt lat="61.5406038053" lon="8.81022906862">
        <ele>1327.24</ele>
        <time>2012-08-09T15:46:45Z</time>
      </trkpt>
      <trkpt lat="61.5405716188" lon="8.81022789516">
        <ele>1327.72</ele>
        <time>2012-08-09T15:46:57Z</time>
      </trkpt>
      <trkpt lat="61.5405294579" lon="8.81023225375">
        <ele>1329.16</ele>
        <time>2012-08-09T15:47:08Z</time>
      </trkpt>
      <trkpt lat="61.5405119397" lon="8.81024708971">
        <ele>1333.01</ele>
        <time>2012-08-09T15:47:10Z</time>
      </trkpt>
      <trkpt lat="61.5405083355" lon="8.81024708971">
        <ele>1333.01</ele>
        <time>2012-08-09T15:47:11Z</time>
      </trkpt>
      <trkpt lat="61.5405040607" lon="8.81023962982">
        <ele>1328.68</ele>
        <time>2012-08-09T15:47:12Z</time>
      </trkpt>
      <trkpt lat="61.5405019652" lon="8.81022630259">
        <ele>1331.56</ele>
        <time>2012-08-09T15:47:13Z</time>
      </trkpt>
      <trkpt lat="61.5404821001" lon="8.81030006334">
        <ele>1330.6</ele>
        <time>2012-08-09T15:47:32Z</time>
      </trkpt>
      <trkpt lat="61.5404561162" lon="8.81032604724">
        <ele>1332.04</ele>
        <time>2012-08-09T15:47:36Z</time>
      </trkpt>
      <trkpt lat="61.5404090937" lon="8.81040550768">
        <ele>1330.6</ele>
        <time>2012-08-09T15:47:47Z</time>
      </trkpt>
      <trkpt lat="61.5404098481" lon="8.81042361259">
        <ele>1334.93</ele>
        <time>2012-08-09T15:47:51Z</time>
      </trkpt>
      <trkpt lat="61.5403712913" lon="8.81047566421">
        <ele>1335.41</ele>
        <time>2012-08-09T15:48:02Z</time>
      </trkpt>
      <trkpt lat="61.5403473191" lon="8.81050927565">
        <ele>1332.52</ele>
        <time>2012-08-09T15:48:07Z</time>
      </trkpt>
      <trkpt lat="61.5403463971" lon="8.81051036529">
        <ele>1335.89</ele>
        <time>2012-08-09T15:48:08Z</time>
      </trkpt>
      <trkpt lat="61.5403076727" lon="8.81057239138">
        <ele>1336.37</ele>
        <time>2012-08-09T15:48:16Z</time>
      </trkpt>
      <trkpt lat="61.5402515978" lon="8.8106865529">
        <ele>1338.29</ele>
        <time>2012-08-09T15:48:28Z</time>
      </trkpt>
      <trkpt lat="61.5402483288" lon="8.81069753319">
        <ele>1337.81</ele>
        <time>2012-08-09T15:48:29Z</time>
      </trkpt>
      <trkpt lat="61.5402106941" lon="8.81077758037">
        <ele>1338.77</ele>
        <time>2012-08-09T15:48:40Z</time>
      </trkpt>
      <trkpt lat="61.5402034018" lon="8.81080272608">
        <ele>1339.73</ele>
        <time>2012-08-09T15:48:42Z</time>
      </trkpt>
      <trkpt lat="61.5402049106" lon="8.81081353873">
        <ele>1338.29</ele>
        <time>2012-08-09T15:48:44Z</time>
      </trkpt>
      <trkpt lat="61.5401889011" lon="8.81084681489">
        <ele>1340.22</ele>
        <time>2012-08-09T15:48:46Z</time>
      </trkpt>
      <trkpt lat="61.5401504282" lon="8.81090607494">
        <ele>1341.18</ele>
        <time>2012-08-09T15:48:52Z</time>
      </trkpt>
      <trkpt lat="61.5401226003" lon="8.81095712073">
        <ele>1342.62</ele>
        <time>2012-08-09T15:48:57Z</time>
      </trkpt>
      <trkpt lat="61.5400997177" lon="8.810983859">
        <ele>1343.58</ele>
        <time>2012-08-09T15:49:09Z</time>
      </trkpt>
      <trkpt lat="61.5400932636" lon="8.8110137824">
        <ele>1343.1</ele>
        <time>2012-08-09T15:49:19Z</time>
      </trkpt>
      <trkpt lat="61.5400876477" lon="8.81102694198">
        <ele>1343.58</ele>
        <time>2012-08-09T15:49:42Z</time>
      </trkpt>
      <trkpt lat="61.5400887374" lon="8.81101110019">
        <ele>1343.58</ele>
        <time>2012-08-09T15:50:10Z</time>
      </trkpt>
      <trkpt lat="61.5400910843" lon="8.81102434359">
        <ele>1343.58</ele>
        <time>2012-08-09T15:50:33Z</time>
      </trkpt>
      <trkpt lat="61.5400621668" lon="8.81114755757">
        <ele>1343.1</ele>
        <time>2012-08-09T15:50:39Z</time>
      </trkpt>
      <trkpt lat="61.5400156472" lon="8.81134914234">
        <ele>1344.54</ele>
        <time>2012-08-09T15:50:52Z</time>
      </trkpt>
      <trkpt lat="61.5399991348" lon="8.81145240739">
        <ele>1344.54</ele>
        <time>2012-08-09T15:51:07Z</time>
      </trkpt>
      <trkpt lat="61.5399794374" lon="8.81157059222">
        <ele>1344.54</ele>
        <time>2012-08-09T15:51:15Z</time>
      </trkpt>
      <trkpt lat="61.5398856439" lon="8.81179053336">
        <ele>1345.02</ele>
        <time>2012-08-09T15:51:29Z</time>
      </trkpt>
      <trkpt lat="61.5398504399" lon="8.81187418476">
        <ele>1346.94</ele>
        <time>2012-08-09T15:51:36Z</time>
      </trkpt>
      <trkpt lat="61.5398032498" lon="8.81207451224">
        <ele>1346.94</ele>
        <time>2012-08-09T15:51:48Z</time>
      </trkpt>
      <trkpt lat="61.5397558082" lon="8.81224692799">
        <ele>1346.46</ele>
        <time>2012-08-09T15:51:58Z</time>
      </trkpt>
      <trkpt lat="61.5397173353" lon="8.81231725216">
        <ele>1347.91</ele>
        <time>2012-08-09T15:52:12Z</time>
      </trkpt>
      <trkpt lat="61.5396919381" lon="8.81235262379">
        <ele>1348.39</ele>
        <time>2012-08-09T15:52:22Z</time>
      </trkpt>
      <trkpt lat="61.5396916028" lon="8.81237852387">
        <ele>1349.35</ele>
        <time>2012-08-09T15:52:35Z</time>
      </trkpt>
      <trkpt lat="61.5396352764" lon="8.81248933263">
        <ele>1349.35</ele>
        <time>2012-08-09T15:52:45Z</time>
      </trkpt>
      <trkpt lat="61.539627146" lon="8.81252252497">
        <ele>1351.27</ele>
        <time>2012-08-09T15:52:47Z</time>
      </trkpt>
      <trkpt lat="61.5396088734" lon="8.8126891572">
        <ele>1350.79</ele>
        <time>2012-08-09T15:52:59Z</time>
      </trkpt>
      <trkpt lat="61.5395859908" lon="8.81275688298">
        <ele>1351.27</ele>
        <time>2012-08-09T15:53:05Z</time>
      </trkpt>
      <trkpt lat="61.5395118948" lon="8.81294480525">
        <ele>1350.79</ele>
        <time>2012-08-09T15:53:17Z</time>
      </trkpt>
      <trkpt lat="61.5394245554" lon="8.81310347468">
        <ele>1351.27</ele>
        <time>2012-08-09T15:53:29Z</time>
      </trkpt>
      <trkpt lat="61.5394181013" lon="8.81312023848">
        <ele>1350.79</ele>
        <time>2012-08-09T15:53:30Z</time>
      </trkpt>
      <trkpt lat="61.5393481962" lon="8.81324781105">
        <ele>1351.75</ele>
        <time>2012-08-09T15:53:43Z</time>
      </trkpt>
      <trkpt lat="61.5393011738" lon="8.81330480799">
        <ele>1352.71</ele>
        <time>2012-08-09T15:54:03Z</time>
      </trkpt>
      <trkpt lat="61.5391961485" lon="8.81341360509">
        <ele>1352.71</ele>
        <time>2012-08-09T15:54:15Z</time>
      </trkpt>
      <trkpt lat="61.5390978288" lon="8.81353531033">
        <ele>1353.19</ele>
        <time>2012-08-09T15:54:27Z</time>
      </trkpt>
      <trkpt lat="61.5390004311" lon="8.81362960674">
        <ele>1354.15</ele>
        <time>2012-08-09T15:54:39Z</time>
      </trkpt>
      <trkpt lat="61.5389551688" lon="8.81366472691">
        <ele>1353.67</ele>
        <time>2012-08-09T15:54:44Z</time>
      </trkpt>
      <trkpt lat="61.5389146842" lon="8.8137280941">
        <ele>1355.12</ele>
        <time>2012-08-09T15:54:50Z</time>
      </trkpt>
      <trkpt lat="61.5388402529" lon="8.81383563392">
        <ele>1354.15</ele>
        <time>2012-08-09T15:55:01Z</time>
      </trkpt>
      <trkpt lat="61.5388249978" lon="8.81386538967">
        <ele>1356.08</ele>
        <time>2012-08-09T15:55:04Z</time>
      </trkpt>
      <trkpt lat="61.5388103295" lon="8.81389874965">
        <ele>1355.12</ele>
        <time>2012-08-09T15:55:06Z</time>
      </trkpt>
      <trkpt lat="61.5386727825" lon="8.81410494447">
        <ele>1357.04</ele>
        <time>2012-08-09T15:55:21Z</time>
      </trkpt>
      <trkpt lat="61.5385484789" lon="8.81419278681">
        <ele>1357.52</ele>
        <time>2012-08-09T15:55:34Z</time>
      </trkpt>
      <trkpt lat="61.5384822618" lon="8.81429906934">
        <ele>1356.56</ele>
        <time>2012-08-09T15:55:44Z</time>
      </trkpt>
      <trkpt lat="61.5383945033" lon="8.81445975043">
        <ele>1356.08</ele>
        <time>2012-08-09T15:55:57Z</time>
      </trkpt>
      <trkpt lat="61.5383021347" lon="8.81462906487">
        <ele>1356.08</ele>
        <time>2012-08-09T15:56:10Z</time>
      </trkpt>
      <trkpt lat="61.5381877217" lon="8.8147894945">
        <ele>1357.52</ele>
        <time>2012-08-09T15:56:23Z</time>
      </trkpt>
      <trkpt lat="61.5380886476" lon="8.81491430104">
        <ele>1358.96</ele>
        <time>2012-08-09T15:56:35Z</time>
      </trkpt>
      <trkpt lat="61.5379638411" lon="8.81504002959">
        <ele>1358.96</ele>
        <time>2012-08-09T15:56:48Z</time>
      </trkpt>
      <trkpt lat="61.5378399566" lon="8.81516735069">
        <ele>1358</ele>
        <time>2012-08-09T15:57:01Z</time>
      </trkpt>
      <trkpt lat="61.5377459116" lon="8.81524806842">
        <ele>1358</ele>
        <time>2012-08-09T15:57:12Z</time>
      </trkpt>
      <trkpt lat="61.5376623441" lon="8.815331636">
        <ele>1358</ele>
        <time>2012-08-09T15:57:24Z</time>
      </trkpt>
      <trkpt lat="61.5375499427" lon="8.81548150443">
        <ele>1358.48</ele>
        <time>2012-08-09T15:57:38Z</time>
      </trkpt>
      <trkpt lat="61.5374101326" lon="8.81558652967">
        <ele>1358.48</ele>
        <time>2012-08-09T15:57:52Z</time>
      </trkpt>
      <trkpt lat="61.5372578334" lon="8.81569339894">
        <ele>1359.92</ele>
        <time>2012-08-09T15:58:06Z</time>
      </trkpt>
      <trkpt lat="61.5371259861" lon="8.81574670784">
        <ele>1359.92</ele>
        <time>2012-08-09T15:58:19Z</time>
      </trkpt>
      <trkpt lat="61.5371143352" lon="8.81576657295">
        <ele>1360.4</ele>
        <time>2012-08-09T15:58:39Z</time>
      </trkpt>
      <trkpt lat="61.5371035226" lon="8.8157663215">
        <ele>1360.4</ele>
        <time>2012-08-09T15:59:01Z</time>
      </trkpt>
      <trkpt lat="61.5371044446" lon="8.81573128514">
        <ele>1359.92</ele>
        <time>2012-08-09T15:59:36Z</time>
      </trkpt>
      <trkpt lat="61.5371200349" lon="8.81572868675">
        <ele>1360.88</ele>
        <time>2012-08-09T16:00:02Z</time>
      </trkpt>
      <trkpt lat="61.5371096414" lon="8.815699853">
        <ele>1360.88</ele>
        <time>2012-08-09T16:00:41Z</time>
      </trkpt>
      <trkpt lat="61.5371233877" lon="8.81572826765">
        <ele>1360.88</ele>
        <time>2012-08-09T16:01:19Z</time>
      </trkpt>
      <trkpt lat="61.5371055342" lon="8.81573958322">
        <ele>1360.88</ele>
        <time>2012-08-09T16:01:46Z</time>
      </trkpt>
      <trkpt lat="61.537115844" lon="8.81572038867">
        <ele>1360.88</ele>
        <time>2012-08-09T16:02:15Z</time>
      </trkpt>
      <trkpt lat="61.5371233877" lon="8.81573128514">
        <ele>1361.36</ele>
        <time>2012-08-09T16:02:55Z</time>
      </trkpt>
      <trkpt lat="61.5371089708" lon="8.81570857018">
        <ele>1361.36</ele>
        <time>2012-08-09T16:03:18Z</time>
      </trkpt>
      <trkpt lat="61.53711861" lon="8.81573488936">
        <ele>1361.36</ele>
        <time>2012-08-09T16:03:48Z</time>
      </trkpt>
      <trkpt lat="61.537046358" lon="8.81575022824">
        <ele>1361.36</ele>
        <time>2012-08-09T16:04:14Z</time>
      </trkpt>
      <trkpt lat="61.5370140038" lon="8.81575869396">
        <ele>1361.36</ele>
        <time>2012-08-09T16:04:19Z</time>
      </trkpt>
      <trkpt lat="61.5369776264" lon="8.81577026099">
        <ele>1358.96</ele>
        <time>2012-08-09T16:04:24Z</time>
      </trkpt>
      <trkpt lat="61.5369331185" lon="8.81577042863">
        <ele>1360.88</ele>
        <time>2012-08-09T16:04:29Z</time>
      </trkpt>
      <trkpt lat="61.5367816575" lon="8.81579699926">
        <ele>1361.84</ele>
        <time>2012-08-09T16:04:45Z</time>
      </trkpt>
      <trkpt lat="61.5366652329" lon="8.81586581469">
        <ele>1360.4</ele>
        <time>2012-08-09T16:04:58Z</time>
      </trkpt>
      <trkpt lat="61.5365934838" lon="8.81589288823">
        <ele>1358</ele>
        <time>2012-08-09T16:05:08Z</time>
      </trkpt>
      <trkpt lat="61.5364507399" lon="8.81593362428">
        <ele>1358</ele>
        <time>2012-08-09T16:05:23Z</time>
      </trkpt>
      <trkpt lat="61.5363495704" lon="8.81598022766">
        <ele>1357.04</ele>
        <time>2012-08-09T16:05:35Z</time>
      </trkpt>
      <trkpt lat="61.5362380911" lon="8.81612783298">
        <ele>1355.6</ele>
        <time>2012-08-09T16:05:49Z</time>
      </trkpt>
      <trkpt lat="61.5362256858" lon="8.81613512523">
        <ele>1358.48</ele>
        <time>2012-08-09T16:05:51Z</time>
      </trkpt>
      <trkpt lat="61.5360969398" lon="8.81622095592">
        <ele>1357.52</ele>
        <time>2012-08-09T16:06:05Z</time>
      </trkpt>
      <trkpt lat="61.5360702854" lon="8.81625548936">
        <ele>1357.52</ele>
        <time>2012-08-09T16:06:21Z</time>
      </trkpt>
      <trkpt lat="61.5360238496" lon="8.81627493538">
        <ele>1356.56</ele>
        <time>2012-08-09T16:06:25Z</time>
      </trkpt>
      <trkpt lat="61.5359719656" lon="8.81629781798">
        <ele>1359.44</ele>
        <time>2012-08-09T16:06:31Z</time>
      </trkpt>
      <trkpt lat="61.5358734783" lon="8.81633620709">
        <ele>1360.88</ele>
        <time>2012-08-09T16:06:40Z</time>
      </trkpt>
      <trkpt lat="61.5358259529" lon="8.81637996063">
        <ele>1358.48</ele>
        <time>2012-08-09T16:06:47Z</time>
      </trkpt>
      <trkpt lat="61.5357459057" lon="8.81641055457">
        <ele>1359.92</ele>
        <time>2012-08-09T16:06:56Z</time>
      </trkpt>
      <trkpt lat="61.5357288904" lon="8.81642807275">
        <ele>1361.84</ele>
        <time>2012-08-09T16:06:58Z</time>
      </trkpt>
      <trkpt lat="61.5357230231" lon="8.81643251516">
        <ele>1361.84</ele>
        <time>2012-08-09T16:06:59Z</time>
      </trkpt>
      <trkpt lat="61.5357174911" lon="8.81643360481">
        <ele>1361.84</ele>
        <time>2012-08-09T16:07:00Z</time>
      </trkpt>
      <trkpt lat="61.5355983004" lon="8.81649940275">
        <ele>1360.88</ele>
        <time>2012-08-09T16:07:12Z</time>
      </trkpt>
      <trkpt lat="61.5355765074" lon="8.81652044132">
        <ele>1360.4</ele>
        <time>2012-08-09T16:07:15Z</time>
      </trkpt>
      <trkpt lat="61.5354587417" lon="8.8166282326">
        <ele>1360.4</ele>
        <time>2012-08-09T16:07:27Z</time>
      </trkpt>
      <trkpt lat="61.5353481006" lon="8.81672638468">
        <ele>1359.44</ele>
        <time>2012-08-09T16:07:40Z</time>
      </trkpt>
      <trkpt lat="61.5352591686" lon="8.8168413844">
        <ele>1359.44</ele>
        <time>2012-08-09T16:07:52Z</time>
      </trkpt>
      <trkpt lat="61.5352266468" lon="8.81692637689">
        <ele>1358</ele>
        <time>2012-08-09T16:07:57Z</time>
      </trkpt>
      <trkpt lat="61.5351140779" lon="8.81709074602">
        <ele>1359.92</ele>
        <time>2012-08-09T16:08:10Z</time>
      </trkpt>
      <trkpt lat="61.5350927878" lon="8.81708303466">
        <ele>1360.4</ele>
        <time>2012-08-09T16:08:12Z</time>
      </trkpt>
      <trkpt lat="61.534953732" lon="8.81719744764">
        <ele>1360.88</ele>
        <time>2012-08-09T16:08:26Z</time>
      </trkpt>
      <trkpt lat="61.534792129" lon="8.81728696637">
        <ele>1360.4</ele>
        <time>2012-08-09T16:08:41Z</time>
      </trkpt>
      <trkpt lat="61.5346622095" lon="8.81737103686">
        <ele>1360.88</ele>
        <time>2012-08-09T16:08:53Z</time>
      </trkpt>
      <trkpt lat="61.534604039" lon="8.81740330718">
        <ele>1361.36</ele>
        <time>2012-08-09T16:08:59Z</time>
      </trkpt>
      <trkpt lat="61.5345480479" lon="8.81745116785">
        <ele>1361.36</ele>
        <time>2012-08-09T16:09:05Z</time>
      </trkpt>
      <trkpt lat="61.5344816633" lon="8.81752165966">
        <ele>1361.84</ele>
        <time>2012-08-09T16:09:11Z</time>
      </trkpt>
      <trkpt lat="61.5343131032" lon="8.81758410484">
        <ele>1362.81</ele>
        <time>2012-08-09T16:09:27Z</time>
      </trkpt>
      <trkpt lat="61.5343046375" lon="8.81758402102">
        <ele>1362.81</ele>
        <time>2012-08-09T16:09:28Z</time>
      </trkpt>
      <trkpt lat="61.5342903044" lon="8.81759156473">
        <ele>1361.84</ele>
        <time>2012-08-09T16:09:30Z</time>
      </trkpt>
      <trkpt lat="61.5342329722" lon="8.8175839372">
        <ele>1361.84</ele>
        <time>2012-08-09T16:09:34Z</time>
      </trkpt>
      <trkpt lat="61.5341028851" lon="8.81758418866">
        <ele>1362.81</ele>
        <time>2012-08-09T16:09:45Z</time>
      </trkpt>
      <trkpt lat="61.5340606403" lon="8.81760589778">
        <ele>1362.33</ele>
        <time>2012-08-09T16:09:50Z</time>
      </trkpt>
      <trkpt lat="61.5339190699" lon="8.81769960746">
        <ele>1362.33</ele>
        <time>2012-08-09T16:10:03Z</time>
      </trkpt>
      <trkpt lat="61.5338579658" lon="8.81773531437">
        <ele>1365.21</ele>
        <time>2012-08-09T16:10:09Z</time>
      </trkpt>
      <trkpt lat="61.5338489972" lon="8.81774143316">
        <ele>1365.21</ele>
        <time>2012-08-09T16:10:10Z</time>
      </trkpt>
      <trkpt lat="61.5338240191" lon="8.81774537265">
        <ele>1363.77</ele>
        <time>2012-08-09T16:10:13Z</time>
      </trkpt>
      <trkpt lat="61.5337288845" lon="8.81766901352">
        <ele>1362.81</ele>
        <time>2012-08-09T16:10:24Z</time>
      </trkpt>
      <trkpt lat="61.5337140486" lon="8.81764747202">
        <ele>1364.73</ele>
        <time>2012-08-09T16:10:26Z</time>
      </trkpt>
      <trkpt lat="61.5336753242" lon="8.81757270545">
        <ele>1364.25</ele>
        <time>2012-08-09T16:10:39Z</time>
      </trkpt>
      <trkpt lat="61.5336815268" lon="8.81757480092">
        <ele>1363.77</ele>
        <time>2012-08-09T16:10:52Z</time>
      </trkpt>
      <trkpt lat="61.5336833708" lon="8.81758100353">
        <ele>1363.77</ele>
        <time>2012-08-09T16:11:19Z</time>
      </trkpt>
      <trkpt lat="61.5336742345" lon="8.8175729569">
        <ele>1363.77</ele>
        <time>2012-08-09T16:11:36Z</time>
      </trkpt>
      <trkpt lat="61.533560995" lon="8.81754797883">
        <ele>1363.29</ele>
        <time>2012-08-09T16:11:48Z</time>
      </trkpt>
      <trkpt lat="61.5335122962" lon="8.81751956418">
        <ele>1365.21</ele>
        <time>2012-08-09T16:11:52Z</time>
      </trkpt>
      <trkpt lat="61.5334654413" lon="8.81745971739">
        <ele>1365.21</ele>
        <time>2012-08-09T16:11:58Z</time>
      </trkpt>
      <trkpt lat="61.5333256312" lon="8.8172945939">
        <ele>1365.69</ele>
        <time>2012-08-09T16:12:12Z</time>
      </trkpt>
      <trkpt lat="61.533305347" lon="8.81724430248">
        <ele>1364.73</ele>
        <time>2012-08-09T16:12:15Z</time>
      </trkpt>
      <trkpt lat="61.5331804566" lon="8.8171197474">
        <ele>1365.69</ele>
        <time>2012-08-09T16:12:28Z</time>
      </trkpt>
      <trkpt lat="61.5331417322" lon="8.81712301634">
        <ele>1365.69</ele>
        <time>2012-08-09T16:12:33Z</time>
      </trkpt>
      <trkpt lat="61.5331043489" lon="8.81712838076">
        <ele>1368.09</ele>
        <time>2012-08-09T16:12:36Z</time>
      </trkpt>
      <trkpt lat="61.5330382995" lon="8.81715947762">
        <ele>1368.57</ele>
        <time>2012-08-09T16:12:47Z</time>
      </trkpt>
      <trkpt lat="61.5329961386" lon="8.81719015539">
        <ele>1369.54</ele>
        <time>2012-08-09T16:12:52Z</time>
      </trkpt>
      <trkpt lat="61.5329875052" lon="8.81719887257">
        <ele>1368.57</ele>
        <time>2012-08-09T16:12:53Z</time>
      </trkpt>
      <trkpt lat="61.5329647064" lon="8.81721622311">
        <ele>1368.09</ele>
        <time>2012-08-09T16:12:56Z</time>
      </trkpt>
      <trkpt lat="61.5329217073" lon="8.81718110293">
        <ele>1370.02</ele>
        <time>2012-08-09T16:13:02Z</time>
      </trkpt>
      <trkpt lat="61.5329113975" lon="8.81713592447">
        <ele>1370.02</ele>
        <time>2012-08-09T16:13:22Z</time>
      </trkpt>
      <trkpt lat="61.532911649" lon="8.8171492517">
        <ele>1370.02</ele>
        <time>2012-08-09T16:13:59Z</time>
      </trkpt>
      <trkpt lat="61.5329058655" lon="8.81713022478">
        <ele>1368.09</ele>
        <time>2012-08-09T16:14:20Z</time>
      </trkpt>
      <trkpt lat="61.5328313503" lon="8.81709225476">
        <ele>1369.05</ele>
        <time>2012-08-09T16:14:32Z</time>
      </trkpt>
      <trkpt lat="61.5327613614" lon="8.8170955237">
        <ele>1370.02</ele>
        <time>2012-08-09T16:14:40Z</time>
      </trkpt>
      <trkpt lat="61.5327170212" lon="8.81711455062">
        <ele>1371.94</ele>
        <time>2012-08-09T16:14:44Z</time>
      </trkpt>
      <trkpt lat="61.5326526482" lon="8.81713056006">
        <ele>1372.9</ele>
        <time>2012-08-09T16:14:53Z</time>
      </trkpt>
      <trkpt lat="61.5325579327" lon="8.81721898913">
        <ele>1371.46</ele>
        <time>2012-08-09T16:15:03Z</time>
      </trkpt>
      <trkpt lat="61.5324101597" lon="8.81725436077">
        <ele>1371.94</ele>
        <time>2012-08-09T16:15:18Z</time>
      </trkpt>
      <trkpt lat="61.5323969163" lon="8.81726919673">
        <ele>1371.94</ele>
        <time>2012-08-09T16:15:46Z</time>
      </trkpt>
      <trkpt lat="61.5323927253" lon="8.8172567077">
        <ele>1372.9</ele>
        <time>2012-08-09T16:16:05Z</time>
      </trkpt>
      <trkpt lat="61.5323946532" lon="8.81731781177">
        <ele>1372.42</ele>
        <time>2012-08-09T16:16:33Z</time>
      </trkpt>
      <trkpt lat="61.5324100759" lon="8.81734572351">
        <ele>1373.38</ele>
        <time>2012-08-09T16:16:39Z</time>
      </trkpt>
      <trkpt lat="61.5324078128" lon="8.81735108793">
        <ele>1372.42</ele>
        <time>2012-08-09T16:16:50Z</time>
      </trkpt>
      <trkpt lat="61.5323769674" lon="8.81732175127">
        <ele>1372.42</ele>
        <time>2012-08-09T16:17:03Z</time>
      </trkpt>
      <trkpt lat="61.5324012749" lon="8.81724916399">
        <ele>1372.42</ele>
        <time>2012-08-09T16:17:20Z</time>
      </trkpt>
      <trkpt lat="61.5323960781" lon="8.81732887588">
        <ele>1372.42</ele>
        <time>2012-08-09T16:17:30Z</time>
      </trkpt>
      <trkpt lat="61.5323907975" lon="8.81727824919">
        <ele>1371.94</ele>
        <time>2012-08-09T16:17:48Z</time>
      </trkpt>
      <trkpt lat="61.5323907975" lon="8.81727715954">
        <ele>1371.94</ele>
        <time>2012-08-09T16:18:16Z</time>
      </trkpt>
      <trkpt lat="61.5323922224" lon="8.81726182066">
        <ele>1371.94</ele>
        <time>2012-08-09T16:18:51Z</time>
      </trkpt>
      <trkpt lat="61.532378979" lon="8.81727489643">
        <ele>1372.42</ele>
        <time>2012-08-09T16:19:14Z</time>
      </trkpt>
      <trkpt lat="61.5323721059" lon="8.81727313623">
        <ele>1372.42</ele>
        <time>2012-08-09T16:19:48Z</time>
      </trkpt>
      <trkpt lat="61.5323682502" lon="8.81727095693">
        <ele>1372.42</ele>
        <time>2012-08-09T16:20:12Z</time>
      </trkpt>
      <trkpt lat="61.5323648974" lon="8.81725620478">
        <ele>1371.94</ele>
        <time>2012-08-09T16:20:42Z</time>
      </trkpt>
      <trkpt lat="61.5323760454" lon="8.8173012156">
        <ele>1372.9</ele>
        <time>2012-08-09T16:21:02Z</time>
      </trkpt>
      <trkpt lat="61.532408651" lon="8.81729442626">
        <ele>1372.42</ele>
        <time>2012-08-09T16:21:22Z</time>
      </trkpt>
      <trkpt lat="61.5324379038" lon="8.81732426584">
        <ele>1372.42</ele>
        <time>2012-08-09T16:21:52Z</time>
      </trkpt>
      <trkpt lat="61.5324277617" lon="8.81731588393">
        <ele>1372.42</ele>
        <time>2012-08-09T16:22:14Z</time>
      </trkpt>
      <trkpt lat="61.5324140154" lon="8.81731445901">
        <ele>1372.42</ele>
        <time>2012-08-09T16:22:37Z</time>
      </trkpt>
      <trkpt lat="61.5323873609" lon="8.81730674766">
        <ele>1372.42</ele>
        <time>2012-08-09T16:22:42Z</time>
      </trkpt>
      <trkpt lat="61.5323201381" lon="8.81729828194">
        <ele>1371.94</ele>
        <time>2012-08-09T16:22:52Z</time>
      </trkpt>
      <trkpt lat="61.532305805" lon="8.81728914566">
        <ele>1372.42</ele>
        <time>2012-08-09T16:22:54Z</time>
      </trkpt>
      <trkpt lat="61.532212263" lon="8.81722711958">
        <ele>1372.9</ele>
        <time>2012-08-09T16:23:06Z</time>
      </trkpt>
      <trkpt lat="61.5320712794" lon="8.81714212708">
        <ele>1372.42</ele>
        <time>2012-08-09T16:23:19Z</time>
      </trkpt>
      <trkpt lat="61.5320238378" lon="8.8171355892">
        <ele>1373.86</ele>
        <time>2012-08-09T16:23:26Z</time>
      </trkpt>
      <trkpt lat="61.5319294576" lon="8.81703240797">
        <ele>1373.38</ele>
        <time>2012-08-09T16:23:36Z</time>
      </trkpt>
      <trkpt lat="61.5318315569" lon="8.81698370911">
        <ele>1373.38</ele>
        <time>2012-08-09T16:23:46Z</time>
      </trkpt>
      <trkpt lat="61.5318087582" lon="8.81698521785">
        <ele>1372.42</ele>
        <time>2012-08-09T16:23:48Z</time>
      </trkpt>
      <trkpt lat="61.5317885578" lon="8.81697004661">
        <ele>1374.82</ele>
        <time>2012-08-09T16:23:50Z</time>
      </trkpt>
      <trkpt lat="61.5316523518" lon="8.81683878601">
        <ele>1374.82</ele>
        <time>2012-08-09T16:24:05Z</time>
      </trkpt>
      <trkpt lat="61.5315296408" lon="8.816695204">
        <ele>1376.26</ele>
        <time>2012-08-09T16:24:17Z</time>
      </trkpt>
      <trkpt lat="61.5315132961" lon="8.81666854955">
        <ele>1375.78</ele>
        <time>2012-08-09T16:24:20Z</time>
      </trkpt>
      <trkpt lat="61.5313636791" lon="8.81647668779">
        <ele>1376.75</ele>
        <time>2012-08-09T16:24:35Z</time>
      </trkpt>
      <trkpt lat="61.5312641859" lon="8.81641734391">
        <ele>1378.19</ele>
        <time>2012-08-09T16:24:49Z</time>
      </trkpt>
      <trkpt lat="61.531105265" lon="8.81635045633">
        <ele>1377.71</ele>
        <time>2012-08-09T16:25:03Z</time>
      </trkpt>
      <trkpt lat="61.5309550613" lon="8.81628499366">
        <ele>1377.71</ele>
        <time>2012-08-09T16:25:17Z</time>
      </trkpt>
      <trkpt lat="61.5308193583" lon="8.8161984086">
        <ele>1379.15</ele>
        <time>2012-08-09T16:25:30Z</time>
      </trkpt>
      <trkpt lat="61.5308088809" lon="8.81619681604">
        <ele>1379.15</ele>
        <time>2012-08-09T16:25:32Z</time>
      </trkpt>
      <trkpt lat="61.5306876786" lon="8.81612875499">
        <ele>1378.19</ele>
        <time>2012-08-09T16:25:45Z</time>
      </trkpt>
      <trkpt lat="61.5305984952" lon="8.81606119685">
        <ele>1378.67</ele>
        <time>2012-08-09T16:25:52Z</time>
      </trkpt>
      <trkpt lat="61.5304700844" lon="8.8159565907">
        <ele>1380.11</ele>
        <time>2012-08-09T16:26:06Z</time>
      </trkpt>
      <trkpt lat="61.5304153506" lon="8.81583983079">
        <ele>1380.11</ele>
        <time>2012-08-09T16:26:14Z</time>
      </trkpt>
      <trkpt lat="61.530374866" lon="8.81579347886">
        <ele>1379.63</ele>
        <time>2012-08-09T16:26:18Z</time>
      </trkpt>
      <trkpt lat="61.5302825812" lon="8.8157051336">
        <ele>1381.55</ele>
        <time>2012-08-09T16:26:28Z</time>
      </trkpt>
      <trkpt lat="61.5301845968" lon="8.81566305645">
        <ele>1380.59</ele>
        <time>2012-08-09T16:26:39Z</time>
      </trkpt>
      <trkpt lat="61.5300970059" lon="8.81562441587">
        <ele>1382.03</ele>
        <time>2012-08-09T16:26:47Z</time>
      </trkpt>
      <trkpt lat="61.5300518274" lon="8.81550338119">
        <ele>1381.55</ele>
        <time>2012-08-09T16:26:57Z</time>
      </trkpt>
      <trkpt lat="61.5300508216" lon="8.81547437981">
        <ele>1382.03</ele>
        <time>2012-08-09T16:27:18Z</time>
      </trkpt>
      <trkpt lat="61.5300098341" lon="8.81545736454">
        <ele>1382.03</ele>
        <time>2012-08-09T16:27:32Z</time>
      </trkpt>
      <trkpt lat="61.5300192218" lon="8.81543448195">
        <ele>1382.03</ele>
        <time>2012-08-09T16:28:00Z</time>
      </trkpt>
      <trkpt lat="61.5300017036" lon="8.81545837037">
        <ele>1382.51</ele>
        <time>2012-08-09T16:28:29Z</time>
      </trkpt>
      <trkpt lat="61.530014025" lon="8.81548033096">
        <ele>1381.07</ele>
        <time>2012-08-09T16:28:47Z</time>
      </trkpt>
      <trkpt lat="61.5299076587" lon="8.81535803899">
        <ele>1381.55</ele>
        <time>2012-08-09T16:28:58Z</time>
      </trkpt>
      <trkpt lat="61.5297913179" lon="8.8152259402">
        <ele>1382.03</ele>
        <time>2012-08-09T16:29:10Z</time>
      </trkpt>
      <trkpt lat="61.5297652502" lon="8.81519132294">
        <ele>1382.99</ele>
        <time>2012-08-09T16:29:14Z</time>
      </trkpt>
      <trkpt lat="61.5297075827" lon="8.81501748227">
        <ele>1382.99</ele>
        <time>2012-08-09T16:29:24Z</time>
      </trkpt>
      <trkpt lat="61.5296691097" lon="8.81498395465">
        <ele>1382.99</ele>
        <time>2012-08-09T16:29:29Z</time>
      </trkpt>
      <trkpt lat="61.5296266973" lon="8.81492184475">
        <ele>1382.99</ele>
        <time>2012-08-09T16:29:33Z</time>
      </trkpt>
      <trkpt lat="61.5295234323" lon="8.81481698714">
        <ele>1384.44</ele>
        <time>2012-08-09T16:29:45Z</time>
      </trkpt>
      <trkpt lat="61.5293955244" lon="8.81468530744">
        <ele>1385.88</ele>
        <time>2012-08-09T16:29:58Z</time>
      </trkpt>
      <trkpt lat="61.5292788483" lon="8.81453585811">
        <ele>1385.88</ele>
        <time>2012-08-09T16:30:11Z</time>
      </trkpt>
      <trkpt lat="61.5291578136" lon="8.81436268799">
        <ele>1383.96</ele>
        <time>2012-08-09T16:30:25Z</time>
      </trkpt>
      <trkpt lat="61.5290292352" lon="8.81421281956">
        <ele>1385.88</ele>
        <time>2012-08-09T16:30:40Z</time>
      </trkpt>
      <trkpt lat="61.5289403033" lon="8.81407460198">
        <ele>1387.32</ele>
        <time>2012-08-09T16:30:53Z</time>
      </trkpt>
      <trkpt lat="61.5288293269" lon="8.81390637718">
        <ele>1387.32</ele>
        <time>2012-08-09T16:31:07Z</time>
      </trkpt>
      <trkpt lat="61.5287394729" lon="8.81374686956">
        <ele>1390.68</ele>
        <time>2012-08-09T16:31:20Z</time>
      </trkpt>
      <trkpt lat="61.5286869183" lon="8.81370806135">
        <ele>1386.84</ele>
        <time>2012-08-09T16:31:26Z</time>
      </trkpt>
      <trkpt lat="61.5286462661" lon="8.81361745298">
        <ele>1388.76</ele>
        <time>2012-08-09T16:31:32Z</time>
      </trkpt>
      <trkpt lat="61.5285690688" lon="8.81340865977">
        <ele>1388.28</ele>
        <time>2012-08-09T16:31:45Z</time>
      </trkpt>
      <trkpt lat="61.5285586752" lon="8.8133977633">
        <ele>1390.68</ele>
        <time>2012-08-09T16:31:47Z</time>
      </trkpt>
      <trkpt lat="61.5285095572" lon="8.81336398423">
        <ele>1392.13</ele>
        <time>2012-08-09T16:31:53Z</time>
      </trkpt>
      <trkpt lat="61.5284966491" lon="8.8133268524">
        <ele>1391.17</ele>
        <time>2012-08-09T16:32:00Z</time>
      </trkpt>
      <trkpt lat="61.528405454" lon="8.81324814633">
        <ele>1390.68</ele>
        <time>2012-08-09T16:32:08Z</time>
      </trkpt>
      <trkpt lat="61.5283488762" lon="8.81319508888">
        <ele>1392.13</ele>
        <time>2012-08-09T16:32:14Z</time>
      </trkpt>
      <trkpt lat="61.5282314457" lon="8.81305804476">
        <ele>1391.65</ele>
        <time>2012-08-09T16:32:26Z</time>
      </trkpt>
      <trkpt lat="61.5281271748" lon="8.81290557794">
        <ele>1392.13</ele>
        <time>2012-08-09T16:32:38Z</time>
      </trkpt>
      <trkpt lat="61.5279768873" lon="8.81276702508">
        <ele>1392.61</ele>
        <time>2012-08-09T16:32:53Z</time>
      </trkpt>
      <trkpt lat="61.5279198065" lon="8.81269611418">
        <ele>1393.09</ele>
        <time>2012-08-09T16:32:58Z</time>
      </trkpt>
      <trkpt lat="61.5278994385" lon="8.81265621632">
        <ele>1395.97</ele>
        <time>2012-08-09T16:33:01Z</time>
      </trkpt>
      <trkpt lat="61.527894577" lon="8.81264934316">
        <ele>1394.53</ele>
        <time>2012-08-09T16:33:02Z</time>
      </trkpt>
      <trkpt lat="61.5277799126" lon="8.81248237565">
        <ele>1395.01</ele>
        <time>2012-08-09T16:33:14Z</time>
      </trkpt>
      <trkpt lat="61.5277574491" lon="8.81245186552">
        <ele>1394.53</ele>
        <time>2012-08-09T16:33:17Z</time>
      </trkpt>
      <trkpt lat="61.5275850333" lon="8.81231850944">
        <ele>1396.45</ele>
        <time>2012-08-09T16:33:33Z</time>
      </trkpt>
      <trkpt lat="61.5274424572" lon="8.81222882308">
        <ele>1395.97</ele>
        <time>2012-08-09T16:33:47Z</time>
      </trkpt>
      <trkpt lat="61.5274283756" lon="8.81221608259">
        <ele>1396.93</ele>
        <time>2012-08-09T16:33:49Z</time>
      </trkpt>
      <trkpt lat="61.5273935907" lon="8.81218523718">
        <ele>1397.41</ele>
        <time>2012-08-09T16:33:55Z</time>
      </trkpt>
      <trkpt lat="61.5273735579" lon="8.81216646172">
        <ele>1398.37</ele>
        <time>2012-08-09T16:33:58Z</time>
      </trkpt>
      <trkpt lat="61.5273467358" lon="8.81213821471">
        <ele>1396.45</ele>
        <time>2012-08-09T16:34:02Z</time>
      </trkpt>
      <trkpt lat="61.5273583028" lon="8.81209689192">
        <ele>1397.41</ele>
        <time>2012-08-09T16:34:17Z</time>
      </trkpt>
      <trkpt lat="61.5273614042" lon="8.81202505901">
        <ele>1396.93</ele>
        <time>2012-08-09T16:34:44Z</time>
      </trkpt>
      <trkpt lat="61.5273366775" lon="8.81205732934">
        <ele>1397.41</ele>
        <time>2012-08-09T16:35:17Z</time>
      </trkpt>
      <trkpt lat="61.5273391083" lon="8.81207970902">
        <ele>1397.41</ele>
        <time>2012-08-09T16:35:53Z</time>
      </trkpt>
      <trkpt lat="61.5273115318" lon="8.8120179344">
        <ele>1397.89</ele>
        <time>2012-08-09T16:36:18Z</time>
      </trkpt>
      <trkpt lat="61.527327206" lon="8.81206847727">
        <ele>1397.89</ele>
        <time>2012-08-09T16:36:50Z</time>
      </trkpt>
      <trkpt lat="61.5273128729" lon="8.81207359023">
        <ele>1397.89</ele>
        <time>2012-08-09T16:37:28Z</time>
      </trkpt>
      <trkpt lat="61.5273117833" lon="8.81208649836">
        <ele>1397.89</ele>
        <time>2012-08-09T16:37:57Z</time>
      </trkpt>
      <trkpt lat="61.5273215063" lon="8.81209974177">
        <ele>1397.89</ele>
        <time>2012-08-09T16:38:27Z</time>
      </trkpt>
      <trkpt lat="61.5273200814" lon="8.81208205596">
        <ele>1397.89</ele>
        <time>2012-08-09T16:38:44Z</time>
      </trkpt>
      <trkpt lat="61.5271907486" lon="8.81193361245">
        <ele>1396.93</ele>
        <time>2012-08-09T16:38:57Z</time>
      </trkpt>
      <trkpt lat="61.5271330811" lon="8.8118241448">
        <ele>1397.41</ele>
        <time>2012-08-09T16:39:05Z</time>
      </trkpt>
      <trkpt lat="61.5270433109" lon="8.81167327054">
        <ele>1395.97</ele>
        <time>2012-08-09T16:39:15Z</time>
      </trkpt>
      <trkpt lat="61.5270162374" lon="8.81162608042">
        <ele>1395.97</ele>
        <time>2012-08-09T16:39:18Z</time>
      </trkpt>
      <trkpt lat="61.5269144811" lon="8.81153455004">
        <ele>1395.49</ele>
        <time>2012-08-09T16:39:35Z</time>
      </trkpt>
      <trkpt lat="61.5269114636" lon="8.81154821254">
        <ele>1395.49</ele>
        <time>2012-08-09T16:39:41Z</time>
      </trkpt>
      <trkpt lat="61.5267699771" lon="8.81143094972">
        <ele>1395.01</ele>
        <time>2012-08-09T16:39:56Z</time>
      </trkpt>
      <trkpt lat="61.5266019199" lon="8.81133648567">
        <ele>1393.09</ele>
        <time>2012-08-09T16:40:11Z</time>
      </trkpt>
      <trkpt lat="61.5265411511" lon="8.8113027066">
        <ele>1392.61</ele>
        <time>2012-08-09T16:40:23Z</time>
      </trkpt>
      <trkpt lat="61.5264671389" lon="8.81123850122">
        <ele>1391.65</ele>
        <time>2012-08-09T16:40:32Z</time>
      </trkpt>
      <trkpt lat="61.5263041109" lon="8.81109114736">
        <ele>1390.2</ele>
        <time>2012-08-09T16:40:47Z</time>
      </trkpt>
      <trkpt lat="61.5261310246" lon="8.81091135554">
        <ele>1388.28</ele>
        <time>2012-08-09T16:41:00Z</time>
      </trkpt>
      <trkpt lat="61.5259902924" lon="8.81080557592">
        <ele>1386.84</ele>
        <time>2012-08-09T16:41:13Z</time>
      </trkpt>
      <trkpt lat="61.5258310363" lon="8.8106777519">
        <ele>1385.4</ele>
        <time>2012-08-09T16:41:28Z</time>
      </trkpt>
      <trkpt lat="61.5257007815" lon="8.81057222374">
        <ele>1384.92</ele>
        <time>2012-08-09T16:41:39Z</time>
      </trkpt>
      <trkpt lat="61.5255905595" lon="8.81053316407">
        <ele>1383.47</ele>
        <time>2012-08-09T16:41:53Z</time>
      </trkpt>
      <trkpt lat="61.5255675931" lon="8.81052981131">
        <ele>1382.03</ele>
        <time>2012-08-09T16:41:55Z</time>
      </trkpt>
      <trkpt lat="61.525426358" lon="8.81043878384">
        <ele>1382.99</ele>
        <time>2012-08-09T16:42:08Z</time>
      </trkpt>
      <trkpt lat="61.5253271163" lon="8.81033300422">
        <ele>1381.07</ele>
        <time>2012-08-09T16:42:16Z</time>
      </trkpt>
      <trkpt lat="61.5253028926" lon="8.81029704586">
        <ele>1382.51</ele>
        <time>2012-08-09T16:42:18Z</time>
      </trkpt>
      <trkpt lat="61.5251767449" lon="8.81020878442">
        <ele>1380.11</ele>
        <time>2012-08-09T16:42:31Z</time>
      </trkpt>
      <trkpt lat="61.5251517668" lon="8.81021188572">
        <ele>1380.59</ele>
        <time>2012-08-09T16:42:36Z</time>
      </trkpt>
      <trkpt lat="61.5250956919" lon="8.81007215939">
        <ele>1380.59</ele>
        <time>2012-08-09T16:42:47Z</time>
      </trkpt>
      <trkpt lat="61.5251009725" lon="8.81002882496">
        <ele>1376.75</ele>
        <time>2012-08-09T16:42:51Z</time>
      </trkpt>
      <trkpt lat="61.5251018107" lon="8.8100281544">
        <ele>1381.55</ele>
        <time>2012-08-09T16:42:52Z</time>
      </trkpt>
      <trkpt lat="61.5251111146" lon="8.81007039919">
        <ele>1380.11</ele>
        <time>2012-08-09T16:43:16Z</time>
      </trkpt>
      <trkpt lat="61.5251098573" lon="8.81006503478">
        <ele>1380.11</ele>
        <time>2012-08-09T16:43:38Z</time>
      </trkpt>
      <trkpt lat="61.5251086839" lon="8.81005170755">
        <ele>1380.11</ele>
        <time>2012-08-09T16:44:07Z</time>
      </trkpt>
      <trkpt lat="61.525113713" lon="8.81005246192">
        <ele>1380.11</ele>
        <time>2012-08-09T16:44:37Z</time>
      </trkpt>
      <trkpt lat="61.5251170658" lon="8.81005506031">
        <ele>1379.63</ele>
        <time>2012-08-09T16:45:01Z</time>
      </trkpt>
      <trkpt lat="61.5251037385" lon="8.81006218493">
        <ele>1379.63</ele>
        <time>2012-08-09T16:45:15Z</time>
      </trkpt>
      <trkpt lat="61.5250926744" lon="8.81006252021">
        <ele>1379.15</ele>
        <time>2012-08-09T16:45:17Z</time>
      </trkpt>
      <trkpt lat="61.5250671096" lon="8.81007978693">
        <ele>1369.54</ele>
        <time>2012-08-09T16:45:23Z</time>
      </trkpt>
      <trkpt lat="61.5250692889" lon="8.81008473225">
        <ele>1379.15</ele>
        <time>2012-08-09T16:45:24Z</time>
      </trkpt>
      <trkpt lat="61.525069708" lon="8.81009353325">
        <ele>1388.76</ele>
        <time>2012-08-09T16:45:28Z</time>
      </trkpt>
      <trkpt lat="61.5250710491" lon="8.81008900702">
        <ele>1377.23</ele>
        <time>2012-08-09T16:45:29Z</time>
      </trkpt>
      <trkpt lat="61.5250735637" lon="8.81008305587">
        <ele>1381.55</ele>
        <time>2012-08-09T16:45:30Z</time>
      </trkpt>
      <trkpt lat="61.5250811074" lon="8.80999781191">
        <ele>1377.23</ele>
        <time>2012-08-09T16:45:45Z</time>
      </trkpt>
      <trkpt lat="61.5250778385" lon="8.809997309">
        <ele>1381.07</ele>
        <time>2012-08-09T16:45:46Z</time>
      </trkpt>
      <trkpt lat="61.5251018945" lon="8.81009780802">
        <ele>1380.59</ele>
        <time>2012-08-09T16:46:02Z</time>
      </trkpt>
      <trkpt lat="61.5250947699" lon="8.81011448801">
        <ele>1379.63</ele>
        <time>2012-08-09T16:46:27Z</time>
      </trkpt>
      <trkpt lat="61.5251008049" lon="8.81009219214">
        <ele>1382.99</ele>
        <time>2012-08-09T16:46:48Z</time>
      </trkpt>
      <trkpt lat="61.5251177363" lon="8.81004894152">
        <ele>1378.19</ele>
        <time>2012-08-09T16:46:52Z</time>
      </trkpt>
      <trkpt lat="61.5251176525" lon="8.81004491821">
        <ele>1379.15</ele>
        <time>2012-08-09T16:47:14Z</time>
      </trkpt>
      <trkpt lat="61.5250895731" lon="8.81005145609">
        <ele>1379.15</ele>
        <time>2012-08-09T16:47:28Z</time>
      </trkpt>
      <trkpt lat="61.5250602365" lon="8.81004952826">
        <ele>1379.15</ele>
        <time>2012-08-09T16:47:57Z</time>
      </trkpt>
      <trkpt lat="61.5250683669" lon="8.81011541001">
        <ele>1377.71</ele>
        <time>2012-08-09T16:48:11Z</time>
      </trkpt>
      <trkpt lat="61.5250569675" lon="8.81012622267">
        <ele>1372.42</ele>
        <time>2012-08-09T16:48:13Z</time>
      </trkpt>
      <trkpt lat="61.5250546206" lon="8.81012747996">
        <ele>1384.44</ele>
        <time>2012-08-09T16:48:14Z</time>
      </trkpt>
      <trkpt lat="61.5249859728" lon="8.81018539891">
        <ele>1379.63</ele>
        <time>2012-08-09T16:48:24Z</time>
      </trkpt>
      <trkpt lat="61.5249568038" lon="8.81018782966">
        <ele>1378.19</ele>
        <time>2012-08-09T16:48:26Z</time>
      </trkpt>
      <trkpt lat="61.5249398723" lon="8.81019101478">
        <ele>1379.15</ele>
        <time>2012-08-09T16:48:27Z</time>
      </trkpt>
      <trkpt lat="61.5248999745" lon="8.81020425819">
        <ele>1377.71</ele>
        <time>2012-08-09T16:48:34Z</time>
      </trkpt>
      <trkpt lat="61.5248788521" lon="8.81021230482">
        <ele>1380.11</ele>
        <time>2012-08-09T16:48:37Z</time>
      </trkpt>
      <trkpt lat="61.5248712245" lon="8.81023552269">
        <ele>1380.59</ele>
        <time>2012-08-09T16:48:40Z</time>
      </trkpt>
      <trkpt lat="61.5248631779" lon="8.81024457514">
        <ele>1380.59</ele>
        <time>2012-08-09T16:48:41Z</time>
      </trkpt>
      <trkpt lat="61.524826549" lon="8.81025454961">
        <ele>1379.15</ele>
        <time>2012-08-09T16:48:56Z</time>
      </trkpt>
      <trkpt lat="61.5248200111" lon="8.810257148">
        <ele>1381.07</ele>
        <time>2012-08-09T16:48:58Z</time>
      </trkpt>
      <trkpt lat="61.5248034988" lon="8.8102620095">
        <ele>1380.59</ele>
        <time>2012-08-09T16:49:00Z</time>
      </trkpt>
      <trkpt lat="61.5247945301" lon="8.81025413051">
        <ele>1380.11</ele>
        <time>2012-08-09T16:49:01Z</time>
      </trkpt>
      <trkpt lat="61.5247738268" lon="8.8102536276">
        <ele>1382.51</ele>
        <time>2012-08-09T16:49:05Z</time>
      </trkpt>
      <trkpt lat="61.5246533789" lon="8.81027877331">
        <ele>1382.03</ele>
        <time>2012-08-09T16:49:17Z</time>
      </trkpt>
      <trkpt lat="61.5246279817" lon="8.81032395177">
        <ele>1382.03</ele>
        <time>2012-08-09T16:49:33Z</time>
      </trkpt>
      <trkpt lat="61.5246154089" lon="8.81031188183">
        <ele>1382.03</ele>
        <time>2012-08-09T16:49:40Z</time>
      </trkpt>
      <trkpt lat="61.5245075338" lon="8.81030140445">
        <ele>1382.51</ele>
        <time>2012-08-09T16:49:53Z</time>
      </trkpt>
      <trkpt lat="61.5244976431" lon="8.81029930897">
        <ele>1382.03</ele>
        <time>2012-08-09T16:49:54Z</time>
      </trkpt>
      <trkpt lat="61.5244864114" lon="8.81029746495">
        <ele>1382.03</ele>
        <time>2012-08-09T16:49:55Z</time>
      </trkpt>
      <trkpt lat="61.5244751796" lon="8.81029964425">
        <ele>1382.51</ele>
        <time>2012-08-09T16:49:56Z</time>
      </trkpt>
      <trkpt lat="61.5244647861" lon="8.81030299701">
        <ele>1383.47</ele>
        <time>2012-08-09T16:49:57Z</time>
      </trkpt>
      <trkpt lat="61.5243517142" lon="8.81027533673">
        <ele>1382.99</ele>
        <time>2012-08-09T16:50:09Z</time>
      </trkpt>
      <trkpt lat="61.5242746007" lon="8.81025077775">
        <ele>1383.96</ele>
        <time>2012-08-09T16:50:16Z</time>
      </trkpt>
      <trkpt lat="61.5241166018" lon="8.81027416326">
        <ele>1383.96</ele>
        <time>2012-08-09T16:50:30Z</time>
      </trkpt>
      <trkpt lat="61.5240695793" lon="8.81027827039">
        <ele>1383.47</ele>
        <time>2012-08-09T16:50:34Z</time>
      </trkpt>
      <trkpt lat="61.523965979" lon="8.81029075943">
        <ele>1384.44</ele>
        <time>2012-08-09T16:50:45Z</time>
      </trkpt>
      <trkpt lat="61.5237697586" lon="8.81029721349">
        <ele>1384.92</ele>
        <time>2012-08-09T16:51:01Z</time>
      </trkpt>
      <trkpt lat="61.5235869493" lon="8.81030224264">
        <ele>1384.44</ele>
        <time>2012-08-09T16:51:16Z</time>
      </trkpt>
      <trkpt lat="61.5235604625" lon="8.81029746495">
        <ele>1385.4</ele>
        <time>2012-08-09T16:51:18Z</time>
      </trkpt>
      <trkpt lat="61.5234190598" lon="8.81027902476">
        <ele>1386.84</ele>
        <time>2012-08-09T16:51:31Z</time>
      </trkpt>
      <trkpt lat="61.5233789943" lon="8.81024356931">
        <ele>1385.88</ele>
        <time>2012-08-09T16:51:44Z</time>
      </trkpt>
      <trkpt lat="61.5233706124" lon="8.8102514483">
        <ele>1386.84</ele>
        <time>2012-08-09T16:52:02Z</time>
      </trkpt>
      <trkpt lat="61.5233639907" lon="8.81024273112">
        <ele>1385.4</ele>
        <time>2012-08-09T16:52:03Z</time>
      </trkpt>
      <trkpt lat="61.5233526751" lon="8.81024675444">
        <ele>1385.88</ele>
        <time>2012-08-09T16:52:04Z</time>
      </trkpt>
      <trkpt lat="61.5233396832" lon="8.81025153212">
        <ele>1385.4</ele>
        <time>2012-08-09T16:52:05Z</time>
      </trkpt>
      <trkpt lat="61.5233279485" lon="8.81024876609">
        <ele>1385.88</ele>
        <time>2012-08-09T16:52:06Z</time>
      </trkpt>
      <trkpt lat="61.5233178064" lon="8.81024289876">
        <ele>1385.88</ele>
        <time>2012-08-09T16:52:07Z</time>
      </trkpt>
      <trkpt lat="61.5232248511" lon="8.81017995067">
        <ele>1387.32</ele>
        <time>2012-08-09T16:52:18Z</time>
      </trkpt>
      <trkpt lat="61.5232088417" lon="8.81018481217">
        <ele>1385.4</ele>
        <time>2012-08-09T16:52:20Z</time>
      </trkpt>
      <trkpt lat="61.5231917426" lon="8.81017751992">
        <ele>1387.32</ele>
        <time>2012-08-09T16:52:22Z</time>
      </trkpt>
      <trkpt lat="61.5230830293" lon="8.81021280773">
        <ele>1386.84</ele>
        <time>2012-08-09T16:52:35Z</time>
      </trkpt>
      <trkpt lat="61.5230355877" lon="8.81021498702">
        <ele>1388.76</ele>
        <time>2012-08-09T16:52:40Z</time>
      </trkpt>
      <trkpt lat="61.5229319874" lon="8.81024264731">
        <ele>1387.8</ele>
        <time>2012-08-09T16:52:56Z</time>
      </trkpt>
      <trkpt lat="61.5228076838" lon="8.81026502699">
        <ele>1389.72</ele>
        <time>2012-08-09T16:53:10Z</time>
      </trkpt>
      <trkpt lat="61.5226937737" lon="8.81027005613">
        <ele>1389.24</ele>
        <time>2012-08-09T16:53:22Z</time>
      </trkpt>
      <trkpt lat="61.522673741" lon="8.8102602493">
        <ele>1388.28</ele>
        <time>2012-08-09T16:53:26Z</time>
      </trkpt>
      <trkpt lat="61.5226146486" lon="8.81027181633">
        <ele>1388.76</ele>
        <time>2012-08-09T16:53:32Z</time>
      </trkpt>
      <trkpt lat="61.5226006508" lon="8.81027030759">
        <ele>1389.72</ele>
        <time>2012-08-09T16:53:33Z</time>
      </trkpt>
      <trkpt lat="61.5225874912" lon="8.81027441472">
        <ele>1390.2</ele>
        <time>2012-08-09T16:53:34Z</time>
      </trkpt>
      <trkpt lat="61.5225768462" lon="8.81027474999">
        <ele>1389.24</ele>
        <time>2012-08-09T16:53:35Z</time>
      </trkpt>
      <trkpt lat="61.5225510299" lon="8.81028246135">
        <ele>1390.2</ele>
        <time>2012-08-09T16:53:39Z</time>
      </trkpt>
      <trkpt lat="61.5224294085" lon="8.81026410498">
        <ele>1389.24</ele>
        <time>2012-08-09T16:53:50Z</time>
      </trkpt>
      <trkpt lat="61.5223066136" lon="8.81023334339">
        <ele>1387.8</ele>
        <time>2012-08-09T16:53:59Z</time>
      </trkpt>
      <trkpt lat="61.5222019237" lon="8.81021071225">
        <ele>1389.24</ele>
        <time>2012-08-09T16:54:09Z</time>
      </trkpt>
      <trkpt lat="61.5221876744" lon="8.81020090543">
        <ele>1389.24</ele>
        <time>2012-08-09T16:54:10Z</time>
      </trkpt>
      <trkpt lat="61.5220357105" lon="8.81015287712">
        <ele>1388.76</ele>
        <time>2012-08-09T16:54:24Z</time>
      </trkpt>
      <trkpt lat="61.5219833236" lon="8.8101426512">
        <ele>1387.8</ele>
        <time>2012-08-09T16:54:36Z</time>
      </trkpt>
      <trkpt lat="61.5219337866" lon="8.810149692">
        <ele>1388.76</ele>
        <time>2012-08-09T16:54:41Z</time>
      </trkpt>
      <trkpt lat="61.5219213814" lon="8.81015446968">
        <ele>1388.76</ele>
        <time>2012-08-09T16:54:42Z</time>
      </trkpt>
      <trkpt lat="61.5219106525" lon="8.81016134284">
        <ele>1387.8</ele>
        <time>2012-08-09T16:54:43Z</time>
      </trkpt>
      <trkpt lat="61.5217818227" lon="8.81021917798">
        <ele>1388.28</ele>
        <time>2012-08-09T16:54:56Z</time>
      </trkpt>
      <trkpt lat="61.5217891987" lon="8.81018992513">
        <ele>1387.32</ele>
        <time>2012-08-09T16:55:11Z</time>
      </trkpt>
      <trkpt lat="61.521769166" lon="8.81025798619">
        <ele>1388.28</ele>
        <time>2012-08-09T16:55:30Z</time>
      </trkpt>
      <trkpt lat="61.5217722673" lon="8.81025756709">
        <ele>1387.8</ele>
        <time>2012-08-09T16:55:51Z</time>
      </trkpt>
      <trkpt lat="61.5217131749" lon="8.81027667783">
        <ele>1387.8</ele>
        <time>2012-08-09T16:56:08Z</time>
      </trkpt>
      <trkpt lat="61.5216717683" lon="8.81026955321">
        <ele>1385.88</ele>
        <time>2012-08-09T16:56:20Z</time>
      </trkpt>
      <trkpt lat="61.5215540025" lon="8.81032386795">
        <ele>1387.32</ele>
        <time>2012-08-09T16:56:33Z</time>
      </trkpt>
      <trkpt lat="61.5214218199" lon="8.81041196175">
        <ele>1386.36</ele>
        <time>2012-08-09T16:56:47Z</time>
      </trkpt>
      <trkpt lat="61.5212846082" lon="8.81046577357">
        <ele>1387.32</ele>
        <time>2012-08-09T16:57:00Z</time>
      </trkpt>
      <trkpt lat="61.5211272798" lon="8.81051975302">
        <ele>1387.32</ele>
        <time>2012-08-09T16:57:14Z</time>
      </trkpt>
      <trkpt lat="61.5210592188" lon="8.81052277051">
        <ele>1386.84</ele>
        <time>2012-08-09T16:57:21Z</time>
      </trkpt>
      <trkpt lat="61.5209909901" lon="8.81052947603">
        <ele>1387.32</ele>
        <time>2012-08-09T16:57:28Z</time>
      </trkpt>
      <trkpt lat="61.5209471527" lon="8.81054330617">
        <ele>1386.84</ele>
        <time>2012-08-09T16:57:33Z</time>
      </trkpt>
      <trkpt lat="61.5209338255" lon="8.81054037251">
        <ele>1386.84</ele>
        <time>2012-08-09T16:57:34Z</time>
      </trkpt>
      <trkpt lat="61.5209209174" lon="8.81054330617">
        <ele>1386.36</ele>
        <time>2012-08-09T16:57:35Z</time>
      </trkpt>
      <trkpt lat="61.5209057461" lon="8.8105464913">
        <ele>1386.36</ele>
        <time>2012-08-09T16:57:36Z</time>
      </trkpt>
      <trkpt lat="61.520890994" lon="8.81054573692">
        <ele>1386.84</ele>
        <time>2012-08-09T16:57:37Z</time>
      </trkpt>
      <trkpt lat="61.520847911" lon="8.8105495926">
        <ele>1386.84</ele>
        <time>2012-08-09T16:57:42Z</time>
      </trkpt>
      <trkpt lat="61.5208360087" lon="8.81054825149">
        <ele>1388.28</ele>
        <time>2012-08-09T16:57:43Z</time>
      </trkpt>
      <trkpt lat="61.5208217595" lon="8.81055956706">
        <ele>1387.8</ele>
        <time>2012-08-09T16:57:44Z</time>
      </trkpt>
      <trkpt lat="61.5208066721" lon="8.81057356484">
        <ele>1387.8</ele>
        <time>2012-08-09T16:57:45Z</time>
      </trkpt>
      <trkpt lat="61.5207958594" lon="8.81058379076">
        <ele>1387.8</ele>
        <time>2012-08-09T16:57:46Z</time>
      </trkpt>
      <trkpt lat="61.5207861364" lon="8.8105896581">
        <ele>1387.32</ele>
        <time>2012-08-09T16:57:47Z</time>
      </trkpt>
      <trkpt lat="61.5206361003" lon="8.81072686985">
        <ele>1385.88</ele>
        <time>2012-08-09T16:58:03Z</time>
      </trkpt>
      <trkpt lat="61.5206244495" lon="8.81072804332">
        <ele>1386.84</ele>
        <time>2012-08-09T16:58:04Z</time>
      </trkpt>
      <trkpt lat="61.520610787" lon="8.81072888151">
        <ele>1386.84</ele>
        <time>2012-08-09T16:58:05Z</time>
      </trkpt>
      <trkpt lat="61.5205962863" lon="8.81073349155">
        <ele>1386.36</ele>
        <time>2012-08-09T16:58:06Z</time>
      </trkpt>
      <trkpt lat="61.5204701386" lon="8.81082996726">
        <ele>1385.88</ele>
        <time>2012-08-09T16:58:20Z</time>
      </trkpt>
      <trkpt lat="61.5203338489" lon="8.8108816836">
        <ele>1385.88</ele>
        <time>2012-08-09T16:58:34Z</time>
      </trkpt>
      <trkpt lat="61.5203232877" lon="8.81088302471">
        <ele>1385.88</ele>
        <time>2012-08-09T16:58:35Z</time>
      </trkpt>
      <trkpt lat="61.5202646982" lon="8.81087296642">
        <ele>1386.36</ele>
        <time>2012-08-09T16:58:41Z</time>
      </trkpt>
      <trkpt lat="61.5201076213" lon="8.81081303582">
        <ele>1386.36</ele>
        <time>2012-08-09T16:58:55Z</time>
      </trkpt>
      <trkpt lat="61.5199875087" lon="8.81080247462">
        <ele>1385.88</ele>
        <time>2012-08-09T16:59:06Z</time>
      </trkpt>
      <trkpt lat="61.519865552" lon="8.81081513129">
        <ele>1386.36</ele>
        <time>2012-08-09T16:59:19Z</time>
      </trkpt>
      <trkpt lat="61.5198093932" lon="8.81082820706">
        <ele>1387.8</ele>
        <time>2012-08-09T16:59:26Z</time>
      </trkpt>
      <trkpt lat="61.5197929647" lon="8.81083390675">
        <ele>1387.8</ele>
        <time>2012-08-09T16:59:27Z</time>
      </trkpt>
      <trkpt lat="61.51977662" lon="8.81084077992">
        <ele>1387.8</ele>
        <time>2012-08-09T16:59:28Z</time>
      </trkpt>
      <trkpt lat="61.5197656397" lon="8.81084840745">
        <ele>1388.28</ele>
        <time>2012-08-09T16:59:29Z</time>
      </trkpt>
      <trkpt lat="61.5197567549" lon="8.8108596392">
        <ele>1387.32</ele>
        <time>2012-08-09T16:59:30Z</time>
      </trkpt>
      <trkpt lat="61.5197135881" lon="8.81086693145">
        <ele>1388.76</ele>
        <time>2012-08-09T16:59:36Z</time>
      </trkpt>
      <trkpt lat="61.5195775498" lon="8.81088218652">
        <ele>1388.76</ele>
        <time>2012-08-09T16:59:48Z</time>
      </trkpt>
      <trkpt lat="61.5194791462" lon="8.81091454066">
        <ele>1388.76</ele>
        <time>2012-08-09T17:00:00Z</time>
      </trkpt>
      <trkpt lat="61.5194565989" lon="8.81092476659">
        <ele>1389.24</ele>
        <time>2012-08-09T17:00:12Z</time>
      </trkpt>
      <trkpt lat="61.5194457863" lon="8.81092116237">
        <ele>1388.28</ele>
        <time>2012-08-09T17:00:13Z</time>
      </trkpt>
      <trkpt lat="61.5194339678" lon="8.81092091091">
        <ele>1389.24</ele>
        <time>2012-08-09T17:00:14Z</time>
      </trkpt>
      <trkpt lat="61.5193117596" lon="8.8109411113">
        <ele>1390.2</ele>
        <time>2012-08-09T17:00:26Z</time>
      </trkpt>
      <trkpt lat="61.5192508232" lon="8.81096323952">
        <ele>1389.24</ele>
        <time>2012-08-09T17:00:34Z</time>
      </trkpt>
      <trkpt lat="61.5192391723" lon="8.81096701138">
        <ele>1390.2</ele>
        <time>2012-08-09T17:00:35Z</time>
      </trkpt>
      <trkpt lat="61.5191762242" lon="8.81099643186">
        <ele>1390.68</ele>
        <time>2012-08-09T17:00:43Z</time>
      </trkpt>
      <trkpt lat="61.5191446245" lon="8.8109948393">
        <ele>1391.17</ele>
        <time>2012-08-09T17:00:46Z</time>
      </trkpt>
      <trkpt lat="61.5190328937" lon="8.81104756147">
        <ele>1390.68</ele>
        <time>2012-08-09T17:00:57Z</time>
      </trkpt>
      <trkpt lat="61.5189093444" lon="8.81114110351">
        <ele>1391.65</ele>
        <time>2012-08-09T17:01:11Z</time>
      </trkpt>
      <trkpt lat="61.5187796764" lon="8.81119407713">
        <ele>1393.09</ele>
        <time>2012-08-09T17:01:25Z</time>
      </trkpt>
      <trkpt lat="61.5187125374" lon="8.81124746986">
        <ele>1393.09</ele>
        <time>2012-08-09T17:01:32Z</time>
      </trkpt>
      <trkpt lat="61.5187025629" lon="8.81125115789">
        <ele>1392.13</ele>
        <time>2012-08-09T17:01:33Z</time>
      </trkpt>
      <trkpt lat="61.5186619945" lon="8.81125451066">
        <ele>1392.13</ele>
        <time>2012-08-09T17:01:38Z</time>
      </trkpt>
      <trkpt lat="61.5186482482" lon="8.81125182845">
        <ele>1393.09</ele>
        <time>2012-08-09T17:01:39Z</time>
      </trkpt>
      <trkpt lat="61.518527884" lon="8.81125057116">
        <ele>1393.09</ele>
        <time>2012-08-09T17:01:51Z</time>
      </trkpt>
      <trkpt lat="61.5185174067" lon="8.81125677377">
        <ele>1393.09</ele>
        <time>2012-08-09T17:01:52Z</time>
      </trkpt>
      <trkpt lat="61.5185067616" lon="8.81126205437">
        <ele>1392.61</ele>
        <time>2012-08-09T17:01:53Z</time>
      </trkpt>
      <trkpt lat="61.518495949" lon="8.81126540713">
        <ele>1393.57</ele>
        <time>2012-08-09T17:01:54Z</time>
      </trkpt>
      <trkpt lat="61.5183908399" lon="8.81132592447">
        <ele>1392.61</ele>
        <time>2012-08-09T17:02:06Z</time>
      </trkpt>
      <trkpt lat="61.5183774289" lon="8.81140496582">
        <ele>1392.13</ele>
        <time>2012-08-09T17:02:18Z</time>
      </trkpt>
      <trkpt lat="61.5183682088" lon="8.81145525724">
        <ele>1390.2</ele>
        <time>2012-08-09T17:02:29Z</time>
      </trkpt>
      <trkpt lat="61.5183667839" lon="8.81148216315">
        <ele>1391.65</ele>
        <time>2012-08-09T17:02:30Z</time>
      </trkpt>
      <trkpt lat="61.5183615871" lon="8.81150202826">
        <ele>1391.65</ele>
        <time>2012-08-09T17:02:31Z</time>
      </trkpt>
      <trkpt lat="61.5182969626" lon="8.81155055948">
        <ele>1390.2</ele>
        <time>2012-08-09T17:02:43Z</time>
      </trkpt>
      <trkpt lat="61.5183011536" lon="8.81153865717">
        <ele>1388.76</ele>
        <time>2012-08-09T17:03:03Z</time>
      </trkpt>
      <trkpt lat="61.5183029138" lon="8.81153739989">
        <ele>1391.65</ele>
        <time>2012-08-09T17:03:04Z</time>
      </trkpt>
      <trkpt lat="61.5183019079" lon="8.81153622642">
        <ele>1389.72</ele>
        <time>2012-08-09T17:03:05Z</time>
      </trkpt>
      <trkpt lat="61.5182730742" lon="8.81157570519">
        <ele>1389.24</ele>
        <time>2012-08-09T17:03:21Z</time>
      </trkpt>
      <trkpt lat="61.5182625968" lon="8.81158484146">
        <ele>1388.76</ele>
        <time>2012-08-09T17:03:22Z</time>
      </trkpt>
      <trkpt lat="61.5182497725" lon="8.81159397773">
        <ele>1389.24</ele>
        <time>2012-08-09T17:03:23Z</time>
      </trkpt>
      <trkpt lat="61.5181983914" lon="8.81165206432">
        <ele>1392.61</ele>
        <time>2012-08-09T17:03:29Z</time>
      </trkpt>
      <trkpt lat="61.5181867406" lon="8.81166798994">
        <ele>1390.68</ele>
        <time>2012-08-09T17:03:30Z</time>
      </trkpt>
      <trkpt lat="61.5181201883" lon="8.81180335768">
        <ele>1388.76</ele>
        <time>2012-08-09T17:03:36Z</time>
      </trkpt>
      <trkpt lat="61.5180791169" lon="8.81186261773">
        <ele>1390.2</ele>
        <time>2012-08-09T17:03:50Z</time>
      </trkpt>
      <trkpt lat="61.5180752613" lon="8.81188432686">
        <ele>1390.2</ele>
        <time>2012-08-09T17:03:56Z</time>
      </trkpt>
      <trkpt lat="61.5179983992" lon="8.81196152419">
        <ele>1390.2</ele>
        <time>2012-08-09T17:04:07Z</time>
      </trkpt>
      <trkpt lat="61.5179500356" lon="8.81203754805">
        <ele>1391.17</ele>
        <time>2012-08-09T17:04:15Z</time>
      </trkpt>
      <trkpt lat="61.5179020911" lon="8.81208549254">
        <ele>1391.65</ele>
        <time>2012-08-09T17:04:22Z</time>
      </trkpt>
      <trkpt lat="61.5178323537" lon="8.81214031018">
        <ele>1390.68</ele>
        <time>2012-08-09T17:04:32Z</time>
      </trkpt>
      <trkpt lat="61.5177973174" lon="8.81221507676">
        <ele>1392.13</ele>
        <time>2012-08-09T17:04:40Z</time>
      </trkpt>
      <trkpt lat="61.5177901927" lon="8.81224357523">
        <ele>1392.61</ele>
        <time>2012-08-09T17:04:42Z</time>
      </trkpt>
      <trkpt lat="61.5177731775" lon="8.81234591827">
        <ele>1392.13</ele>
        <time>2012-08-09T17:04:55Z</time>
      </trkpt>
      <trkpt lat="61.5177700762" lon="8.81237802096">
        <ele>1391.65</ele>
        <time>2012-08-09T17:05:05Z</time>
      </trkpt>
      <trkpt lat="61.5177598502" lon="8.81242353469">
        <ele>1391.17</ele>
        <time>2012-08-09T17:05:35Z</time>
      </trkpt>
      <trkpt lat="61.517739566" lon="8.81241808645">
        <ele>1391.17</ele>
        <time>2012-08-09T17:06:02Z</time>
      </trkpt>
      <trkpt lat="61.5177459363" lon="8.81243141368">
        <ele>1391.65</ele>
        <time>2012-08-09T17:06:07Z</time>
      </trkpt>
      <trkpt lat="61.5177427512" lon="8.81245479919">
        <ele>1389.72</ele>
        <time>2012-08-09T17:06:08Z</time>
      </trkpt>
      <trkpt lat="61.5177322738" lon="8.81248824298">
        <ele>1392.13</ele>
        <time>2012-08-09T17:06:11Z</time>
      </trkpt>
      <trkpt lat="61.5176880173" lon="8.81258186884">
        <ele>1391.17</ele>
        <time>2012-08-09T17:06:23Z</time>
      </trkpt>
      <trkpt lat="61.5176378936" lon="8.8126794342">
        <ele>1391.65</ele>
        <time>2012-08-09T17:06:36Z</time>
      </trkpt>
      <trkpt lat="61.5176216327" lon="8.81276191212">
        <ele>1391.17</ele>
        <time>2012-08-09T17:06:48Z</time>
      </trkpt>
      <trkpt lat="61.5176192857" lon="8.81279451773">
        <ele>1390.68</ele>
        <time>2012-08-09T17:07:03Z</time>
      </trkpt>
      <trkpt lat="61.5176103171" lon="8.81287246943">
        <ele>1391.65</ele>
        <time>2012-08-09T17:07:07Z</time>
      </trkpt>
      <trkpt lat="61.5176026057" lon="8.8129159715">
        <ele>1390.68</ele>
        <time>2012-08-09T17:07:10Z</time>
      </trkpt>
      <trkpt lat="61.5175883565" lon="8.81293969229">
        <ele>1389.72</ele>
        <time>2012-08-09T17:07:12Z</time>
      </trkpt>
      <trkpt lat="61.5175763704" lon="8.81295192987">
        <ele>1390.2</ele>
        <time>2012-08-09T17:07:13Z</time>
      </trkpt>
      <trkpt lat="61.5175295994" lon="8.81299023516">
        <ele>1388.76</ele>
        <time>2012-08-09T17:07:18Z</time>
      </trkpt>
      <trkpt lat="61.5175213013" lon="8.81299987435">
        <ele>1391.17</ele>
        <time>2012-08-09T17:07:20Z</time>
      </trkpt>
      <trkpt lat="61.5174995922" lon="8.81303683855">
        <ele>1389.72</ele>
        <time>2012-08-09T17:07:24Z</time>
      </trkpt>
      <trkpt lat="61.5174937248" lon="8.8130630739">
        <ele>1389.24</ele>
        <time>2012-08-09T17:07:25Z</time>
      </trkpt>
      <trkpt lat="61.5174150188" lon="8.81318452768">
        <ele>1392.13</ele>
        <time>2012-08-09T17:07:37Z</time>
      </trkpt>
      <trkpt lat="61.5173644759" lon="8.81323062815">
        <ele>1390.2</ele>
        <time>2012-08-09T17:07:42Z</time>
      </trkpt>
      <trkpt lat="61.5173545014" lon="8.81323465146">
        <ele>1390.2</ele>
        <time>2012-08-09T17:07:43Z</time>
      </trkpt>
      <trkpt lat="61.5173234046" lon="8.81326750852">
        <ele>1392.13</ele>
        <time>2012-08-09T17:07:46Z</time>
      </trkpt>
      <trkpt lat="61.5173050482" lon="8.81333741359">
        <ele>1390.68</ele>
        <time>2012-08-09T17:07:51Z</time>
      </trkpt>
      <trkpt lat="61.5172830038" lon="8.8133563567">
        <ele>1391.65</ele>
        <time>2012-08-09T17:07:54Z</time>
      </trkpt>
      <trkpt lat="61.5172652341" lon="8.81336566061">
        <ele>1390.68</ele>
        <time>2012-08-09T17:07:56Z</time>
      </trkpt>
      <trkpt lat="61.517246794" lon="8.81337144412">
        <ele>1392.13</ele>
        <time>2012-08-09T17:07:59Z</time>
      </trkpt>
      <trkpt lat="61.5172334667" lon="8.81339927204">
        <ele>1391.65</ele>
        <time>2012-08-09T17:08:14Z</time>
      </trkpt>
      <trkpt lat="61.5172255039" lon="8.81342106499">
        <ele>1389.72</ele>
        <time>2012-08-09T17:08:15Z</time>
      </trkpt>
      <trkpt lat="61.5172116738" lon="8.81344009191">
        <ele>1393.09</ele>
        <time>2012-08-09T17:08:17Z</time>
      </trkpt>
      <trkpt lat="61.5172036272" lon="8.81344688125">
        <ele>1391.65</ele>
        <time>2012-08-09T17:08:18Z</time>
      </trkpt>
      <trkpt lat="61.517191641" lon="8.81345551461">
        <ele>1390.68</ele>
        <time>2012-08-09T17:08:19Z</time>
      </trkpt>
      <trkpt lat="61.5171687584" lon="8.81347621791">
        <ele>1394.05</ele>
        <time>2012-08-09T17:08:22Z</time>
      </trkpt>
      <trkpt lat="61.5171230771" lon="8.8135329634">
        <ele>1392.13</ele>
        <time>2012-08-09T17:08:33Z</time>
      </trkpt>
      <trkpt lat="61.5170809161" lon="8.81364075467">
        <ele>1392.13</ele>
        <time>2012-08-09T17:08:45Z</time>
      </trkpt>
      <trkpt lat="61.5170110948" lon="8.81372876465">
        <ele>1391.65</ele>
        <time>2012-08-09T17:08:58Z</time>
      </trkpt>
      <trkpt lat="61.5169982705" lon="8.81379749626">
        <ele>1391.65</ele>
        <time>2012-08-09T17:09:07Z</time>
      </trkpt>
      <trkpt lat="61.5169690177" lon="8.81384175271">
        <ele>1391.65</ele>
        <time>2012-08-09T17:09:11Z</time>
      </trkpt>
      <trkpt lat="61.5169577021" lon="8.81384845823">
        <ele>1391.65</ele>
        <time>2012-08-09T17:09:12Z</time>
      </trkpt>
      <trkpt lat="61.5169100929" lon="8.81392909214">
        <ele>1391.17</ele>
        <time>2012-08-09T17:09:18Z</time>
      </trkpt>
      <trkpt lat="61.5169028006" lon="8.81394560449">
        <ele>1390.68</ele>
        <time>2012-08-09T17:09:19Z</time>
      </trkpt>
      <trkpt lat="61.5168973524" lon="8.81396261975">
        <ele>1390.2</ele>
        <time>2012-08-09T17:09:20Z</time>
      </trkpt>
      <trkpt lat="61.5168832708" lon="8.81398583762">
        <ele>1392.13</ele>
        <time>2012-08-09T17:09:22Z</time>
      </trkpt>
      <trkpt lat="61.5168399364" lon="8.81404191256">
        <ele>1391.17</ele>
        <time>2012-08-09T17:09:27Z</time>
      </trkpt>
      <trkpt lat="61.5168271121" lon="8.8140539825">
        <ele>1390.2</ele>
        <time>2012-08-09T17:09:28Z</time>
      </trkpt>
      <trkpt lat="61.5168049" lon="8.81407150067">
        <ele>1390.68</ele>
        <time>2012-08-09T17:09:35Z</time>
      </trkpt>
      <trkpt lat="61.5167613979" lon="8.81412187591">
        <ele>1390.68</ele>
        <time>2012-08-09T17:09:41Z</time>
      </trkpt>
      <trkpt lat="61.5167431254" lon="8.81416646764">
        <ele>1390.68</ele>
        <time>2012-08-09T17:09:53Z</time>
      </trkpt>
      <trkpt lat="61.5167125314" lon="8.81418792531">
        <ele>1390.68</ele>
        <time>2012-08-09T17:10:09Z</time>
      </trkpt>
      <trkpt lat="61.5167038981" lon="8.81419974379">
        <ele>1389.72</ele>
        <time>2012-08-09T17:10:10Z</time>
      </trkpt>
      <trkpt lat="61.5166757349" lon="8.81429194473">
        <ele>1390.68</ele>
        <time>2012-08-09T17:10:18Z</time>
      </trkpt>
      <trkpt lat="61.5166606475" lon="8.81432505324">
        <ele>1390.2</ele>
        <time>2012-08-09T17:10:20Z</time>
      </trkpt>
      <trkpt lat="61.5166339092" lon="8.81435916759">
        <ele>1386.84</ele>
        <time>2012-08-09T17:10:32Z</time>
      </trkpt>
      <trkpt lat="61.5166298859" lon="8.81436989643">
        <ele>1388.28</ele>
        <time>2012-08-09T17:10:33Z</time>
      </trkpt>
      <trkpt lat="61.5165935084" lon="8.81443561055">
        <ele>1384.92</ele>
        <time>2012-08-09T17:10:40Z</time>
      </trkpt>
      <trkpt lat="61.5165414568" lon="8.81448129192">
        <ele>1385.4</ele>
        <time>2012-08-09T17:10:47Z</time>
      </trkpt>
      <trkpt lat="61.5164799336" lon="8.81453678012">
        <ele>1384.44</ele>
        <time>2012-08-09T17:10:57Z</time>
      </trkpt>
      <trkpt lat="61.5164679475" lon="8.81454348564">
        <ele>1384.44</ele>
        <time>2012-08-09T17:10:58Z</time>
      </trkpt>
      <trkpt lat="61.516454285" lon="8.81455195136">
        <ele>1383.96</ele>
        <time>2012-08-09T17:10:59Z</time>
      </trkpt>
      <trkpt lat="61.5163985454" lon="8.81460458972">
        <ele>1383.96</ele>
        <time>2012-08-09T17:11:13Z</time>
      </trkpt>
      <trkpt lat="61.5163600724" lon="8.81459545344">
        <ele>1383.96</ele>
        <time>2012-08-09T17:11:33Z</time>
      </trkpt>
      <trkpt lat="61.5163772553" lon="8.81459612399">
        <ele>1382.51</ele>
        <time>2012-08-09T17:12:01Z</time>
      </trkpt>
      <trkpt lat="61.5163739026" lon="8.81461716257">
        <ele>1382.99</ele>
        <time>2012-08-09T17:12:17Z</time>
      </trkpt>
      <trkpt lat="61.5163718909" lon="8.81457818672">
        <ele>1383.47</ele>
        <time>2012-08-09T17:12:33Z</time>
      </trkpt>
      <trkpt lat="61.5163733158" lon="8.81456385367">
        <ele>1383.47</ele>
        <time>2012-08-09T17:12:55Z</time>
      </trkpt>
      <trkpt lat="61.5163745731" lon="8.81455798633">
        <ele>1383.47</ele>
        <time>2012-08-09T17:13:29Z</time>
      </trkpt>
      <trkpt lat="61.5163817815" lon="8.81457692944">
        <ele>1383.47</ele>
        <time>2012-08-09T17:13:50Z</time>
      </trkpt>
      <trkpt lat="61.5163841285" lon="8.81458413787">
        <ele>1383.47</ele>
        <time>2012-08-09T17:14:21Z</time>
      </trkpt>
      <trkpt lat="61.5163445659" lon="8.81459679455">
        <ele>1382.51</ele>
        <time>2012-08-09T17:14:47Z</time>
      </trkpt>
      <trkpt lat="61.51633895" lon="8.81460065022">
        <ele>1382.99</ele>
        <time>2012-08-09T17:14:49Z</time>
      </trkpt>
      <trkpt lat="61.5162868984" lon="8.81467868574">
        <ele>1381.55</ele>
        <time>2012-08-09T17:15:02Z</time>
      </trkpt>
      <trkpt lat="61.5162278898" lon="8.8147062622">
        <ele>1380.59</ele>
        <time>2012-08-09T17:15:15Z</time>
      </trkpt>
      <trkpt lat="61.5161593258" lon="8.8147441484">
        <ele>1378.19</ele>
        <time>2012-08-09T17:15:30Z</time>
      </trkpt>
      <trkpt lat="61.516085146" lon="8.81480826996">
        <ele>1377.23</ele>
        <time>2012-08-09T17:15:43Z</time>
      </trkpt>
      <trkpt lat="61.51604902" lon="8.81481916644">
        <ele>1376.26</ele>
        <time>2012-08-09T17:15:56Z</time>
      </trkpt>
      <trkpt lat="61.5160186775" lon="8.814839283">
        <ele>1375.78</ele>
        <time>2012-08-09T17:16:01Z</time>
      </trkpt>
      <trkpt lat="61.5159369539" lon="8.81485579535">
        <ele>1373.86</ele>
        <time>2012-08-09T17:16:12Z</time>
      </trkpt>
      <trkpt lat="61.5159007441" lon="8.81489854306">
        <ele>1373.86</ele>
        <time>2012-08-09T17:16:28Z</time>
      </trkpt>
      <trkpt lat="61.5158776939" lon="8.81489267573">
        <ele>1372.9</ele>
        <time>2012-08-09T17:16:31Z</time>
      </trkpt>
      <trkpt lat="61.5158693958" lon="8.81489921361">
        <ele>1373.38</ele>
        <time>2012-08-09T17:16:32Z</time>
      </trkpt>
      <trkpt lat="61.5158574097" lon="8.81490332074">
        <ele>1372.42</ele>
        <time>2012-08-09T17:16:33Z</time>
      </trkpt>
      <trkpt lat="61.5158424899" lon="8.81492846645">
        <ele>1372.42</ele>
        <time>2012-08-09T17:16:49Z</time>
      </trkpt>
      <trkpt lat="61.5158378799" lon="8.81488211453">
        <ele>1371.94</ele>
        <time>2012-08-09T17:17:17Z</time>
      </trkpt>
      <trkpt lat="61.5158457588" lon="8.8149158936">
        <ele>1371.94</ele>
        <time>2012-08-09T17:17:49Z</time>
      </trkpt>
      <trkpt lat="61.5158334374" lon="8.81491337903">
        <ele>1371.46</ele>
        <time>2012-08-09T17:17:53Z</time>
      </trkpt>
      <trkpt lat="61.5158051066" lon="8.81493642926">
        <ele>1370.02</ele>
        <time>2012-08-09T17:18:03Z</time>
      </trkpt>
      <trkpt lat="61.5157740936" lon="8.81497045979">
        <ele>1369.54</ele>
        <time>2012-08-09T17:18:19Z</time>
      </trkpt>
      <trkpt lat="61.5157418232" lon="8.81494833156">
        <ele>1369.05</ele>
        <time>2012-08-09T17:18:27Z</time>
      </trkpt>
      <trkpt lat="61.5156838205" lon="8.81492846645">
        <ele>1370.02</ele>
        <time>2012-08-09T17:18:44Z</time>
      </trkpt>
      <trkpt lat="61.5156646259" lon="8.81491966546">
        <ele>1369.05</ele>
        <time>2012-08-09T17:18:46Z</time>
      </trkpt>
      <trkpt lat="61.5155774541" lon="8.81491991691">
        <ele>1368.57</ele>
        <time>2012-08-09T17:18:57Z</time>
      </trkpt>
      <trkpt lat="61.5155383945" lon="8.81490952335">
        <ele>1369.05</ele>
        <time>2012-08-09T17:19:06Z</time>
      </trkpt>
      <trkpt lat="61.5155300964" lon="8.81490147673">
        <ele>1369.54</ele>
        <time>2012-08-09T17:19:07Z</time>
      </trkpt>
      <trkpt lat="61.5154718421" lon="8.81486778148">
        <ele>1365.21</ele>
        <time>2012-08-09T17:19:18Z</time>
      </trkpt>
      <trkpt lat="61.5154681541" lon="8.81486811675">
        <ele>1369.05</ele>
        <time>2012-08-09T17:19:19Z</time>
      </trkpt>
      <trkpt lat="61.5154659748" lon="8.81486778148">
        <ele>1365.69</ele>
        <time>2012-08-09T17:19:21Z</time>
      </trkpt>
      <trkpt lat="61.5154655557" lon="8.81486820057">
        <ele>1370.02</ele>
        <time>2012-08-09T17:19:22Z</time>
      </trkpt>
      <trkpt lat="61.5154585987" lon="8.81487490609">
        <ele>1368.09</ele>
        <time>2012-08-09T17:19:24Z</time>
      </trkpt>
      <trkpt lat="61.5154109895" lon="8.81486753002">
        <ele>1368.57</ele>
        <time>2012-08-09T17:19:34Z</time>
      </trkpt>
      <trkpt lat="61.5153763723" lon="8.81483106874">
        <ele>1367.13</ele>
        <time>2012-08-09T17:19:43Z</time>
      </trkpt>
      <trkpt lat="61.515370002" lon="8.81482872181">
        <ele>1368.09</ele>
        <time>2012-08-09T17:19:44Z</time>
      </trkpt>
      <trkpt lat="61.5153520647" lon="8.81483064964">
        <ele>1362.81</ele>
        <time>2012-08-09T17:19:53Z</time>
      </trkpt>
      <trkpt lat="61.5153503045" lon="8.81482243538">
        <ele>1370.98</ele>
        <time>2012-08-09T17:19:54Z</time>
      </trkpt>
      <trkpt lat="61.5153449401" lon="8.81481497549">
        <ele>1365.21</ele>
        <time>2012-08-09T17:19:55Z</time>
      </trkpt>
      <trkpt lat="61.5153407492" lon="8.81481246091">
        <ele>1370.02</ele>
        <time>2012-08-09T17:19:56Z</time>
      </trkpt>
      <trkpt lat="61.5153270029" lon="8.81481095217">
        <ele>1361.84</ele>
        <time>2012-08-09T17:20:01Z</time>
      </trkpt>
      <trkpt lat="61.5153188724" lon="8.81480952725">
        <ele>1371.46</ele>
        <time>2012-08-09T17:20:02Z</time>
      </trkpt>
      <trkpt lat="61.5153143462" lon="8.81480600685">
        <ele>1367.13</ele>
        <time>2012-08-09T17:20:03Z</time>
      </trkpt>
      <trkpt lat="61.5153017733" lon="8.81480776705">
        <ele>1364.73</ele>
        <time>2012-08-09T17:20:08Z</time>
      </trkpt>
      <trkpt lat="61.5152933914" lon="8.81481589749">
        <ele>1367.61</ele>
        <time>2012-08-09T17:20:10Z</time>
      </trkpt>
      <trkpt lat="61.5152855963" lon="8.81482293829">
        <ele>1367.61</ele>
        <time>2012-08-09T17:20:11Z</time>
      </trkpt>
      <trkpt lat="61.515266737" lon="8.81483576261">
        <ele>1366.17</ele>
        <time>2012-08-09T17:20:13Z</time>
      </trkpt>
      <trkpt lat="61.5152523201" lon="8.81483634934">
        <ele>1365.69</ele>
        <time>2012-08-09T17:20:14Z</time>
      </trkpt>
      <trkpt lat="61.515237065" lon="8.81483215839">
        <ele>1365.69</ele>
        <time>2012-08-09T17:20:15Z</time>
      </trkpt>
      <trkpt lat="61.5152100753" lon="8.81482109427">
        <ele>1365.21</ele>
        <time>2012-08-09T17:20:19Z</time>
      </trkpt>
      <trkpt lat="61.5151946526" lon="8.81481447257">
        <ele>1366.65</ele>
        <time>2012-08-09T17:20:20Z</time>
      </trkpt>
      <trkpt lat="61.5150923096" lon="8.81481220946">
        <ele>1363.29</ele>
        <time>2012-08-09T17:20:29Z</time>
      </trkpt>
      <trkpt lat="61.5150891244" lon="8.81481690332">
        <ele>1366.65</ele>
        <time>2012-08-09T17:20:30Z</time>
      </trkpt>
      <trkpt lat="61.5150511544" lon="8.81482511759">
        <ele>1363.77</ele>
        <time>2012-08-09T17:20:35Z</time>
      </trkpt>
      <trkpt lat="61.5150325466" lon="8.81483182311">
        <ele>1363.29</ele>
        <time>2012-08-09T17:20:38Z</time>
      </trkpt>
      <trkpt lat="61.5150239971" lon="8.81483727135">
        <ele>1365.21</ele>
        <time>2012-08-09T17:20:39Z</time>
      </trkpt>
      <trkpt lat="61.5150130168" lon="8.81483886391">
        <ele>1363.29</ele>
        <time>2012-08-09T17:20:40Z</time>
      </trkpt>
      <trkpt lat="61.5149243362" lon="8.81486459635">
        <ele>1362.33</ele>
        <time>2012-08-09T17:20:53Z</time>
      </trkpt>
      <trkpt lat="61.51481051" lon="8.81491086446">
        <ele>1360.88</ele>
        <time>2012-08-09T17:21:07Z</time>
      </trkpt>
      <trkpt lat="61.5147418622" lon="8.81488387473">
        <ele>1363.77</ele>
        <time>2012-08-09T17:21:17Z</time>
      </trkpt>
      <trkpt lat="61.514692409" lon="8.81487381645">
        <ele>1361.36</ele>
        <time>2012-08-09T17:21:23Z</time>
      </trkpt>
      <trkpt lat="61.514660893" lon="8.8148868084">
        <ele>1360.4</ele>
        <time>2012-08-09T17:21:26Z</time>
      </trkpt>
      <trkpt lat="61.5146491583" lon="8.81488278508">
        <ele>1362.81</ele>
        <time>2012-08-09T17:21:27Z</time>
      </trkpt>
      <trkpt lat="61.5146391839" lon="8.81487515755">
        <ele>1361.36</ele>
        <time>2012-08-09T17:21:28Z</time>
      </trkpt>
      <trkpt lat="61.5146276169" lon="8.81485596299">
        <ele>1363.29</ele>
        <time>2012-08-09T17:21:31Z</time>
      </trkpt>
      <trkpt lat="61.5145748947" lon="8.81485152058">
        <ele>1360.4</ele>
        <time>2012-08-09T17:21:36Z</time>
      </trkpt>
      <trkpt lat="61.5145637468" lon="8.81484900601">
        <ele>1363.77</ele>
        <time>2012-08-09T17:21:37Z</time>
      </trkpt>
      <trkpt lat="61.5145395231" lon="8.81483995356">
        <ele>1362.81</ele>
        <time>2012-08-09T17:21:39Z</time>
      </trkpt>
      <trkpt lat="61.5145291295" lon="8.81483945064">
        <ele>1363.29</ele>
        <time>2012-08-09T17:21:40Z</time>
      </trkpt>
      <trkpt lat="61.514520077" lon="8.81483802572">
        <ele>1362.33</ele>
        <time>2012-08-09T17:21:41Z</time>
      </trkpt>
      <trkpt lat="61.5144576319" lon="8.81492058747">
        <ele>1361.36</ele>
        <time>2012-08-09T17:21:52Z</time>
      </trkpt>
      <trkpt lat="61.5143637545" lon="8.81501362659">
        <ele>1359.44</ele>
        <time>2012-08-09T17:22:04Z</time>
      </trkpt>
      <trkpt lat="61.5142614115" lon="8.81503500044">
        <ele>1357.52</ele>
        <time>2012-08-09T17:22:14Z</time>
      </trkpt>
      <trkpt lat="61.5142296441" lon="8.81504983641">
        <ele>1357.52</ele>
        <time>2012-08-09T17:22:17Z</time>
      </trkpt>
      <trkpt lat="61.514216736" lon="8.81504857913">
        <ele>1357.04</ele>
        <time>2012-08-09T17:22:18Z</time>
      </trkpt>
      <trkpt lat="61.5142083541" lon="8.81502318196">
        <ele>1357.04</ele>
        <time>2012-08-09T17:22:29Z</time>
      </trkpt>
      <trkpt lat="61.5142044146" lon="8.81505654193">
        <ele>1357.04</ele>
        <time>2012-08-09T17:23:02Z</time>
      </trkpt>
      <trkpt lat="61.5142044146" lon="8.8150405325">
        <ele>1357.04</ele>
        <time>2012-08-09T17:23:38Z</time>
      </trkpt>
      <trkpt lat="61.5142056718" lon="8.81504497491">
        <ele>1356.56</ele>
        <time>2012-08-09T17:24:11Z</time>
      </trkpt>
      <trkpt lat="61.5142055042" lon="8.81508713588">
        <ele>1356.56</ele>
        <time>2012-08-09T17:24:30Z</time>
      </trkpt>
      <trkpt lat="61.5141992178" lon="8.81509476341">
        <ele>1356.56</ele>
        <time>2012-08-09T17:24:31Z</time>
      </trkpt>
      <trkpt lat="61.5141031612" lon="8.81504916586">
        <ele>1354.63</ele>
        <time>2012-08-09T17:24:42Z</time>
      </trkpt>
      <trkpt lat="61.5140743274" lon="8.81504480727">
        <ele>1354.15</ele>
        <time>2012-08-09T17:24:49Z</time>
      </trkpt>
      <trkpt lat="61.5140636824" lon="8.81502971984">
        <ele>1354.63</ele>
        <time>2012-08-09T17:24:51Z</time>
      </trkpt>
      <trkpt lat="61.5139871556" lon="8.81493718363">
        <ele>1354.15</ele>
        <time>2012-08-09T17:25:02Z</time>
      </trkpt>
      <trkpt lat="61.5139549691" lon="8.8149154745">
        <ele>1354.15</ele>
        <time>2012-08-09T17:25:05Z</time>
      </trkpt>
      <trkpt lat="61.5139035042" lon="8.8148828689">
        <ele>1353.67</ele>
        <time>2012-08-09T17:25:14Z</time>
      </trkpt>
      <trkpt lat="61.5138348565" lon="8.81479033269">
        <ele>1349.83</ele>
        <time>2012-08-09T17:25:27Z</time>
      </trkpt>
      <trkpt lat="61.5138335153" lon="8.81478169933">
        <ele>1354.63</ele>
        <time>2012-08-09T17:25:28Z</time>
      </trkpt>
      <trkpt lat="61.5138308331" lon="8.81477180868">
        <ele>1354.63</ele>
        <time>2012-08-09T17:25:29Z</time>
      </trkpt>
      <trkpt lat="61.513803592" lon="8.81475068629">
        <ele>1351.27</ele>
        <time>2012-08-09T17:25:38Z</time>
      </trkpt>
      <trkpt lat="61.5136993211" lon="8.81478798576">
        <ele>1350.79</ele>
        <time>2012-08-09T17:25:51Z</time>
      </trkpt>
      <trkpt lat="61.5136659611" lon="8.81480743177">
        <ele>1350.79</ele>
        <time>2012-08-09T17:25:55Z</time>
      </trkpt>
      <trkpt lat="61.5136107244" lon="8.8147547096">
        <ele>1350.31</ele>
        <time>2012-08-09T17:26:00Z</time>
      </trkpt>
      <trkpt lat="61.5135912783" lon="8.81473425776">
        <ele>1351.27</ele>
        <time>2012-08-09T17:26:03Z</time>
      </trkpt>
      <trkpt lat="61.513541406" lon="8.81466812454">
        <ele>1351.27</ele>
        <time>2012-08-09T17:26:08Z</time>
      </trkpt>
      <trkpt lat="61.5135222115" lon="8.81465110928">
        <ele>1352.23</ele>
        <time>2012-08-09T17:26:10Z</time>
      </trkpt>
      <trkpt lat="61.5134989936" lon="8.81462722085">
        <ele>1349.35</ele>
        <time>2012-08-09T17:26:13Z</time>
      </trkpt>
      <trkpt lat="61.5134917852" lon="8.81462194026">
        <ele>1349.83</ele>
        <time>2012-08-09T17:26:14Z</time>
      </trkpt>
      <trkpt lat="61.5134805534" lon="8.81460065022">
        <ele>1351.75</ele>
        <time>2012-08-09T17:26:16Z</time>
      </trkpt>
      <trkpt lat="61.5134140011" lon="8.81455446593">
        <ele>1350.79</ele>
        <time>2012-08-09T17:26:27Z</time>
      </trkpt>
      <trkpt lat="61.5133549087" lon="8.81457290612">
        <ele>1345.98</ele>
        <time>2012-08-09T17:26:36Z</time>
      </trkpt>
      <trkpt lat="61.5133466944" lon="8.8145750016">
        <ele>1357.04</ele>
        <time>2012-08-09T17:26:37Z</time>
      </trkpt>
      <trkpt lat="61.5133393183" lon="8.81458036602">
        <ele>1351.75</ele>
        <time>2012-08-09T17:26:38Z</time>
      </trkpt>
      <trkpt lat="61.5132432617" lon="8.81464733742">
        <ele>1355.12</ele>
        <time>2012-08-09T17:26:49Z</time>
      </trkpt>
      <trkpt lat="61.5132363886" lon="8.81464616396">
        <ele>1353.19</ele>
        <time>2012-08-09T17:26:50Z</time>
      </trkpt>
      <trkpt lat="61.5131390747" lon="8.81465094164">
        <ele>1353.67</ele>
        <time>2012-08-09T17:27:02Z</time>
      </trkpt>
      <trkpt lat="61.5131272562" lon="8.81467122585">
        <ele>1354.63</ele>
        <time>2012-08-09T17:27:18Z</time>
      </trkpt>
      <trkpt lat="61.5131122526" lon="8.81468798965">
        <ele>1353.67</ele>
        <time>2012-08-09T17:27:36Z</time>
      </trkpt>
      <trkpt lat="61.513095824" lon="8.81471028551">
        <ele>1354.15</ele>
        <time>2012-08-09T17:27:55Z</time>
      </trkpt>
      <trkpt lat="61.5131259151" lon="8.81468044594">
        <ele>1354.15</ele>
        <time>2012-08-09T17:28:13Z</time>
      </trkpt>
      <trkpt lat="61.5131113306" lon="8.81466167048">
        <ele>1350.79</ele>
        <time>2012-08-09T17:28:17Z</time>
      </trkpt>
      <trkpt lat="61.5131113306" lon="8.81465588696">
        <ele>1355.12</ele>
        <time>2012-08-09T17:28:18Z</time>
      </trkpt>
      <trkpt lat="61.5131102409" lon="8.81468765438">
        <ele>1353.19</ele>
        <time>2012-08-09T17:28:32Z</time>
      </trkpt>
      <trkpt lat="61.5131144319" lon="8.81471481174">
        <ele>1353.19</ele>
        <time>2012-08-09T17:28:48Z</time>
      </trkpt>
      <trkpt lat="61.5131080616" lon="8.81467575207">
        <ele>1355.12</ele>
        <time>2012-08-09T17:29:06Z</time>
      </trkpt>
      <trkpt lat="61.5130867716" lon="8.81455002353">
        <ele>1354.15</ele>
        <time>2012-08-09T17:29:23Z</time>
      </trkpt>
      <trkpt lat="61.5130557586" lon="8.81452345289">
        <ele>1354.15</ele>
        <time>2012-08-09T17:29:45Z</time>
      </trkpt>
      <trkpt lat="61.5130630508" lon="8.81459754892">
        <ele>1354.15</ele>
        <time>2012-08-09T17:30:07Z</time>
      </trkpt>
      <trkpt lat="61.5130580217" lon="8.81457424723">
        <ele>1354.63</ele>
        <time>2012-08-09T17:30:30Z</time>
      </trkpt>
      <trkpt lat="61.5131114144" lon="8.81464884616">
        <ele>1354.63</ele>
        <time>2012-08-09T17:30:48Z</time>
      </trkpt>
      <trkpt lat="61.5131016914" lon="8.81458673626">
        <ele>1353.67</ele>
        <time>2012-08-09T17:31:00Z</time>
      </trkpt>
      <trkpt lat="61.5131057147" lon="8.81457131356">
        <ele>1353.67</ele>
        <time>2012-08-09T17:31:20Z</time>
      </trkpt>
      <trkpt lat="61.513105128" lon="8.81459830329">
        <ele>1355.12</ele>
        <time>2012-08-09T17:31:43Z</time>
      </trkpt>
      <trkpt lat="61.5131044574" lon="8.81464524195">
        <ele>1352.23</ele>
        <time>2012-08-09T17:32:03Z</time>
      </trkpt>
      <trkpt lat="61.5131068882" lon="8.81465320475">
        <ele>1358.48</ele>
        <time>2012-08-09T17:32:08Z</time>
      </trkpt>
      <trkpt lat="61.5131048765" lon="8.81465395913">
        <ele>1354.63</ele>
        <time>2012-08-09T17:32:09Z</time>
      </trkpt>
      <trkpt lat="61.5131285973" lon="8.81465245038">
        <ele>1355.12</ele>
        <time>2012-08-09T17:32:30Z</time>
      </trkpt>
      <trkpt lat="61.5130940638" lon="8.814677177">
        <ele>1353.67</ele>
        <time>2012-08-09T17:32:33Z</time>
      </trkpt>
      <trkpt lat="61.5130582731" lon="8.81465027109">
        <ele>1353.67</ele>
        <time>2012-08-09T17:32:38Z</time>
      </trkpt>
      <trkpt lat="61.5129529126" lon="8.81460282952">
        <ele>1351.27</ele>
        <time>2012-08-09T17:32:50Z</time>
      </trkpt>
      <trkpt lat="61.5129354782" lon="8.81458715536">
        <ele>1349.35</ele>
        <time>2012-08-09T17:32:52Z</time>
      </trkpt>
      <trkpt lat="61.5128538385" lon="8.81454264745">
        <ele>1348.39</ele>
        <time>2012-08-09T17:33:04Z</time>
      </trkpt>
      <trkpt lat="61.5127955005" lon="8.81455614232">
        <ele>1346.46</ele>
        <time>2012-08-09T17:33:13Z</time>
      </trkpt>
      <trkpt lat="61.5127066523" lon="8.81464918144">
        <ele>1343.1</ele>
        <time>2012-08-09T17:33:26Z</time>
      </trkpt>
      <trkpt lat="61.5126031358" lon="8.81464775652">
        <ele>1342.14</ele>
        <time>2012-08-09T17:33:36Z</time>
      </trkpt>
      <trkpt lat="61.5125415288" lon="8.81461607292">
        <ele>1340.7</ele>
        <time>2012-08-09T17:33:43Z</time>
      </trkpt>
      <trkpt lat="61.5125250164" lon="8.81461280398">
        <ele>1340.7</ele>
        <time>2012-08-09T17:33:47Z</time>
      </trkpt>
      <trkpt lat="61.5125100967" lon="8.8146107085">
        <ele>1338.29</ele>
        <time>2012-08-09T17:33:49Z</time>
      </trkpt>
      <trkpt lat="61.5124646667" lon="8.81463208236">
        <ele>1337.33</ele>
        <time>2012-08-09T17:33:55Z</time>
      </trkpt>
      <trkpt lat="61.5124406107" lon="8.81462747231">
        <ele>1338.77</ele>
        <time>2012-08-09T17:33:57Z</time>
      </trkpt>
      <trkpt lat="61.5123435482" lon="8.81458288059">
        <ele>1338.77</ele>
        <time>2012-08-09T17:34:08Z</time>
      </trkpt>
      <trkpt lat="61.512292251" lon="8.81454113871">
        <ele>1337.81</ele>
        <time>2012-08-09T17:34:12Z</time>
      </trkpt>
      <trkpt lat="61.5121044125" lon="8.81435036659">
        <ele>1338.77</ele>
        <time>2012-08-09T17:34:28Z</time>
      </trkpt>
      <trkpt lat="61.5120409615" lon="8.81425330415">
        <ele>1340.7</ele>
        <time>2012-08-09T17:34:39Z</time>
      </trkpt>
      <trkpt lat="61.5120250359" lon="8.81424400024">
        <ele>1340.7</ele>
        <time>2012-08-09T17:34:41Z</time>
      </trkpt>
      <trkpt lat="61.5119538736" lon="8.81425430998">
        <ele>1336.85</ele>
        <time>2012-08-09T17:34:50Z</time>
      </trkpt>
      <trkpt lat="61.511947671" lon="8.81426034495">
        <ele>1336.85</ele>
        <time>2012-08-09T17:34:51Z</time>
      </trkpt>
      <trkpt lat="61.5119216871" lon="8.81431533024">
        <ele>1337.81</ele>
        <time>2012-08-09T17:34:56Z</time>
      </trkpt>
      <trkpt lat="61.5118946973" lon="8.81432765163">
        <ele>1337.33</ele>
        <time>2012-08-09T17:34:59Z</time>
      </trkpt>
      <trkpt lat="61.511853626" lon="8.81438682787">
        <ele>1337.33</ele>
        <time>2012-08-09T17:35:05Z</time>
      </trkpt>
      <trkpt lat="61.5118058491" lon="8.81436201744">
        <ele>1336.37</ele>
        <time>2012-08-09T17:35:12Z</time>
      </trkpt>
      <trkpt lat="61.5117476787" lon="8.8143063616">
        <ele>1336.85</ele>
        <time>2012-08-09T17:35:17Z</time>
      </trkpt>
      <trkpt lat="61.5117408894" lon="8.81428984925">
        <ele>1337.33</ele>
        <time>2012-08-09T17:35:19Z</time>
      </trkpt>
      <trkpt lat="61.5117134806" lon="8.81422371604">
        <ele>1333.97</ele>
        <time>2012-08-09T17:35:24Z</time>
      </trkpt>
      <trkpt lat="61.5117098764" lon="8.81421265192">
        <ele>1337.81</ele>
        <time>2012-08-09T17:35:25Z</time>
      </trkpt>
      <trkpt lat="61.5117052663" lon="8.81420393474">
        <ele>1336.85</ele>
        <time>2012-08-09T17:35:26Z</time>
      </trkpt>
      <trkpt lat="61.511667883" lon="8.81416353397">
        <ele>1336.37</ele>
        <time>2012-08-09T17:35:30Z</time>
      </trkpt>
      <trkpt lat="61.5115610138" lon="8.81410259753">
        <ele>1336.37</ele>
        <time>2012-08-09T17:35:43Z</time>
      </trkpt>
      <trkpt lat="61.5115289111" lon="8.81408222951">
        <ele>1333.97</ele>
        <time>2012-08-09T17:35:48Z</time>
      </trkpt>
      <trkpt lat="61.5114600956" lon="8.81407619454">
        <ele>1335.89</ele>
        <time>2012-08-09T17:35:55Z</time>
      </trkpt>
      <trkpt lat="61.5114232991" lon="8.81409245543">
        <ele>1334.93</ele>
        <time>2012-08-09T17:36:00Z</time>
      </trkpt>
      <trkpt lat="61.5113238897" lon="8.81396790035">
        <ele>1332.52</ele>
        <time>2012-08-09T17:36:11Z</time>
      </trkpt>
      <trkpt lat="61.5113119874" lon="8.81393789314">
        <ele>1333.97</ele>
        <time>2012-08-09T17:36:13Z</time>
      </trkpt>
      <trkpt lat="61.5113022644" lon="8.81391786039">
        <ele>1333.01</ele>
        <time>2012-08-09T17:36:15Z</time>
      </trkpt>
      <trkpt lat="61.5112720896" lon="8.81386999972">
        <ele>1333.01</ele>
        <time>2012-08-09T17:36:20Z</time>
      </trkpt>
      <trkpt lat="61.5112502128" lon="8.81385616958">
        <ele>1332.04</ele>
        <time>2012-08-09T17:36:22Z</time>
      </trkpt>
      <trkpt lat="61.5112263244" lon="8.81387502886">
        <ele>1331.08</ele>
        <time>2012-08-09T17:36:25Z</time>
      </trkpt>
      <trkpt lat="61.5111705009" lon="8.81387125701">
        <ele>1330.6</ele>
        <time>2012-08-09T17:36:33Z</time>
      </trkpt>
      <trkpt lat="61.5111301839" lon="8.81384845823">
        <ele>1329.16</ele>
        <time>2012-08-09T17:36:37Z</time>
      </trkpt>
      <trkpt lat="61.511085676" lon="8.81381727755">
        <ele>1327.72</ele>
        <time>2012-08-09T17:36:42Z</time>
      </trkpt>
      <trkpt lat="61.5110785514" lon="8.81381325424">
        <ele>1331.56</ele>
        <time>2012-08-09T17:36:43Z</time>
      </trkpt>
      <trkpt lat="61.5110423416" lon="8.81376447156">
        <ele>1329.64</ele>
        <time>2012-08-09T17:36:57Z</time>
      </trkpt>
      <trkpt lat="61.5110425092" lon="8.81371309049">
        <ele>1329.64</ele>
        <time>2012-08-09T17:37:19Z</time>
      </trkpt>
      <trkpt lat="61.5110586025" lon="8.8137417566">
        <ele>1329.64</ele>
        <time>2012-08-09T17:37:41Z</time>
      </trkpt>
      <trkpt lat="61.5110394079" lon="8.8137730211">
        <ele>1329.64</ele>
        <time>2012-08-09T17:38:01Z</time>
      </trkpt>
      <trkpt lat="61.5110051259" lon="8.8138161879">
        <ele>1329.64</ele>
        <time>2012-08-09T17:38:31Z</time>
      </trkpt>
      <trkpt lat="61.5110121667" lon="8.81384368055">
        <ele>1329.64</ele>
        <time>2012-08-09T17:39:03Z</time>
      </trkpt>
      <trkpt lat="61.5110161062" lon="8.81384870969">
        <ele>1330.12</ele>
        <time>2012-08-09T17:39:24Z</time>
      </trkpt>
      <trkpt lat="61.5110315289" lon="8.8138214685">
        <ele>1329.16</ele>
        <time>2012-08-09T17:39:51Z</time>
      </trkpt>
      <trkpt lat="61.5110252425" lon="8.81382733583">
        <ele>1330.6</ele>
        <time>2012-08-09T17:39:52Z</time>
      </trkpt>
      <trkpt lat="61.5109757055" lon="8.81374209188">
        <ele>1330.6</ele>
        <time>2012-08-09T17:39:59Z</time>
      </trkpt>
      <trkpt lat="61.5109037049" lon="8.81368341856">
        <ele>1329.64</ele>
        <time>2012-08-09T17:40:06Z</time>
      </trkpt>
      <trkpt lat="61.510882834" lon="8.81365709938">
        <ele>1332.52</ele>
        <time>2012-08-09T17:40:08Z</time>
      </trkpt>
      <trkpt lat="61.5108290222" lon="8.81353002973">
        <ele>1331.08</ele>
        <time>2012-08-09T17:40:19Z</time>
      </trkpt>
      <trkpt lat="61.5107567701" lon="8.81361829117">
        <ele>1329.16</ele>
        <time>2012-08-09T17:40:30Z</time>
      </trkpt>
      <trkpt lat="61.5106392559" lon="8.81364813074">
        <ele>1327.24</ele>
        <time>2012-08-09T17:40:42Z</time>
      </trkpt>
      <trkpt lat="61.5106351487" lon="8.81368543021">
        <ele>1326.76</ele>
        <time>2012-08-09T17:40:45Z</time>
      </trkpt>
      <trkpt lat="61.5105816722" lon="8.81380529143">
        <ele>1324.83</ele>
        <time>2012-08-09T17:40:51Z</time>
      </trkpt>
      <trkpt lat="61.5105005354" lon="8.81377025507">
        <ele>1324.35</ele>
        <time>2012-08-09T17:41:00Z</time>
      </trkpt>
      <trkpt lat="61.5104809217" lon="8.81375416182">
        <ele>1323.39</ele>
        <time>2012-08-09T17:41:02Z</time>
      </trkpt>
      <trkpt lat="61.5104360785" lon="8.81373639219">
        <ele>1322.43</ele>
        <time>2012-08-09T17:41:06Z</time>
      </trkpt>
      <trkpt lat="61.5104178898" lon="8.81365441717">
        <ele>1322.91</ele>
        <time>2012-08-09T17:41:13Z</time>
      </trkpt>
      <trkpt lat="61.5103922412" lon="8.81368945353">
        <ele>1323.39</ele>
        <time>2012-08-09T17:41:25Z</time>
      </trkpt>
      <trkpt lat="61.510355277" lon="8.81363723427">
        <ele>1322.43</ele>
        <time>2012-08-09T17:41:32Z</time>
      </trkpt>
      <trkpt lat="61.5103169717" lon="8.81360320374">
        <ele>1323.39</ele>
        <time>2012-08-09T17:41:37Z</time>
      </trkpt>
      <trkpt lat="61.5103145409" lon="8.81358778104">
        <ele>1319.07</ele>
        <time>2012-08-09T17:41:38Z</time>
      </trkpt>
      <trkpt lat="61.5103137866" lon="8.81357998587">
        <ele>1324.83</ele>
        <time>2012-08-09T17:41:39Z</time>
      </trkpt>
      <trkpt lat="61.5103012137" lon="8.8135739509">
        <ele>1320.99</ele>
        <time>2012-08-09T17:41:41Z</time>
      </trkpt>
      <trkpt lat="61.5102966037" lon="8.81357696839">
        <ele>1324.35</ele>
        <time>2012-08-09T17:41:42Z</time>
      </trkpt>
      <trkpt lat="61.5102417022" lon="8.8136065565">
        <ele>1321.47</ele>
        <time>2012-08-09T17:41:48Z</time>
      </trkpt>
      <trkpt lat="61.5102039836" lon="8.81364427507">
        <ele>1320.99</ele>
        <time>2012-08-09T17:41:53Z</time>
      </trkpt>
      <trkpt lat="61.5101490822" lon="8.81370747462">
        <ele>1320.51</ele>
        <time>2012-08-09T17:42:00Z</time>
      </trkpt>
      <trkpt lat="61.5101205837" lon="8.81372415461">
        <ele>1320.03</ele>
        <time>2012-08-09T17:42:04Z</time>
      </trkpt>
      <trkpt lat="61.5101041552" lon="8.81371426396">
        <ele>1320.51</ele>
        <time>2012-08-09T17:42:06Z</time>
      </trkpt>
      <trkpt lat="61.5100066736" lon="8.81373731419">
        <ele>1316.66</ele>
        <time>2012-08-09T17:42:17Z</time>
      </trkpt>
      <trkpt lat="61.5099684522" lon="8.81375986151">
        <ele>1316.18</ele>
        <time>2012-08-09T17:42:23Z</time>
      </trkpt>
      <trkpt lat="61.5099335834" lon="8.81380696781">
        <ele>1315.7</ele>
        <time>2012-08-09T17:42:27Z</time>
      </trkpt>
      <trkpt lat="61.509829564" lon="8.81379523315">
        <ele>1313.3</ele>
        <time>2012-08-09T17:42:40Z</time>
      </trkpt>
      <trkpt lat="61.5098135546" lon="8.81377545185">
        <ele>1313.3</ele>
        <time>2012-08-09T17:42:43Z</time>
      </trkpt>
      <trkpt lat="61.509752702" lon="8.81380965002">
        <ele>1312.34</ele>
        <time>2012-08-09T17:42:48Z</time>
      </trkpt>
      <trkpt lat="61.5097044222" lon="8.81378835998">
        <ele>1312.34</ele>
        <time>2012-08-09T17:42:55Z</time>
      </trkpt>
      <trkpt lat="61.5096354391" lon="8.8138927985">
        <ele>1312.34</ele>
        <time>2012-08-09T17:43:06Z</time>
      </trkpt>
      <trkpt lat="61.5096218605" lon="8.8139011804">
        <ele>1312.34</ele>
        <time>2012-08-09T17:43:08Z</time>
      </trkpt>
      <trkpt lat="61.5095071122" lon="8.81393487565">
        <ele>1311.86</ele>
        <time>2012-08-09T17:43:20Z</time>
      </trkpt>
      <trkpt lat="61.5094009973" lon="8.81390830502">
        <ele>1308.97</ele>
        <time>2012-08-09T17:43:36Z</time>
      </trkpt>
      <trkpt lat="61.5093636978" lon="8.81396077573">
        <ele>1306.57</ele>
        <time>2012-08-09T17:43:52Z</time>
      </trkpt>
      <trkpt lat="61.5093160886" lon="8.81404451095">
        <ele>1303.69</ele>
        <time>2012-08-09T17:44:04Z</time>
      </trkpt>
      <trkpt lat="61.5092792083" lon="8.81405121647">
        <ele>1302.24</ele>
        <time>2012-08-09T17:44:10Z</time>
      </trkpt>
      <trkpt lat="61.509221876" lon="8.81406001747">
        <ele>1300.32</ele>
        <time>2012-08-09T17:44:21Z</time>
      </trkpt>
      <trkpt lat="61.5092032682" lon="8.81407795474">
        <ele>1298.88</ele>
        <time>2012-08-09T17:44:25Z</time>
      </trkpt>
      <trkpt lat="61.5091467742" lon="8.81409916095">
        <ele>1298.4</ele>
        <time>2012-08-09T17:44:32Z</time>
      </trkpt>
      <trkpt lat="61.5090495441" lon="8.81413243711">
        <ele>1298.4</ele>
        <time>2012-08-09T17:44:45Z</time>
      </trkpt>
      <trkpt lat="61.5090159327" lon="8.81413344294">
        <ele>1296.48</ele>
        <time>2012-08-09T17:44:49Z</time>
      </trkpt>
      <trkpt lat="61.508939825" lon="8.81421944126">
        <ele>1297.44</ele>
        <time>2012-08-09T17:44:58Z</time>
      </trkpt>
      <trkpt lat="61.5087975003" lon="8.81428264081">
        <ele>1297.92</ele>
        <time>2012-08-09T17:45:11Z</time>
      </trkpt>
      <trkpt lat="61.5087370668" lon="8.81427870132">
        <ele>1296.48</ele>
        <time>2012-08-09T17:45:19Z</time>
      </trkpt>
      <trkpt lat="61.508641094" lon="8.81437995471">
        <ele>1296.96</ele>
        <time>2012-08-09T17:45:30Z</time>
      </trkpt>
      <trkpt lat="61.50860589" lon="8.81439437158">
        <ele>1300.32</ele>
        <time>2012-08-09T17:45:34Z</time>
      </trkpt>
      <trkpt lat="61.5084999427" lon="8.81447508931">
        <ele>1298.88</ele>
        <time>2012-08-09T17:45:46Z</time>
      </trkpt>
      <trkpt lat="61.5084303729" lon="8.81455278955">
        <ele>1296.96</ele>
        <time>2012-08-09T17:45:54Z</time>
      </trkpt>
      <trkpt lat="61.50839651" lon="8.81458992139">
        <ele>1296.96</ele>
        <time>2012-08-09T17:46:04Z</time>
      </trkpt>
      <trkpt lat="61.5082982741" lon="8.81463493221">
        <ele>1294.55</ele>
        <time>2012-08-09T17:46:15Z</time>
      </trkpt>
      <trkpt lat="61.5082439594" lon="8.81462663412">
        <ele>1295.03</ele>
        <time>2012-08-09T17:46:19Z</time>
      </trkpt>
      <trkpt lat="61.5082277823" lon="8.81461984478">
        <ele>1293.59</ele>
        <time>2012-08-09T17:46:22Z</time>
      </trkpt>
      <trkpt lat="61.5081032272" lon="8.8145503588">
        <ele>1294.07</ele>
        <time>2012-08-09T17:46:34Z</time>
      </trkpt>
      <trkpt lat="61.508062575" lon="8.81455102935">
        <ele>1292.63</ele>
        <time>2012-08-09T17:46:39Z</time>
      </trkpt>
      <trkpt lat="61.5079992078" lon="8.81450953893">
        <ele>1294.55</ele>
        <time>2012-08-09T17:46:46Z</time>
      </trkpt>
      <trkpt lat="61.5079011396" lon="8.81444533356">
        <ele>1292.63</ele>
        <time>2012-08-09T17:46:56Z</time>
      </trkpt>
      <trkpt lat="61.5078381076" lon="8.81439403631">
        <ele>1290.71</ele>
        <time>2012-08-09T17:47:02Z</time>
      </trkpt>
      <trkpt lat="61.5078280494" lon="8.81438372657">
        <ele>1294.07</ele>
        <time>2012-08-09T17:47:03Z</time>
      </trkpt>
      <trkpt lat="61.5077848826" lon="8.81435279734">
        <ele>1289.75</ele>
        <time>2012-08-09T17:47:09Z</time>
      </trkpt>
      <trkpt lat="61.507749008" lon="8.81431608461">
        <ele>1291.19</ele>
        <time>2012-08-09T17:47:13Z</time>
      </trkpt>
      <trkpt lat="61.5077148937" lon="8.81428549066">
        <ele>1290.71</ele>
        <time>2012-08-09T17:47:17Z</time>
      </trkpt>
      <trkpt lat="61.5076138917" lon="8.81428632885">
        <ele>1288.3</ele>
        <time>2012-08-09T17:47:29Z</time>
      </trkpt>
      <trkpt lat="61.5074968804" lon="8.81426487118">
        <ele>1284.94</ele>
        <time>2012-08-09T17:47:42Z</time>
      </trkpt>
      <trkpt lat="61.5074423142" lon="8.81420250982">
        <ele>1284.46</ele>
        <time>2012-08-09T17:47:55Z</time>
      </trkpt>
      <trkpt lat="61.5074453317" lon="8.81419261917">
        <ele>1284.94</ele>
        <time>2012-08-09T17:48:12Z</time>
      </trkpt>
      <trkpt lat="61.5074631013" lon="8.81418775767">
        <ele>1285.42</ele>
        <time>2012-08-09T17:48:36Z</time>
      </trkpt>
      <trkpt lat="61.5074585751" lon="8.81419597194">
        <ele>1284.46</ele>
        <time>2012-08-09T17:48:58Z</time>
      </trkpt>
      <trkpt lat="61.5074383747" lon="8.81418976933">
        <ele>1284.94</ele>
        <time>2012-08-09T17:49:12Z</time>
      </trkpt>
      <trkpt lat="61.5074710641" lon="8.81423100829">
        <ele>1285.42</ele>
        <time>2012-08-09T17:49:21Z</time>
      </trkpt>
      <trkpt lat="61.5074501093" lon="8.81424131803">
        <ele>1283.98</ele>
        <time>2012-08-09T17:49:37Z</time>
      </trkpt>
      <trkpt lat="61.5074188448" lon="8.81416085176">
        <ele>1282.06</ele>
        <time>2012-08-09T17:49:51Z</time>
      </trkpt>
      <trkpt lat="61.5073608421" lon="8.81412715651">
        <ele>1280.13</ele>
        <time>2012-08-09T17:50:07Z</time>
      </trkpt>
      <trkpt lat="61.5072897635" lon="8.81405339576">
        <ele>1276.77</ele>
        <time>2012-08-09T17:50:17Z</time>
      </trkpt>
      <trkpt lat="61.5072494466" lon="8.81401265971">
        <ele>1276.29</ele>
        <time>2012-08-09T17:50:22Z</time>
      </trkpt>
      <trkpt lat="61.5072192717" lon="8.81385432556">
        <ele>1273.88</ele>
        <time>2012-08-09T17:50:38Z</time>
      </trkpt>
      <trkpt lat="61.50720804" lon="8.81385952234">
        <ele>1272.92</ele>
        <time>2012-08-09T17:50:41Z</time>
      </trkpt>
      <trkpt lat="61.5071740095" lon="8.81377662532">
        <ele>1271</ele>
        <time>2012-08-09T17:50:53Z</time>
      </trkpt>
      <trkpt lat="61.5071233828" lon="8.81374033168">
        <ele>1267.64</ele>
        <time>2012-08-09T17:51:07Z</time>
      </trkpt>
      <trkpt lat="61.5070600994" lon="8.81376908161">
        <ele>1264.27</ele>
        <time>2012-08-09T17:51:23Z</time>
      </trkpt>
      <trkpt lat="61.5069853328" lon="8.81379297003">
        <ele>1261.87</ele>
        <time>2012-08-09T17:51:35Z</time>
      </trkpt>
      <trkpt lat="61.5069406573" lon="8.81385197863">
        <ele>1259.46</ele>
        <time>2012-08-09T17:51:48Z</time>
      </trkpt>
      <trkpt lat="61.5068684891" lon="8.81389824674">
        <ele>1257.06</ele>
        <time>2012-08-09T17:51:58Z</time>
      </trkpt>
      <trkpt lat="61.5068025235" lon="8.81394501776">
        <ele>1255.14</ele>
        <time>2012-08-09T17:52:10Z</time>
      </trkpt>
      <trkpt lat="61.5067928005" lon="8.81394560449">
        <ele>1255.14</ele>
        <time>2012-08-09T17:52:12Z</time>
      </trkpt>
      <trkpt lat="61.5067259967" lon="8.81388198584">
        <ele>1253.22</ele>
        <time>2012-08-09T17:52:25Z</time>
      </trkpt>
      <trkpt lat="61.5067115799" lon="8.81388508715">
        <ele>1252.74</ele>
        <time>2012-08-09T17:52:29Z</time>
      </trkpt>
      <trkpt lat="61.5066448599" lon="8.81383504719">
        <ele>1250.33</ele>
        <time>2012-08-09T17:52:42Z</time>
      </trkpt>
      <trkpt lat="61.5065542515" lon="8.81384292617">
        <ele>1246.49</ele>
        <time>2012-08-09T17:52:55Z</time>
      </trkpt>
      <trkpt lat="61.5064566024" lon="8.81378374994">
        <ele>1245.04</ele>
        <time>2012-08-09T17:53:06Z</time>
      </trkpt>
      <trkpt lat="61.506400276" lon="8.8137474563">
        <ele>1243.12</ele>
        <time>2012-08-09T17:53:17Z</time>
      </trkpt>
      <trkpt lat="61.5063141938" lon="8.81376631558">
        <ele>1243.6</ele>
        <time>2012-08-09T17:53:25Z</time>
      </trkpt>
      <trkpt lat="61.5061943326" lon="8.81376279518">
        <ele>1241.68</ele>
        <time>2012-08-09T17:53:37Z</time>
      </trkpt>
      <trkpt lat="61.5061738808" lon="8.81375910714">
        <ele>1241.68</ele>
        <time>2012-08-09T17:53:41Z</time>
      </trkpt>
      <trkpt lat="61.5060906485" lon="8.81378685124">
        <ele>1241.2</ele>
        <time>2012-08-09T17:53:49Z</time>
      </trkpt>
      <trkpt lat="61.5059994534" lon="8.81381392479">
        <ele>1239.76</ele>
        <time>2012-08-09T17:54:01Z</time>
      </trkpt>
      <trkpt lat="61.5059758164" lon="8.81382213905">
        <ele>1236.87</ele>
        <time>2012-08-09T17:54:03Z</time>
      </trkpt>
      <trkpt lat="61.5059691947" lon="8.81382239051">
        <ele>1244.08</ele>
        <time>2012-08-09T17:54:04Z</time>
      </trkpt>
      <trkpt lat="61.5059425402" lon="8.81382482126">
        <ele>1240.72</ele>
        <time>2012-08-09T17:54:07Z</time>
      </trkpt>
      <trkpt lat="61.5058365092" lon="8.81388617679">
        <ele>1238.8</ele>
        <time>2012-08-09T17:54:20Z</time>
      </trkpt>
      <trkpt lat="61.505827792" lon="8.81389229558">
        <ele>1239.28</ele>
        <time>2012-08-09T17:54:21Z</time>
      </trkpt>
      <trkpt lat="61.5057495888" lon="8.81387854926">
        <ele>1238.32</ele>
        <time>2012-08-09T17:54:26Z</time>
      </trkpt>
      <trkpt lat="61.505729137" lon="8.8138844166">
        <ele>1237.83</ele>
        <time>2012-08-09T17:54:28Z</time>
      </trkpt>
      <trkpt lat="61.5056724753" lon="8.81389673799">
        <ele>1238.32</ele>
        <time>2012-08-09T17:54:33Z</time>
      </trkpt>
      <trkpt lat="61.5055367723" lon="8.81391710602">
        <ele>1236.87</ele>
        <time>2012-08-09T17:54:45Z</time>
      </trkpt>
      <trkpt lat="61.5055304021" lon="8.81391408853">
        <ele>1237.35</ele>
        <time>2012-08-09T17:54:46Z</time>
      </trkpt>
      <trkpt lat="61.505471142" lon="8.8138720952">
        <ele>1237.83</ele>
        <time>2012-08-09T17:54:52Z</time>
      </trkpt>
      <trkpt lat="61.5053459164" lon="8.81381576881">
        <ele>1235.91</ele>
        <time>2012-08-09T17:55:06Z</time>
      </trkpt>
      <trkpt lat="61.5052357782" lon="8.81379866973">
        <ele>1233.99</ele>
        <time>2012-08-09T17:55:19Z</time>
      </trkpt>
      <trkpt lat="61.5052099619" lon="8.8137972448">
        <ele>1234.47</ele>
        <time>2012-08-09T17:55:23Z</time>
      </trkpt>
      <trkpt lat="61.5051051043" lon="8.81382465363">
        <ele>1232.55</ele>
        <time>2012-08-09T17:55:35Z</time>
      </trkpt>
      <trkpt lat="61.5049856622" lon="8.81383219734">
        <ele>1231.59</ele>
        <time>2012-08-09T17:55:49Z</time>
      </trkpt>
      <trkpt lat="61.5048392303" lon="8.81381677464">
        <ele>1229.66</ele>
        <time>2012-08-09T17:56:02Z</time>
      </trkpt>
      <trkpt lat="61.5048178565" lon="8.81379657425">
        <ele>1229.18</ele>
        <time>2012-08-09T17:56:04Z</time>
      </trkpt>
      <trkpt lat="61.504740743" lon="8.81379037164">
        <ele>1228.7</ele>
        <time>2012-08-09T17:56:14Z</time>
      </trkpt>
      <trkpt lat="61.504680058" lon="8.8138232287">
        <ele>1227.26</ele>
        <time>2012-08-09T17:56:22Z</time>
      </trkpt>
      <trkpt lat="61.5045211371" lon="8.81387678906">
        <ele>1224.38</ele>
        <time>2012-08-09T17:56:40Z</time>
      </trkpt>
      <trkpt lat="61.5044141002" lon="8.81387469359">
        <ele>1221.49</ele>
        <time>2012-08-09T17:56:53Z</time>
      </trkpt>
      <trkpt lat="61.5044028684" lon="8.81387469359">
        <ele>1221.97</ele>
        <time>2012-08-09T17:56:54Z</time>
      </trkpt>
      <trkpt lat="61.5043539181" lon="8.81390771829">
        <ele>1221.97</ele>
        <time>2012-08-09T17:57:00Z</time>
      </trkpt>
      <trkpt lat="61.5042333864" lon="8.81388768554">
        <ele>1221.01</ele>
        <time>2012-08-09T17:57:11Z</time>
      </trkpt>
      <trkpt lat="61.5042022895" lon="8.81387645379">
        <ele>1220.53</ele>
        <time>2012-08-09T17:57:14Z</time>
      </trkpt>
      <trkpt lat="61.5041539259" lon="8.81386589259">
        <ele>1220.05</ele>
        <time>2012-08-09T17:57:18Z</time>
      </trkpt>
      <trkpt lat="61.5040064882" lon="8.81379883736">
        <ele>1219.09</ele>
        <time>2012-08-09T17:57:31Z</time>
      </trkpt>
      <trkpt lat="61.5039453004" lon="8.81371627562">
        <ele>1218.61</ele>
        <time>2012-08-09T17:57:41Z</time>
      </trkpt>
      <trkpt lat="61.5038554464" lon="8.81364787929">
        <ele>1218.61</ele>
        <time>2012-08-09T17:57:52Z</time>
      </trkpt>
      <trkpt lat="61.5037491638" lon="8.81358618848">
        <ele>1220.05</ele>
        <time>2012-08-09T17:58:03Z</time>
      </trkpt>
      <trkpt lat="61.503681941" lon="8.81348309107">
        <ele>1219.09</ele>
        <time>2012-08-09T17:58:14Z</time>
      </trkpt>
      <trkpt lat="61.5036678594" lon="8.8134633936">
        <ele>1219.57</ele>
        <time>2012-08-09T17:58:33Z</time>
      </trkpt>
      <trkpt lat="61.503666183" lon="8.81342785433">
        <ele>1220.53</ele>
        <time>2012-08-09T17:58:38Z</time>
      </trkpt>
      <trkpt lat="61.5036206692" lon="8.81340497173">
        <ele>1220.53</ele>
        <time>2012-08-09T17:58:48Z</time>
      </trkpt>
      <trkpt lat="61.503617987" lon="8.81340455264">
        <ele>1219.57</ele>
        <time>2012-08-09T17:58:58Z</time>
      </trkpt>
      <trkpt lat="61.503611533" lon="8.81332542747">
        <ele>1221.97</ele>
        <time>2012-08-09T17:59:02Z</time>
      </trkpt>
      <trkpt lat="61.5035560448" lon="8.81331687793">
        <ele>1220.05</ele>
        <time>2012-08-09T17:59:11Z</time>
      </trkpt>
      <trkpt lat="61.503522601" lon="8.81334252656">
        <ele>1220.53</ele>
        <time>2012-08-09T17:59:15Z</time>
      </trkpt>
      <trkpt lat="61.5034982096" lon="8.81333573721">
        <ele>1220.53</ele>
        <time>2012-08-09T17:59:17Z</time>
      </trkpt>
      <trkpt lat="61.5034360997" lon="8.81326264702">
        <ele>1221.97</ele>
        <time>2012-08-09T17:59:24Z</time>
      </trkpt>
      <trkpt lat="61.5033545438" lon="8.81322283298">
        <ele>1221.97</ele>
        <time>2012-08-09T17:59:33Z</time>
      </trkpt>
      <trkpt lat="61.5033108741" lon="8.8132810872">
        <ele>1221.01</ele>
        <time>2012-08-09T17:59:37Z</time>
      </trkpt>
      <trkpt lat="61.5032329224" lon="8.81335023791">
        <ele>1221.01</ele>
        <time>2012-08-09T17:59:46Z</time>
      </trkpt>
      <trkpt lat="61.5031610895" lon="8.81353002973">
        <ele>1219.57</ele>
        <time>2012-08-09T18:00:02Z</time>
      </trkpt>
      <trkpt lat="61.503129825" lon="8.81356079131">
        <ele>1219.57</ele>
        <time>2012-08-09T18:00:13Z</time>
      </trkpt>
      <trkpt lat="61.503106188" lon="8.81357487291">
        <ele>1219.57</ele>
        <time>2012-08-09T18:00:15Z</time>
      </trkpt>
      <trkpt lat="61.5030072816" lon="8.81351561286">
        <ele>1217.17</ele>
        <time>2012-08-09T18:00:28Z</time>
      </trkpt>
      <trkpt lat="61.5028993227" lon="8.81338661537">
        <ele>1215.24</ele>
        <time>2012-08-09T18:00:42Z</time>
      </trkpt>
      <trkpt lat="61.5028261486" lon="8.81344377995">
        <ele>1212.36</ele>
        <time>2012-08-09T18:00:55Z</time>
      </trkpt>
      <trkpt lat="61.5028129891" lon="8.8134510722">
        <ele>1211.4</ele>
        <time>2012-08-09T18:00:57Z</time>
      </trkpt>
      <trkpt lat="61.5027558245" lon="8.81354377605">
        <ele>1210.44</ele>
        <time>2012-08-09T18:01:10Z</time>
      </trkpt>
      <trkpt lat="61.5027096402" lon="8.81360077299">
        <ele>1209</ele>
        <time>2012-08-09T18:01:21Z</time>
      </trkpt>
      <trkpt lat="61.5026705805" lon="8.81359884515">
        <ele>1207.55</ele>
        <time>2012-08-09T18:01:25Z</time>
      </trkpt>
      <trkpt lat="61.5026114881" lon="8.81377704442">
        <ele>1205.15</ele>
        <time>2012-08-09T18:01:38Z</time>
      </trkpt>
      <trkpt lat="61.5025681537" lon="8.8137042895">
        <ele>1204.67</ele>
        <time>2012-08-09T18:01:45Z</time>
      </trkpt>
      <trkpt lat="61.5024607815" lon="8.81361728534">
        <ele>1200.82</ele>
        <time>2012-08-09T18:02:01Z</time>
      </trkpt>
      <trkpt lat="61.5024280921" lon="8.81363396533">
        <ele>1199.38</ele>
        <time>2012-08-09T18:02:07Z</time>
      </trkpt>
      <trkpt lat="61.5023981687" lon="8.81364410743">
        <ele>1198.9</ele>
        <time>2012-08-09T18:02:10Z</time>
      </trkpt>
      <trkpt lat="61.5023479611" lon="8.8136153575">
        <ele>1197.94</ele>
        <time>2012-08-09T18:02:23Z</time>
      </trkpt>
      <trkpt lat="61.5022784751" lon="8.81370135583">
        <ele>1195.54</ele>
        <time>2012-08-09T18:02:36Z</time>
      </trkpt>
      <trkpt lat="61.5022734459" lon="8.81380562671">
        <ele>1194.58</ele>
        <time>2012-08-09T18:02:45Z</time>
      </trkpt>
      <trkpt lat="61.5021384135" lon="8.81392339244">
        <ele>1192.65</ele>
        <time>2012-08-09T18:02:59Z</time>
      </trkpt>
      <trkpt lat="61.5020861104" lon="8.81392288953">
        <ele>1190.73</ele>
        <time>2012-08-09T18:03:12Z</time>
      </trkpt>
      <trkpt lat="61.5020791534" lon="8.81399874575">
        <ele>1190.25</ele>
        <time>2012-08-09T18:03:31Z</time>
      </trkpt>
      <trkpt lat="61.5020768903" lon="8.81403663196">
        <ele>1189.77</ele>
        <time>2012-08-09T18:03:33Z</time>
      </trkpt>
      <trkpt lat="61.5020451229" lon="8.81406395696">
        <ele>1189.77</ele>
        <time>2012-08-09T18:03:36Z</time>
      </trkpt>
      <trkpt lat="61.5019473061" lon="8.81424643099">
        <ele>1188.81</ele>
        <time>2012-08-09T18:03:48Z</time>
      </trkpt>
      <trkpt lat="61.5018441249" lon="8.81434969604">
        <ele>1186.4</ele>
        <time>2012-08-09T18:04:02Z</time>
      </trkpt>
      <trkpt lat="61.5018229187" lon="8.81435053423">
        <ele>1185.44</ele>
        <time>2012-08-09T18:04:05Z</time>
      </trkpt>
      <trkpt lat="61.5017745551" lon="8.81435858086">
        <ele>1184.96</ele>
        <time>2012-08-09T18:04:09Z</time>
      </trkpt>
      <trkpt lat="61.5016205795" lon="8.81445086561">
        <ele>1184</ele>
        <time>2012-08-09T18:04:22Z</time>
      </trkpt>
      <trkpt lat="61.5016045701" lon="8.81444969214">
        <ele>1183.52</ele>
        <time>2012-08-09T18:04:24Z</time>
      </trkpt>
      <trkpt lat="61.5015488304" lon="8.81443569437">
        <ele>1182.56</ele>
        <time>2012-08-09T18:04:32Z</time>
      </trkpt>
      <trkpt lat="61.5013964474" lon="8.81446737796">
        <ele>1178.71</ele>
        <time>2012-08-09T18:04:46Z</time>
      </trkpt>
      <trkpt lat="61.501387395" lon="8.8144653663">
        <ele>1178.71</ele>
        <time>2012-08-09T18:04:47Z</time>
      </trkpt>
      <trkpt lat="61.5012974571" lon="8.81459419616">
        <ele>1174.87</ele>
        <time>2012-08-09T18:05:00Z</time>
      </trkpt>
      <trkpt lat="61.5011042543" lon="8.81470936351">
        <ele>1172.47</ele>
        <time>2012-08-09T18:05:14Z</time>
      </trkpt>
      <trkpt lat="61.5010891668" lon="8.81459134631">
        <ele>1172.47</ele>
        <time>2012-08-09T18:05:21Z</time>
      </trkpt>
      <trkpt lat="61.5009681322" lon="8.81459335797">
        <ele>1168.62</ele>
        <time>2012-08-09T18:05:33Z</time>
      </trkpt>
      <trkpt lat="61.5008864086" lon="8.81455773488">
        <ele>1167.66</ele>
        <time>2012-08-09T18:05:48Z</time>
      </trkpt>
      <trkpt lat="61.5007493645" lon="8.81462889723">
        <ele>1165.26</ele>
        <time>2012-08-09T18:06:02Z</time>
      </trkpt>
      <trkpt lat="61.500642579" lon="8.81469511427">
        <ele>1162.85</ele>
        <time>2012-08-09T18:06:16Z</time>
      </trkpt>
      <trkpt lat="61.5005927905" lon="8.81474138238">
        <ele>1161.41</ele>
        <time>2012-08-09T18:06:23Z</time>
      </trkpt>
      <trkpt lat="61.5005555749" lon="8.8146873191">
        <ele>1160.45</ele>
        <time>2012-08-09T18:06:27Z</time>
      </trkpt>
      <trkpt lat="61.5004410781" lon="8.81470659748">
        <ele>1158.05</ele>
        <time>2012-08-09T18:06:39Z</time>
      </trkpt>
      <trkpt lat="61.5004195366" lon="8.81471623667">
        <ele>1157.56</ele>
        <time>2012-08-09T18:06:42Z</time>
      </trkpt>
      <trkpt lat="61.5002793912" lon="8.81451549008">
        <ele>1154.68</ele>
        <time>2012-08-09T18:06:58Z</time>
      </trkpt>
      <trkpt lat="61.5002100728" lon="8.81446670741">
        <ele>1152.28</ele>
        <time>2012-08-09T18:07:10Z</time>
      </trkpt>
      <trkpt lat="61.5001042094" lon="8.81441448815">
        <ele>1148.91</ele>
        <time>2012-08-09T18:07:24Z</time>
      </trkpt>
      <trkpt lat="61.5000938158" lon="8.81439596415">
        <ele>1148.43</ele>
        <time>2012-08-09T18:07:26Z</time>
      </trkpt>
      <trkpt lat="61.5000416804" lon="8.81435950287">
        <ele>1147.95</ele>
        <time>2012-08-09T18:07:33Z</time>
      </trkpt>
      <trkpt lat="61.500001112" lon="8.81417786703">
        <ele>1146.99</ele>
        <time>2012-08-09T18:07:44Z</time>
      </trkpt>
      <trkpt lat="61.5000101645" lon="8.81417971104">
        <ele>1146.51</ele>
        <time>2012-08-09T18:08:17Z</time>
      </trkpt>
      <trkpt lat="61.5000049677" lon="8.81416705437">
        <ele>1146.99</ele>
        <time>2012-08-09T18:08:37Z</time>
      </trkpt>
      <trkpt lat="61.5000104997" lon="8.8141764421">
        <ele>1146.03</ele>
        <time>2012-08-09T18:08:39Z</time>
      </trkpt>
      <trkpt lat="61.5000538342" lon="8.81418490782">
        <ele>1148.43</ele>
        <time>2012-08-09T18:08:49Z</time>
      </trkpt>
      <trkpt lat="61.5000534151" lon="8.81416345015">
        <ele>1148.43</ele>
        <time>2012-08-09T18:09:01Z</time>
      </trkpt>
      <trkpt lat="61.5000531636" lon="8.81416219287">
        <ele>1147.95</ele>
        <time>2012-08-09T18:09:23Z</time>
      </trkpt>
      <trkpt lat="61.5000877809" lon="8.81420292892">
        <ele>1147.47</ele>
        <time>2012-08-09T18:09:53Z</time>
      </trkpt>
      <trkpt lat="61.5000628866" lon="8.81430409849">
        <ele>1147.47</ele>
        <time>2012-08-09T18:10:04Z</time>
      </trkpt>
      <trkpt lat="61.5000408422" lon="8.81430770271">
        <ele>1147.47</ele>
        <time>2012-08-09T18:10:07Z</time>
      </trkpt>
      <trkpt lat="61.5000015311" lon="8.81434986368">
        <ele>1146.03</ele>
        <time>2012-08-09T18:10:13Z</time>
      </trkpt>
      <trkpt lat="61.4999799896" lon="8.81439034827">
        <ele>1146.03</ele>
        <time>2012-08-09T18:10:27Z</time>
      </trkpt>
      <trkpt lat="61.499955263" lon="8.81439764053">
        <ele>1145.55</ele>
        <time>2012-08-09T18:10:30Z</time>
      </trkpt>
      <trkpt lat="61.4998590387" lon="8.81448674016">
        <ele>1143.63</ele>
        <time>2012-08-09T18:10:42Z</time>
      </trkpt>
      <trkpt lat="61.4997938275" lon="8.81445690058">
        <ele>1142.18</ele>
        <time>2012-08-09T18:10:54Z</time>
      </trkpt>
      <trkpt lat="61.4997839369" lon="8.81445773877">
        <ele>1141.7</ele>
        <time>2012-08-09T18:10:56Z</time>
      </trkpt>
      <trkpt lat="61.4996135328" lon="8.81442454644">
        <ele>1139.78</ele>
        <time>2012-08-09T18:11:11Z</time>
      </trkpt>
      <trkpt lat="61.4995945897" lon="8.81443183869">
        <ele>1139.3</ele>
        <time>2012-08-09T18:11:13Z</time>
      </trkpt>
      <trkpt lat="61.4995494951" lon="8.81442362443">
        <ele>1138.34</ele>
        <time>2012-08-09T18:11:17Z</time>
      </trkpt>
      <trkpt lat="61.4995060768" lon="8.81441314705">
        <ele>1137.38</ele>
        <time>2012-08-09T18:11:23Z</time>
      </trkpt>
      <trkpt lat="61.4994756505" lon="8.8143843133">
        <ele>1136.9</ele>
        <time>2012-08-09T18:11:27Z</time>
      </trkpt>
      <trkpt lat="61.4993509278" lon="8.81438096054">
        <ele>1135.45</ele>
        <time>2012-08-09T18:11:40Z</time>
      </trkpt>
      <trkpt lat="61.49927021" lon="8.81430334412">
        <ele>1133.53</ele>
        <time>2012-08-09T18:11:54Z</time>
      </trkpt>
      <trkpt lat="61.4992317371" lon="8.81434919313">
        <ele>1134.01</ele>
        <time>2012-08-09T18:12:14Z</time>
      </trkpt>
      <trkpt lat="61.4992284682" lon="8.81436042488">
        <ele>1133.53</ele>
        <time>2012-08-09T18:12:15Z</time>
      </trkpt>
      <trkpt lat="61.4991576411" lon="8.81433201022">
        <ele>1132.09</ele>
        <time>2012-08-09T18:12:25Z</time>
      </trkpt>
      <trkpt lat="61.4990767557" lon="8.8143341057">
        <ele>1129.21</ele>
        <time>2012-08-09T18:12:35Z</time>
      </trkpt>
      <trkpt lat="61.4990018215" lon="8.81422455423">
        <ele>1126.32</ele>
        <time>2012-08-09T18:12:49Z</time>
      </trkpt>
      <trkpt lat="61.4989967085" lon="8.81423662417">
        <ele>1126.32</ele>
        <time>2012-08-09T18:12:53Z</time>
      </trkpt>
      <trkpt lat="61.498973323" lon="8.8141367957">
        <ele>1124.88</ele>
        <time>2012-08-09T18:13:07Z</time>
      </trkpt>
      <trkpt lat="61.4989624266" lon="8.81410586648">
        <ele>1124.4</ele>
        <time>2012-08-09T18:13:11Z</time>
      </trkpt>
      <trkpt lat="61.4989321679" lon="8.81407627836">
        <ele>1122.48</ele>
        <time>2012-08-09T18:13:25Z</time>
      </trkpt>
      <trkpt lat="61.4988541324" lon="8.8139896933">
        <ele>1120.07</ele>
        <time>2012-08-09T18:13:38Z</time>
      </trkpt>
      <trkpt lat="61.4988068584" lon="8.81401819177">
        <ele>1118.63</ele>
        <time>2012-08-09T18:13:46Z</time>
      </trkpt>
      <trkpt lat="61.4987435751" lon="8.81399648264">
        <ele>1117.19</ele>
        <time>2012-08-09T18:13:54Z</time>
      </trkpt>
      <trkpt lat="61.4986538049" lon="8.81391048431">
        <ele>1114.79</ele>
        <time>2012-08-09T18:14:07Z</time>
      </trkpt>
      <trkpt lat="61.4985642862" lon="8.8139113225">
        <ele>1111.9</ele>
        <time>2012-08-09T18:14:22Z</time>
      </trkpt>
      <trkpt lat="61.4985229634" lon="8.81390126422">
        <ele>1110.94</ele>
        <time>2012-08-09T18:14:30Z</time>
      </trkpt>
      <trkpt lat="61.4984999131" lon="8.81390193477">
        <ele>1109.5</ele>
        <time>2012-08-09T18:14:34Z</time>
      </trkpt>
      <trkpt lat="61.4984431677" lon="8.81389724091">
        <ele>1109.02</ele>
        <time>2012-08-09T18:14:43Z</time>
      </trkpt>
      <trkpt lat="61.4984208718" lon="8.81389388815">
        <ele>1108.54</ele>
        <time>2012-08-09T18:14:45Z</time>
      </trkpt>
      <trkpt lat="61.4983839914" lon="8.81394267082">
        <ele>1107.1</ele>
        <time>2012-08-09T18:14:53Z</time>
      </trkpt>
      <trkpt lat="61.4983396512" lon="8.81392247044">
        <ele>1106.13</ele>
        <time>2012-08-09T18:14:59Z</time>
      </trkpt>
      <trkpt lat="61.4982598554" lon="8.81401249208">
        <ele>1105.17</ele>
        <time>2012-08-09T18:15:10Z</time>
      </trkpt>
      <trkpt lat="61.4982045349" lon="8.81399782375">
        <ele>1103.73</ele>
        <time>2012-08-09T18:15:16Z</time>
      </trkpt>
      <trkpt lat="61.4981833287" lon="8.81397611462">
        <ele>1103.25</ele>
        <time>2012-08-09T18:15:20Z</time>
      </trkpt>
      <trkpt lat="61.4980782196" lon="8.81395465694">
        <ele>1100.85</ele>
        <time>2012-08-09T18:15:34Z</time>
      </trkpt>
      <trkpt lat="61.4979874436" lon="8.81396412849">
        <ele>1098.44</ele>
        <time>2012-08-09T18:15:47Z</time>
      </trkpt>
      <trkpt lat="61.4979505632" lon="8.81396479905">
        <ele>1096.52</ele>
        <time>2012-08-09T18:15:53Z</time>
      </trkpt>
      <trkpt lat="61.4978213981" lon="8.81400469691">
        <ele>1094.6</ele>
        <time>2012-08-09T18:16:06Z</time>
      </trkpt>
      <trkpt lat="61.4977063145" lon="8.81401651539">
        <ele>1091.71</ele>
        <time>2012-08-09T18:16:19Z</time>
      </trkpt>
      <trkpt lat="61.4976541791" lon="8.81402791478">
        <ele>1087.87</ele>
        <time>2012-08-09T18:16:27Z</time>
      </trkpt>
      <trkpt lat="61.4976630639" lon="8.81400385872">
        <ele>1095.08</ele>
        <time>2012-08-09T18:16:29Z</time>
      </trkpt>
      <trkpt lat="61.4976631477" lon="8.81400528364">
        <ele>1092.2</ele>
        <time>2012-08-09T18:16:30Z</time>
      </trkpt>
      <trkpt lat="61.4976102579" lon="8.81405062973">
        <ele>1090.27</ele>
        <time>2012-08-09T18:16:44Z</time>
      </trkpt>
      <trkpt lat="61.4975716174" lon="8.81407175213">
        <ele>1090.27</ele>
        <time>2012-08-09T18:17:01Z</time>
      </trkpt>
      <trkpt lat="61.4974599704" lon="8.81413746625">
        <ele>1087.87</ele>
        <time>2012-08-09T18:17:15Z</time>
      </trkpt>
      <trkpt lat="61.4974498283" lon="8.81413897499">
        <ele>1087.39</ele>
        <time>2012-08-09T18:17:17Z</time>
      </trkpt>
      <trkpt lat="61.4973722957" lon="8.81412405521">
        <ele>1085.95</ele>
        <time>2012-08-09T18:17:26Z</time>
      </trkpt>
      <trkpt lat="61.4972326532" lon="8.8142319303">
        <ele>1084.5</ele>
        <time>2012-08-09T18:17:39Z</time>
      </trkpt>
      <trkpt lat="61.4971366804" lon="8.81417308934">
        <ele>1081.14</ele>
        <time>2012-08-09T18:17:51Z</time>
      </trkpt>
      <trkpt lat="61.4971003868" lon="8.8142046053">
        <ele>1080.18</ele>
        <time>2012-08-09T18:17:57Z</time>
      </trkpt>
      <trkpt lat="61.4969744906" lon="8.81417023949">
        <ele>1077.29</ele>
        <time>2012-08-09T18:18:11Z</time>
      </trkpt>
      <trkpt lat="61.4968792722" lon="8.81411022507">
        <ele>1074.41</ele>
        <time>2012-08-09T18:18:25Z</time>
      </trkpt>
      <trkpt lat="61.4967646915" lon="8.8141346164">
        <ele>1072.01</ele>
        <time>2012-08-09T18:18:41Z</time>
      </trkpt>
      <trkpt lat="61.4967504423" lon="8.8140844088">
        <ele>1071.05</ele>
        <time>2012-08-09T18:18:55Z</time>
      </trkpt>
      <trkpt lat="61.4967431501" lon="8.81405943073">
        <ele>1071.53</ele>
        <time>2012-08-09T18:19:25Z</time>
      </trkpt>
      <trkpt lat="61.4967125561" lon="8.8140742667">
        <ele>1071.05</ele>
        <time>2012-08-09T18:19:49Z</time>
      </trkpt>
      <trkpt lat="61.4966830518" lon="8.81411341019">
        <ele>1069.6</ele>
        <time>2012-08-09T18:19:53Z</time>
      </trkpt>
      <trkpt lat="61.4966589957" lon="8.81412631832">
        <ele>1070.08</ele>
        <time>2012-08-09T18:19:56Z</time>
      </trkpt>
      <trkpt lat="61.4965957124" lon="8.8141799625">
        <ele>1069.6</ele>
        <time>2012-08-09T18:20:07Z</time>
      </trkpt>
      <trkpt lat="61.4965670463" lon="8.814184824">
        <ele>1064.8</ele>
        <time>2012-08-09T18:20:11Z</time>
      </trkpt>
      <trkpt lat="61.4965684712" lon="8.8141852431">
        <ele>1070.08</ele>
        <time>2012-08-09T18:20:12Z</time>
      </trkpt>
      <trkpt lat="61.4965743385" lon="8.81416688673">
        <ele>1068.64</ele>
        <time>2012-08-09T18:20:40Z</time>
      </trkpt>
      <trkpt lat="61.4964849036" lon="8.8141588401">
        <ele>1065.76</ele>
        <time>2012-08-09T18:20:56Z</time>
      </trkpt>
      <trkpt lat="61.4963899367" lon="8.81416621618">
        <ele>1064.32</ele>
        <time>2012-08-09T18:21:12Z</time>
      </trkpt>
      <trkpt lat="61.4963238034" lon="8.81414836273">
        <ele>1061.43</ele>
        <time>2012-08-09T18:21:28Z</time>
      </trkpt>
      <trkpt lat="61.4962498751" lon="8.814085247">
        <ele>1058.07</ele>
        <time>2012-08-09T18:21:39Z</time>
      </trkpt>
      <trkpt lat="61.4961940516" lon="8.81400746293">
        <ele>1055.67</ele>
        <time>2012-08-09T18:21:53Z</time>
      </trkpt>
      <trkpt lat="61.4961208776" lon="8.81395306438">
        <ele>1052.78</ele>
        <time>2012-08-09T18:22:04Z</time>
      </trkpt>
      <trkpt lat="61.4960624557" lon="8.81388785318">
        <ele>1050.38</ele>
        <time>2012-08-09T18:22:21Z</time>
      </trkpt>
      <trkpt lat="61.4959865157" lon="8.81382348016">
        <ele>1047.49</ele>
        <time>2012-08-09T18:22:32Z</time>
      </trkpt>
      <trkpt lat="61.4959563408" lon="8.81381476298">
        <ele>1047.01</ele>
        <time>2012-08-09T18:22:35Z</time>
      </trkpt>
      <trkpt lat="61.4959306922" lon="8.81376966834">
        <ele>1045.57</ele>
        <time>2012-08-09T18:22:38Z</time>
      </trkpt>
      <trkpt lat="61.4958801493" lon="8.81372918375">
        <ele>1044.13</ele>
        <time>2012-08-09T18:22:52Z</time>
      </trkpt>
      <trkpt lat="61.4957660716" lon="8.8136985898">
        <ele>1041.73</ele>
        <time>2012-08-09T18:23:05Z</time>
      </trkpt>
      <trkpt lat="61.4957164507" lon="8.81363463588">
        <ele>1038.36</ele>
        <time>2012-08-09T18:23:17Z</time>
      </trkpt>
      <trkpt lat="61.4956687577" lon="8.8135946542">
        <ele>1037.4</ele>
        <time>2012-08-09T18:23:23Z</time>
      </trkpt>
      <trkpt lat="61.4955779817" lon="8.81351728924">
        <ele>1034.04</ele>
        <time>2012-08-09T18:23:38Z</time>
      </trkpt>
      <trkpt lat="61.4955070708" lon="8.81335736252">
        <ele>1030.67</ele>
        <time>2012-08-09T18:23:50Z</time>
      </trkpt>
      <trkpt lat="61.4954617247" lon="8.81336566061">
        <ele>1029.23</ele>
        <time>2012-08-09T18:23:57Z</time>
      </trkpt>
      <trkpt lat="61.4953340683" lon="8.81334923208">
        <ele>1026.83</ele>
        <time>2012-08-09T18:24:13Z</time>
      </trkpt>
      <trkpt lat="61.4952959307" lon="8.81330899894">
        <ele>1024.42</ele>
        <time>2012-08-09T18:24:22Z</time>
      </trkpt>
      <trkpt lat="61.4952411968" lon="8.81323331036">
        <ele>1022.02</ele>
        <time>2012-08-09T18:24:30Z</time>
      </trkpt>
      <trkpt lat="61.4951983653" lon="8.81321612746">
        <ele>1021.06</ele>
        <time>2012-08-09T18:24:34Z</time>
      </trkpt>
      <trkpt lat="61.4951472357" lon="8.8131586276">
        <ele>1018.65</ele>
        <time>2012-08-09T18:24:46Z</time>
      </trkpt>
      <trkpt lat="61.4951462299" lon="8.8131308835">
        <ele>1017.21</ele>
        <time>2012-08-09T18:24:48Z</time>
      </trkpt>
      <trkpt lat="61.4950933401" lon="8.81307983771">
        <ele>1015.29</ele>
        <time>2012-08-09T18:25:00Z</time>
      </trkpt>
      <trkpt lat="61.4949972834" lon="8.81303105503">
        <ele>1011.93</ele>
        <time>2012-08-09T18:25:12Z</time>
      </trkpt>
      <trkpt lat="61.4949894883" lon="8.81302552298">
        <ele>1011.44</ele>
        <time>2012-08-09T18:25:13Z</time>
      </trkpt>
      <trkpt lat="61.494890498" lon="8.81286551245">
        <ele>1008.56</ele>
        <time>2012-08-09T18:25:28Z</time>
      </trkpt>
      <trkpt lat="61.4948159829" lon="8.81274070591">
        <ele>1006.16</ele>
        <time>2012-08-09T18:25:43Z</time>
      </trkpt>
      <trkpt lat="61.4947638474" lon="8.81263324991">
        <ele>1004.23</ele>
        <time>2012-08-09T18:25:55Z</time>
      </trkpt>
      <trkpt lat="61.4947335888" lon="8.8125922624">
        <ele>1003.75</ele>
        <time>2012-08-09T18:25:58Z</time>
      </trkpt>
      <trkpt lat="61.4946895838" lon="8.81244943477">
        <ele>1000.39</ele>
        <time>2012-08-09T18:26:10Z</time>
      </trkpt>
      <trkpt lat="61.4946680423" lon="8.81231255829">
        <ele>999.91</ele>
        <time>2012-08-09T18:26:18Z</time>
      </trkpt>
      <trkpt lat="61.494600568" lon="8.81226612255">
        <ele>998.47</ele>
        <time>2012-08-09T18:26:27Z</time>
      </trkpt>
      <trkpt lat="61.49449219" lon="8.81262294017">
        <ele>997.02</ele>
        <time>2012-08-09T18:26:43Z</time>
      </trkpt>
      <trkpt lat="61.4944786951" lon="8.81268111058">
        <ele>998.95</ele>
        <time>2012-08-09T18:26:57Z</time>
      </trkpt>
      <trkpt lat="61.4944641106" lon="8.81248765625">
        <ele>995.1</ele>
        <time>2012-08-09T18:27:07Z</time>
      </trkpt>
      <trkpt lat="61.4944642782" lon="8.812490087">
        <ele>997.99</ele>
        <time>2012-08-09T18:27:08Z</time>
      </trkpt>
      <trkpt lat="61.4944351092" lon="8.81253811531">
        <ele>997.02</ele>
        <time>2012-08-09T18:27:20Z</time>
      </trkpt>
      <trkpt lat="61.494429158" lon="8.81260894239">
        <ele>997.02</ele>
        <time>2012-08-09T18:27:41Z</time>
      </trkpt>
      <trkpt lat="61.4944081195" lon="8.81254364736">
        <ele>999.43</ele>
        <time>2012-08-09T18:28:06Z</time>
      </trkpt>
      <trkpt lat="61.4944146574" lon="8.81253694184">
        <ele>995.58</ele>
        <time>2012-08-09T18:28:14Z</time>
      </trkpt>
      <trkpt lat="61.4944201056" lon="8.81254632957">
        <ele>998.95</ele>
        <time>2012-08-09T18:28:15Z</time>
      </trkpt>
      <trkpt lat="61.4944528788" lon="8.812579019">
        <ele>996.06</ele>
        <time>2012-08-09T18:28:33Z</time>
      </trkpt>
      <trkpt lat="61.4944708161" lon="8.81255831569">
        <ele>996.54</ele>
        <time>2012-08-09T18:28:37Z</time>
      </trkpt>
      <trkpt lat="61.4944437426" lon="8.81272519939">
        <ele>997.02</ele>
        <time>2012-08-09T18:28:49Z</time>
      </trkpt>
      <trkpt lat="61.4944527112" lon="8.81263199262">
        <ele>997.99</ele>
        <time>2012-08-09T18:29:02Z</time>
      </trkpt>
      <trkpt lat="61.494445838" lon="8.81262260489">
        <ele>997.02</ele>
        <time>2012-08-09T18:29:04Z</time>
      </trkpt>
      <trkpt lat="61.4944040123" lon="8.81250291131">
        <ele>999.91</ele>
        <time>2012-08-09T18:29:19Z</time>
      </trkpt>
      <trkpt lat="61.4944019169" lon="8.81249394268">
        <ele>997.99</ele>
        <time>2012-08-09T18:29:20Z</time>
      </trkpt>
      <trkpt lat="61.4943943731" lon="8.81246158853">
        <ele>998.47</ele>
        <time>2012-08-09T18:29:24Z</time>
      </trkpt>
      <trkpt lat="61.4943924453" lon="8.81245345809">
        <ele>997.02</ele>
        <time>2012-08-09T18:29:25Z</time>
      </trkpt>
      <trkpt lat="61.4943886735" lon="8.81243728101">
        <ele>994.62</ele>
        <time>2012-08-09T18:29:27Z</time>
      </trkpt>
      <trkpt lat="61.4943868294" lon="8.81242915057">
        <ele>997.51</ele>
        <time>2012-08-09T18:29:28Z</time>
      </trkpt>
      <trkpt lat="61.4943678863" lon="8.81234818138">
        <ele>999.91</ele>
        <time>2012-08-09T18:29:38Z</time>
      </trkpt>
      <trkpt lat="61.4943659585" lon="8.81234013475">
        <ele>997.02</ele>
        <time>2012-08-09T18:29:39Z</time>
      </trkpt>
      <trkpt lat="61.4943621866" lon="8.81232387386">
        <ele>998.95</ele>
        <time>2012-08-09T18:29:41Z</time>
      </trkpt>
      <trkpt lat="61.4943605103" lon="8.81231658161">
        <ele>997.02</ele>
        <time>2012-08-09T18:29:42Z</time>
      </trkpt>
      <trkpt lat="61.4945374522" lon="8.81272813305">
        <ele>998.47</ele>
        <time>2012-08-09T18:39:40Z</time>
      </trkpt>
      <trkpt lat="61.4945039246" lon="8.812597543">
        <ele>997.99</ele>
        <time>2012-08-09T18:39:45Z</time>
      </trkpt>
      <trkpt lat="61.4944894239" lon="8.8124922663">
        <ele>989.81</ele>
        <time>2012-08-09T18:39:53Z</time>
      </trkpt>
      <trkpt lat="61.494494034" lon="8.81249779835">
        <ele>999.91</ele>
        <time>2012-08-09T18:39:54Z</time>
      </trkpt>
      <trkpt lat="61.4944962133" lon="8.81249721162">
        <ele>995.58</ele>
        <time>2012-08-09T18:39:55Z</time>
      </trkpt>
      <trkpt lat="61.4944437426" lon="8.81239679642">
        <ele>998.95</ele>
        <time>2012-08-09T18:40:19Z</time>
      </trkpt>
      <trkpt lat="61.4944405574" lon="8.81239277311">
        <ele>995.1</ele>
        <time>2012-08-09T18:40:22Z</time>
      </trkpt>
      <trkpt lat="61.4944407251" lon="8.81239629351">
        <ele>998.47</ele>
        <time>2012-08-09T18:40:23Z</time>
      </trkpt>
      <trkpt lat="61.4944651164" lon="8.81242881529">
        <ele>999.43</ele>
        <time>2012-08-09T18:40:47Z</time>
      </trkpt>
      <trkpt lat="61.4945124742" lon="8.81252084859">
        <ele>997.51</ele>
        <time>2012-08-09T18:41:03Z</time>
      </trkpt>
      <trkpt lat="61.4945154916" lon="8.8125288114">
        <ele>997.51</ele>
        <time>2012-08-09T18:41:28Z</time>
      </trkpt>
      <trkpt lat="61.4945346862" lon="8.81251481362">
        <ele>993.66</ele>
        <time>2012-08-09T18:41:39Z</time>
      </trkpt>
      <trkpt lat="61.4945258014" lon="8.81251271814">
        <ele>999.91</ele>
        <time>2012-08-09T18:41:40Z</time>
      </trkpt>
      <trkpt lat="61.4945252985" lon="8.81250861101">
        <ele>999.43</ele>
        <time>2012-08-09T18:41:41Z</time>
      </trkpt>
      <trkpt lat="61.4945233706" lon="8.81250986829">
        <ele>997.99</ele>
        <time>2012-08-09T18:41:43Z</time>
      </trkpt>
      <trkpt lat="61.4945220295" lon="8.81255722605">
        <ele>997.02</ele>
        <time>2012-08-09T18:41:51Z</time>
      </trkpt>
      <trkpt lat="61.4944968838" lon="8.81263392046">
        <ele>997.02</ele>
        <time>2012-08-09T18:41:57Z</time>
      </trkpt>
      <trkpt lat="61.494481042" lon="8.81266149692">
        <ele>997.51</ele>
        <time>2012-08-09T18:42:00Z</time>
      </trkpt>
      <trkpt lat="61.4944516215" lon="8.81270684302">
        <ele>997.51</ele>
        <time>2012-08-09T18:42:05Z</time>
      </trkpt>
      <trkpt lat="61.4944034256" lon="8.81277674809">
        <ele>996.54</ele>
        <time>2012-08-09T18:42:09Z</time>
      </trkpt>
      <trkpt lat="61.4943641145" lon="8.81285285577">
        <ele>997.99</ele>
        <time>2012-08-09T18:42:12Z</time>
      </trkpt>
      <trkpt lat="61.4943109732" lon="8.81297833286">
        <ele>996.54</ele>
        <time>2012-08-09T18:42:21Z</time>
      </trkpt>
      <trkpt lat="61.4942973107" lon="8.8130128663">
        <ele>997.99</ele>
        <time>2012-08-09T18:42:23Z</time>
      </trkpt>
      <trkpt lat="61.4942356199" lon="8.81302099675">
        <ele>997.02</ele>
        <time>2012-08-09T18:42:32Z</time>
      </trkpt>
      <trkpt lat="61.4941663854" lon="8.8130427897">
        <ele>993.66</ele>
        <time>2012-08-09T18:42:47Z</time>
      </trkpt>
      <trkpt lat="61.4940796327" lon="8.81283307448">
        <ele>991.74</ele>
        <time>2012-08-09T18:43:03Z</time>
      </trkpt>
      <trkpt lat="61.4940709155" lon="8.81290247664">
        <ele>992.7</ele>
        <time>2012-08-09T18:43:07Z</time>
      </trkpt>
      <trkpt lat="61.4939493779" lon="8.81302946247">
        <ele>991.26</ele>
        <time>2012-08-09T18:43:19Z</time>
      </trkpt>
      <trkpt lat="61.4938473701" lon="8.81313825957">
        <ele>992.22</ele>
        <time>2012-08-09T18:43:30Z</time>
      </trkpt>
      <trkpt lat="61.4938330371" lon="8.81315745413">
        <ele>990.78</ele>
        <time>2012-08-09T18:43:32Z</time>
      </trkpt>
      <trkpt lat="61.4936730266" lon="8.81310422905">
        <ele>990.3</ele>
        <time>2012-08-09T18:43:46Z</time>
      </trkpt>
      <trkpt lat="61.4936426003" lon="8.813054692">
        <ele>988.37</ele>
        <time>2012-08-09T18:43:52Z</time>
      </trkpt>
      <trkpt lat="61.4935888723" lon="8.81304094568">
        <ele>988.37</ele>
        <time>2012-08-09T18:43:56Z</time>
      </trkpt>
      <trkpt lat="61.4935047179" lon="8.81304312497">
        <ele>986.45</ele>
        <time>2012-08-09T18:44:04Z</time>
      </trkpt>
      <trkpt lat="61.4934840985" lon="8.81306894124">
        <ele>987.89</ele>
        <time>2012-08-09T18:44:06Z</time>
      </trkpt>
      <trkpt lat="61.4934743755" lon="8.81310322322">
        <ele>988.37</ele>
        <time>2012-08-09T18:44:17Z</time>
      </trkpt>
      <trkpt lat="61.4934823383" lon="8.81311261095">
        <ele>985.97</ele>
        <time>2012-08-09T18:44:20Z</time>
      </trkpt>
      <trkpt lat="61.4934822544" lon="8.81311805919">
        <ele>990.3</ele>
        <time>2012-08-09T18:44:21Z</time>
      </trkpt>
      <trkpt lat="61.4934825897" lon="8.81312082522">
        <ele>988.37</ele>
        <time>2012-08-09T18:44:22Z</time>
      </trkpt>
      <trkpt lat="61.4934470505" lon="8.81322928704">
        <ele>988.85</ele>
        <time>2012-08-09T18:44:48Z</time>
      </trkpt>
      <trkpt lat="61.4934417699" lon="8.81322710775">
        <ele>988.85</ele>
        <time>2012-08-09T18:44:49Z</time>
      </trkpt>
      <trkpt lat="61.4933922328" lon="8.813082017">
        <ele>988.37</ele>
        <time>2012-08-09T18:45:13Z</time>
      </trkpt>
      <trkpt lat="61.4931427874" lon="8.81250894628">
        <ele>988.85</ele>
        <time>2012-08-09T18:45:40Z</time>
      </trkpt>
      <trkpt lat="61.4931069128" lon="8.81244063377">
        <ele>988.37</ele>
        <time>2012-08-09T18:45:48Z</time>
      </trkpt>
      <trkpt lat="61.4930808451" lon="8.81247885525">
        <ele>988.85</ele>
        <time>2012-08-09T18:46:30Z</time>
      </trkpt>
      <trkpt lat="61.4930956811" lon="8.81257105619">
        <ele>987.41</ele>
        <time>2012-08-09T18:47:06Z</time>
      </trkpt>
      <trkpt lat="61.4932901412" lon="8.81293172948">
        <ele>988.37</ele>
        <time>2012-08-09T18:47:30Z</time>
      </trkpt>
      <trkpt lat="61.4934102539" lon="8.81318259984">
        <ele>987.89</ele>
        <time>2012-08-09T18:47:38Z</time>
      </trkpt>
      <trkpt lat="61.4933478087" lon="8.81322090514">
        <ele>988.37</ele>
        <time>2012-08-09T18:48:07Z</time>
      </trkpt>
      <trkpt lat="61.4934278559" lon="8.81315267645">
        <ele>988.85</ele>
        <time>2012-08-09T18:49:14Z</time>
      </trkpt>
    </trkseg>
  </trk>
</gpx>